<?xml version="1.0" encoding="UTF-8" standalone="no" ?>
<gpx xmlns="http://www.topografix.com/GPX/1/1" xmlns:xsi="http://www.w3.org/2001/XMLSchema-instance" xsi:schemaLocation="http://www.topografix.com/GPX/1/1 http://www.topografix.com/GPX/1/1/gpx.xsd" version="1.1" creator="VisuGPX - https://www.visugpx.com">
  <metadata>
    <name>Vélo bleu - Circuit 16</name>
    <desc><![CDATA[Petit patrimoine sur ce circuit :
- Lavoirs de Condes, Euffigneix, Sarcicourt, Sexfontaines, Ormoy-les-Sexfontaines, Bologne
- Chapelle Sainte-Bologne à Roôcourt-la-Côte]]></desc>
  </metadata>
  <trk>
    <name><![CDATA[CONDES 4  - Villiers Sexf Bol Riauc]]></name>
    <trkseg>
      <trkpt lat="48.1445" lon="5.14487">
        <ele>260.97</ele>
        <time>2024-12-23T20:57:56.000Z</time>
      </trkpt>
      <trkpt lat="48.14432" lon="5.14491">
        <ele>260.98</ele>
        <time>2024-12-23T20:57:56.003Z</time>
      </trkpt>
      <trkpt lat="48.14412" lon="5.14493">
        <ele>261.11</ele>
        <time>2024-12-23T20:57:56.009Z</time>
      </trkpt>
      <trkpt lat="48.14391" lon="5.14495">
        <ele>261.2</ele>
        <time>2024-12-23T20:57:56.018Z</time>
      </trkpt>
      <trkpt lat="48.14381" lon="5.14488">
        <ele>261.17</ele>
        <time>2024-12-23T20:57:56.029Z</time>
      </trkpt>
      <trkpt lat="48.14372" lon="5.14473">
        <ele>260.97</ele>
        <time>2024-12-23T20:57:56.042Z</time>
      </trkpt>
      <trkpt lat="48.14351" lon="5.14484">
        <ele>260.52</ele>
        <time>2024-12-23T20:57:56.059Z</time>
      </trkpt>
      <trkpt lat="48.14336" lon="5.14499">
        <ele>259.85</ele>
        <time>2024-12-23T20:57:56.079Z</time>
      </trkpt>
      <trkpt lat="48.14331" lon="5.14514">
        <ele>259.16</ele>
        <time>2024-12-23T20:57:56.101Z</time>
      </trkpt>
      <trkpt lat="48.14328" lon="5.14558">
        <ele>258.39</ele>
        <time>2024-12-23T20:57:56.127Z</time>
      </trkpt>
      <trkpt lat="48.14326" lon="5.14602">
        <ele>257.53</ele>
        <time>2024-12-23T20:57:56.158Z</time>
      </trkpt>
      <trkpt lat="48.14323" lon="5.14645">
        <ele>256.56</ele>
        <time>2024-12-23T20:57:56.194Z</time>
      </trkpt>
      <trkpt lat="48.14317" lon="5.14688">
        <ele>255.56</ele>
        <time>2024-12-23T20:57:56.234Z</time>
      </trkpt>
      <trkpt lat="48.14312" lon="5.14731">
        <ele>254.6</ele>
        <time>2024-12-23T20:57:56.279Z</time>
      </trkpt>
      <trkpt lat="48.14307" lon="5.14774">
        <ele>253.77</ele>
        <time>2024-12-23T20:57:56.329Z</time>
      </trkpt>
      <trkpt lat="48.14301" lon="5.14817">
        <ele>252.89</ele>
        <time>2024-12-23T20:57:56.383Z</time>
      </trkpt>
      <trkpt lat="48.14301" lon="5.14846">
        <ele>252.05</ele>
        <time>2024-12-23T20:57:56.441Z</time>
      </trkpt>
      <trkpt lat="48.14301" lon="5.14875">
        <ele>251.35</ele>
        <time>2024-12-23T20:57:56.502Z</time>
      </trkpt>
      <trkpt lat="48.14303" lon="5.14907">
        <ele>250.7</ele>
        <time>2024-12-23T20:57:56.566Z</time>
      </trkpt>
      <trkpt lat="48.14306" lon="5.14939">
        <ele>250.19</ele>
        <time>2024-12-23T20:57:56.634Z</time>
      </trkpt>
      <trkpt lat="48.14306" lon="5.14941">
        <ele>249.77</ele>
        <time>2024-12-23T20:57:56.702Z</time>
      </trkpt>
      <trkpt lat="48.14308" lon="5.14979">
        <ele>249.37</ele>
        <time>2024-12-23T20:57:56.774Z</time>
      </trkpt>
      <trkpt lat="48.1431" lon="5.15016">
        <ele>249.07</ele>
        <time>2024-12-23T20:57:56.850Z</time>
      </trkpt>
      <trkpt lat="48.14318" lon="5.15057">
        <ele>248.86</ele>
        <time>2024-12-23T20:57:56.930Z</time>
      </trkpt>
      <trkpt lat="48.14331" lon="5.15089">
        <ele>248.7</ele>
        <time>2024-12-23T20:57:57.014Z</time>
      </trkpt>
      <trkpt lat="48.14343" lon="5.1512">
        <ele>248.55</ele>
        <time>2024-12-23T20:57:57.102Z</time>
      </trkpt>
      <trkpt lat="48.14355" lon="5.15152">
        <ele>248.48</ele>
        <time>2024-12-23T20:57:57.194Z</time>
      </trkpt>
      <trkpt lat="48.14357" lon="5.15175">
        <ele>248.45</ele>
        <time>2024-12-23T20:57:57.289Z</time>
      </trkpt>
      <trkpt lat="48.14353" lon="5.15186">
        <ele>248.48</ele>
        <time>2024-12-23T20:57:57.385Z</time>
      </trkpt>
      <trkpt lat="48.14345" lon="5.15211">
        <ele>248.71</ele>
        <time>2024-12-23T20:57:57.484Z</time>
      </trkpt>
      <trkpt lat="48.14338" lon="5.15235">
        <ele>249.1</ele>
        <time>2024-12-23T20:57:57.586Z</time>
      </trkpt>
      <trkpt lat="48.14333" lon="5.15248">
        <ele>249.61</ele>
        <time>2024-12-23T20:57:57.689Z</time>
      </trkpt>
      <trkpt lat="48.14333" lon="5.15248">
        <ele>249.84</ele>
        <time>2024-12-23T20:57:57.792Z</time>
      </trkpt>
      <trkpt lat="48.14333" lon="5.15248">
        <ele>250.02</ele>
        <time>2024-12-23T20:57:57.895Z</time>
      </trkpt>
      <trkpt lat="48.14338" lon="5.15235">
        <ele>249.1</ele>
        <time>2024-12-23T20:57:58.000Z</time>
      </trkpt>
      <trkpt lat="48.14345" lon="5.1521">
        <ele>249.59</ele>
        <time>2024-12-23T20:57:58.108Z</time>
      </trkpt>
      <trkpt lat="48.14353" lon="5.15186">
        <ele>248.48</ele>
        <time>2024-12-23T20:57:58.219Z</time>
      </trkpt>
      <trkpt lat="48.14357" lon="5.15175">
        <ele>248.45</ele>
        <time>2024-12-23T20:57:58.331Z</time>
      </trkpt>
      <trkpt lat="48.14355" lon="5.15152">
        <ele>248.48</ele>
        <time>2024-12-23T20:57:58.446Z</time>
      </trkpt>
      <trkpt lat="48.14343" lon="5.1512">
        <ele>249.13</ele>
        <time>2024-12-23T20:57:58.565Z</time>
      </trkpt>
      <trkpt lat="48.14331" lon="5.15088">
        <ele>249.18</ele>
        <time>2024-12-23T20:57:58.687Z</time>
      </trkpt>
      <trkpt lat="48.14318" lon="5.15057">
        <ele>248.86</ele>
        <time>2024-12-23T20:57:58.813Z</time>
      </trkpt>
      <trkpt lat="48.1431" lon="5.15016">
        <ele>249.07</ele>
        <time>2024-12-23T20:57:58.944Z</time>
      </trkpt>
      <trkpt lat="48.14308" lon="5.14979">
        <ele>249.57</ele>
        <time>2024-12-23T20:57:59.079Z</time>
      </trkpt>
      <trkpt lat="48.14306" lon="5.14941">
        <ele>249.77</ele>
        <time>2024-12-23T20:57:59.218Z</time>
      </trkpt>
      <trkpt lat="48.14306" lon="5.14939">
        <ele>250.19</ele>
        <time>2024-12-23T20:57:59.357Z</time>
      </trkpt>
      <trkpt lat="48.14303" lon="5.14907">
        <ele>250.52</ele>
        <time>2024-12-23T20:57:59.500Z</time>
      </trkpt>
      <trkpt lat="48.14301" lon="5.14875">
        <ele>251.35</ele>
        <time>2024-12-23T20:57:59.646Z</time>
      </trkpt>
      <trkpt lat="48.14301" lon="5.14846">
        <ele>251.46</ele>
        <time>2024-12-23T20:57:59.795Z</time>
      </trkpt>
      <trkpt lat="48.14301" lon="5.14817">
        <ele>252.89</ele>
        <time>2024-12-23T20:57:59.947Z</time>
      </trkpt>
      <trkpt lat="48.14307" lon="5.14774">
        <ele>252.73</ele>
        <time>2024-12-23T20:58:00.104Z</time>
      </trkpt>
      <trkpt lat="48.14312" lon="5.14731">
        <ele>253.36</ele>
        <time>2024-12-23T20:58:00.266Z</time>
      </trkpt>
      <trkpt lat="48.14317" lon="5.14688">
        <ele>254.08</ele>
        <time>2024-12-23T20:58:00.432Z</time>
      </trkpt>
      <trkpt lat="48.14323" lon="5.14645">
        <ele>256.56</ele>
        <time>2024-12-23T20:58:00.603Z</time>
      </trkpt>
      <trkpt lat="48.14326" lon="5.14601">
        <ele>255.69</ele>
        <time>2024-12-23T20:58:00.779Z</time>
      </trkpt>
      <trkpt lat="48.14328" lon="5.14558">
        <ele>256.5</ele>
        <time>2024-12-23T20:58:00.959Z</time>
      </trkpt>
      <trkpt lat="48.14331" lon="5.14514">
        <ele>259.16</ele>
        <time>2024-12-23T20:58:01.144Z</time>
      </trkpt>
      <trkpt lat="48.14336" lon="5.14499">
        <ele>259.85</ele>
        <time>2024-12-23T20:58:01.331Z</time>
      </trkpt>
      <trkpt lat="48.14351" lon="5.14484">
        <ele>260.52</ele>
        <time>2024-12-23T20:58:01.521Z</time>
      </trkpt>
      <trkpt lat="48.14372" lon="5.14473">
        <ele>260.97</ele>
        <time>2024-12-23T20:58:01.714Z</time>
      </trkpt>
      <trkpt lat="48.14381" lon="5.14461">
        <ele>260.69</ele>
        <time>2024-12-23T20:58:01.909Z</time>
      </trkpt>
      <trkpt lat="48.14383" lon="5.14446">
        <ele>261.57</ele>
        <time>2024-12-23T20:58:02.106Z</time>
      </trkpt>
      <trkpt lat="48.14378" lon="5.14403">
        <ele>262.55</ele>
        <time>2024-12-23T20:58:02.308Z</time>
      </trkpt>
      <trkpt lat="48.14371" lon="5.14365">
        <ele>263.49</ele>
        <time>2024-12-23T20:58:02.514Z</time>
      </trkpt>
      <trkpt lat="48.14364" lon="5.14327">
        <ele>264.4</ele>
        <time>2024-12-23T20:58:02.724Z</time>
      </trkpt>
      <trkpt lat="48.14357" lon="5.14289">
        <ele>265.41</ele>
        <time>2024-12-23T20:58:02.938Z</time>
      </trkpt>
      <trkpt lat="48.14355" lon="5.1427">
        <ele>266.4</ele>
        <time>2024-12-23T20:58:03.154Z</time>
      </trkpt>
      <trkpt lat="48.14353" lon="5.14227">
        <ele>267.43</ele>
        <time>2024-12-23T20:58:03.375Z</time>
      </trkpt>
      <trkpt lat="48.14348" lon="5.1419">
        <ele>268.41</ele>
        <time>2024-12-23T20:58:03.600Z</time>
      </trkpt>
      <trkpt lat="48.14343" lon="5.14154">
        <ele>269.64</ele>
        <time>2024-12-23T20:58:03.829Z</time>
      </trkpt>
      <trkpt lat="48.14338" lon="5.14117">
        <ele>271.01</ele>
        <time>2024-12-23T20:58:04.062Z</time>
      </trkpt>
      <trkpt lat="48.14332" lon="5.14079">
        <ele>272.35</ele>
        <time>2024-12-23T20:58:04.299Z</time>
      </trkpt>
      <trkpt lat="48.14326" lon="5.1404">
        <ele>273.8</ele>
        <time>2024-12-23T20:58:04.540Z</time>
      </trkpt>
      <trkpt lat="48.14321" lon="5.14001">
        <ele>275.2</ele>
        <time>2024-12-23T20:58:04.786Z</time>
      </trkpt>
      <trkpt lat="48.14322" lon="5.13963">
        <ele>276.64</ele>
        <time>2024-12-23T20:58:05.036Z</time>
      </trkpt>
      <trkpt lat="48.14323" lon="5.13924">
        <ele>278.06</ele>
        <time>2024-12-23T20:58:05.290Z</time>
      </trkpt>
      <trkpt lat="48.14323" lon="5.13911">
        <ele>279.47</ele>
        <time>2024-12-23T20:58:05.545Z</time>
      </trkpt>
      <trkpt lat="48.14336" lon="5.13875">
        <ele>281.11</ele>
        <time>2024-12-23T20:58:05.805Z</time>
      </trkpt>
      <trkpt lat="48.14323" lon="5.13849">
        <ele>282.61</ele>
        <time>2024-12-23T20:58:06.068Z</time>
      </trkpt>
      <trkpt lat="48.14325" lon="5.13825">
        <ele>284.22</ele>
        <time>2024-12-23T20:58:06.334Z</time>
      </trkpt>
      <trkpt lat="48.14309" lon="5.13789">
        <ele>285.7</ele>
        <time>2024-12-23T20:58:06.604Z</time>
      </trkpt>
      <trkpt lat="48.14293" lon="5.13752">
        <ele>287.18</ele>
        <time>2024-12-23T20:58:06.879Z</time>
      </trkpt>
      <trkpt lat="48.14286" lon="5.13725">
        <ele>288.71</ele>
        <time>2024-12-23T20:58:07.157Z</time>
      </trkpt>
      <trkpt lat="48.14284" lon="5.13697">
        <ele>290.21</ele>
        <time>2024-12-23T20:58:07.438Z</time>
      </trkpt>
      <trkpt lat="48.14284" lon="5.13697">
        <ele>291.47</ele>
        <time>2024-12-23T20:58:07.719Z</time>
      </trkpt>
      <trkpt lat="48.14283" lon="5.13657">
        <ele>292.86</ele>
        <time>2024-12-23T20:58:08.005Z</time>
      </trkpt>
      <trkpt lat="48.14281" lon="5.13616">
        <ele>294.21</ele>
        <time>2024-12-23T20:58:08.295Z</time>
      </trkpt>
      <trkpt lat="48.1428" lon="5.13577">
        <ele>295.34</ele>
        <time>2024-12-23T20:58:08.589Z</time>
      </trkpt>
      <trkpt lat="48.1427" lon="5.13536">
        <ele>296.26</ele>
        <time>2024-12-23T20:58:08.888Z</time>
      </trkpt>
      <trkpt lat="48.1426" lon="5.13495">
        <ele>297.07</ele>
        <time>2024-12-23T20:58:09.192Z</time>
      </trkpt>
      <trkpt lat="48.1425" lon="5.13454">
        <ele>297.78</ele>
        <time>2024-12-23T20:58:09.500Z</time>
      </trkpt>
      <trkpt lat="48.14244" lon="5.1341">
        <ele>298.41</ele>
        <time>2024-12-23T20:58:09.813Z</time>
      </trkpt>
      <trkpt lat="48.14238" lon="5.13367">
        <ele>299.04</ele>
        <time>2024-12-23T20:58:10.131Z</time>
      </trkpt>
      <trkpt lat="48.14233" lon="5.13323">
        <ele>299.59</ele>
        <time>2024-12-23T20:58:10.454Z</time>
      </trkpt>
      <trkpt lat="48.14227" lon="5.13279">
        <ele>299.98</ele>
        <time>2024-12-23T20:58:10.781Z</time>
      </trkpt>
      <trkpt lat="48.14222" lon="5.13235">
        <ele>300.18</ele>
        <time>2024-12-23T20:58:11.113Z</time>
      </trkpt>
      <trkpt lat="48.14216" lon="5.13191">
        <ele>300.43</ele>
        <time>2024-12-23T20:58:11.450Z</time>
      </trkpt>
      <trkpt lat="48.1421" lon="5.13147">
        <ele>300.79</ele>
        <time>2024-12-23T20:58:11.792Z</time>
      </trkpt>
      <trkpt lat="48.14205" lon="5.13104">
        <ele>301.08</ele>
        <time>2024-12-23T20:58:12.138Z</time>
      </trkpt>
      <trkpt lat="48.14197" lon="5.13067">
        <ele>301.23</ele>
        <time>2024-12-23T20:58:12.489Z</time>
      </trkpt>
      <trkpt lat="48.1419" lon="5.13029">
        <ele>301.38</ele>
        <time>2024-12-23T20:58:12.844Z</time>
      </trkpt>
      <trkpt lat="48.14178" lon="5.12986">
        <ele>301.57</ele>
        <time>2024-12-23T20:58:13.204Z</time>
      </trkpt>
      <trkpt lat="48.14166" lon="5.12944">
        <ele>301.71</ele>
        <time>2024-12-23T20:58:13.569Z</time>
      </trkpt>
      <trkpt lat="48.14153" lon="5.12913">
        <ele>301.8</ele>
        <time>2024-12-23T20:58:13.938Z</time>
      </trkpt>
      <trkpt lat="48.1414" lon="5.12883">
        <ele>301.86</ele>
        <time>2024-12-23T20:58:14.310Z</time>
      </trkpt>
      <trkpt lat="48.14127" lon="5.12853">
        <ele>301.86</ele>
        <time>2024-12-23T20:58:14.686Z</time>
      </trkpt>
      <trkpt lat="48.14115" lon="5.12823">
        <ele>301.82</ele>
        <time>2024-12-23T20:58:15.066Z</time>
      </trkpt>
      <trkpt lat="48.14105" lon="5.12794">
        <ele>301.82</ele>
        <time>2024-12-23T20:58:15.450Z</time>
      </trkpt>
      <trkpt lat="48.14094" lon="5.12765">
        <ele>301.88</ele>
        <time>2024-12-23T20:58:15.837Z</time>
      </trkpt>
      <trkpt lat="48.14085" lon="5.12735">
        <ele>302</ele>
        <time>2024-12-23T20:58:16.228Z</time>
      </trkpt>
      <trkpt lat="48.14076" lon="5.12697">
        <ele>302.09</ele>
        <time>2024-12-23T20:58:16.623Z</time>
      </trkpt>
      <trkpt lat="48.14071" lon="5.12656">
        <ele>302.15</ele>
        <time>2024-12-23T20:58:17.022Z</time>
      </trkpt>
      <trkpt lat="48.14065" lon="5.12615">
        <ele>302.05</ele>
        <time>2024-12-23T20:58:17.426Z</time>
      </trkpt>
      <trkpt lat="48.14057" lon="5.12587">
        <ele>302.01</ele>
        <time>2024-12-23T20:58:17.833Z</time>
      </trkpt>
      <trkpt lat="48.14048" lon="5.12559">
        <ele>301.93</ele>
        <time>2024-12-23T20:58:18.243Z</time>
      </trkpt>
      <trkpt lat="48.14036" lon="5.12528">
        <ele>301.87</ele>
        <time>2024-12-23T20:58:18.657Z</time>
      </trkpt>
      <trkpt lat="48.14023" lon="5.12496">
        <ele>301.76</ele>
        <time>2024-12-23T20:58:19.075Z</time>
      </trkpt>
      <trkpt lat="48.14011" lon="5.12464">
        <ele>301.63</ele>
        <time>2024-12-23T20:58:19.497Z</time>
      </trkpt>
      <trkpt lat="48.13999" lon="5.12433">
        <ele>301.42</ele>
        <time>2024-12-23T20:58:19.923Z</time>
      </trkpt>
      <trkpt lat="48.13992" lon="5.124">
        <ele>301.13</ele>
        <time>2024-12-23T20:58:20.353Z</time>
      </trkpt>
      <trkpt lat="48.13985" lon="5.12366">
        <ele>300.78</ele>
        <time>2024-12-23T20:58:20.787Z</time>
      </trkpt>
      <trkpt lat="48.13985" lon="5.12367">
        <ele>300.46</ele>
        <time>2024-12-23T20:58:21.221Z</time>
      </trkpt>
      <trkpt lat="48.13985" lon="5.12367">
        <ele>300.11</ele>
        <time>2024-12-23T20:58:21.655Z</time>
      </trkpt>
      <trkpt lat="48.13979" lon="5.12336">
        <ele>299.69</ele>
        <time>2024-12-23T20:58:22.092Z</time>
      </trkpt>
      <trkpt lat="48.13976" lon="5.12295">
        <ele>299.29</ele>
        <time>2024-12-23T20:58:22.533Z</time>
      </trkpt>
      <trkpt lat="48.13972" lon="5.12254">
        <ele>298.8</ele>
        <time>2024-12-23T20:58:22.979Z</time>
      </trkpt>
      <trkpt lat="48.13969" lon="5.12213">
        <ele>298.24</ele>
        <time>2024-12-23T20:58:23.429Z</time>
      </trkpt>
      <trkpt lat="48.13965" lon="5.12171">
        <ele>297.68</ele>
        <time>2024-12-23T20:58:23.884Z</time>
      </trkpt>
      <trkpt lat="48.13961" lon="5.1213">
        <ele>297.16</ele>
        <time>2024-12-23T20:58:24.343Z</time>
      </trkpt>
      <trkpt lat="48.13958" lon="5.12089">
        <ele>296.63</ele>
        <time>2024-12-23T20:58:24.807Z</time>
      </trkpt>
      <trkpt lat="48.13953" lon="5.1205">
        <ele>296.04</ele>
        <time>2024-12-23T20:58:25.275Z</time>
      </trkpt>
      <trkpt lat="48.13947" lon="5.12011">
        <ele>295.46</ele>
        <time>2024-12-23T20:58:25.747Z</time>
      </trkpt>
      <trkpt lat="48.13942" lon="5.11972">
        <ele>294.94</ele>
        <time>2024-12-23T20:58:26.223Z</time>
      </trkpt>
      <trkpt lat="48.13936" lon="5.11933">
        <ele>294.37</ele>
        <time>2024-12-23T20:58:26.704Z</time>
      </trkpt>
      <trkpt lat="48.13929" lon="5.11893">
        <ele>293.85</ele>
        <time>2024-12-23T20:58:27.189Z</time>
      </trkpt>
      <trkpt lat="48.13922" lon="5.11854">
        <ele>293.36</ele>
        <time>2024-12-23T20:58:27.679Z</time>
      </trkpt>
      <trkpt lat="48.13915" lon="5.11815">
        <ele>292.91</ele>
        <time>2024-12-23T20:58:28.173Z</time>
      </trkpt>
      <trkpt lat="48.13909" lon="5.11781">
        <ele>292.49</ele>
        <time>2024-12-23T20:58:28.671Z</time>
      </trkpt>
      <trkpt lat="48.13904" lon="5.11747">
        <ele>292.14</ele>
        <time>2024-12-23T20:58:29.172Z</time>
      </trkpt>
      <trkpt lat="48.13898" lon="5.11714">
        <ele>291.81</ele>
        <time>2024-12-23T20:58:29.677Z</time>
      </trkpt>
      <trkpt lat="48.13893" lon="5.1168">
        <ele>291.44</ele>
        <time>2024-12-23T20:58:30.186Z</time>
      </trkpt>
      <trkpt lat="48.13888" lon="5.11647">
        <ele>291.05</ele>
        <time>2024-12-23T20:58:30.698Z</time>
      </trkpt>
      <trkpt lat="48.13883" lon="5.11613">
        <ele>290.68</ele>
        <time>2024-12-23T20:58:31.214Z</time>
      </trkpt>
      <trkpt lat="48.13885" lon="5.11575">
        <ele>290.45</ele>
        <time>2024-12-23T20:58:31.734Z</time>
      </trkpt>
      <trkpt lat="48.13889" lon="5.11542">
        <ele>290.21</ele>
        <time>2024-12-23T20:58:32.258Z</time>
      </trkpt>
      <trkpt lat="48.13894" lon="5.1151">
        <ele>289.97</ele>
        <time>2024-12-23T20:58:32.785Z</time>
      </trkpt>
      <trkpt lat="48.13901" lon="5.11467">
        <ele>289.77</ele>
        <time>2024-12-23T20:58:33.317Z</time>
      </trkpt>
      <trkpt lat="48.13909" lon="5.11424">
        <ele>289.6</ele>
        <time>2024-12-23T20:58:33.854Z</time>
      </trkpt>
      <trkpt lat="48.13917" lon="5.11381">
        <ele>289.45</ele>
        <time>2024-12-23T20:58:34.396Z</time>
      </trkpt>
      <trkpt lat="48.13923" lon="5.11351">
        <ele>289.34</ele>
        <time>2024-12-23T20:58:34.941Z</time>
      </trkpt>
      <trkpt lat="48.13928" lon="5.11321">
        <ele>289.29</ele>
        <time>2024-12-23T20:58:35.489Z</time>
      </trkpt>
      <trkpt lat="48.13928" lon="5.11321">
        <ele>289.23</ele>
        <time>2024-12-23T20:58:36.037Z</time>
      </trkpt>
      <trkpt lat="48.13933" lon="5.1129">
        <ele>289.19</ele>
        <time>2024-12-23T20:58:36.589Z</time>
      </trkpt>
      <trkpt lat="48.13939" lon="5.11259">
        <ele>289.17</ele>
        <time>2024-12-23T20:58:37.144Z</time>
      </trkpt>
      <trkpt lat="48.13941" lon="5.11216">
        <ele>289.16</ele>
        <time>2024-12-23T20:58:37.704Z</time>
      </trkpt>
      <trkpt lat="48.13936" lon="5.1119">
        <ele>289.17</ele>
        <time>2024-12-23T20:58:38.267Z</time>
      </trkpt>
      <trkpt lat="48.13932" lon="5.11165">
        <ele>289.19</ele>
        <time>2024-12-23T20:58:38.832Z</time>
      </trkpt>
      <trkpt lat="48.13922" lon="5.11128">
        <ele>289.16</ele>
        <time>2024-12-23T20:58:39.402Z</time>
      </trkpt>
      <trkpt lat="48.13912" lon="5.11092">
        <ele>289.2</ele>
        <time>2024-12-23T20:58:39.976Z</time>
      </trkpt>
      <trkpt lat="48.13902" lon="5.11055">
        <ele>289.21</ele>
        <time>2024-12-23T20:58:40.554Z</time>
      </trkpt>
      <trkpt lat="48.139" lon="5.11032">
        <ele>289.24</ele>
        <time>2024-12-23T20:58:41.135Z</time>
      </trkpt>
      <trkpt lat="48.13898" lon="5.11008">
        <ele>289.27</ele>
        <time>2024-12-23T20:58:41.718Z</time>
      </trkpt>
      <trkpt lat="48.13897" lon="5.10967">
        <ele>289.33</ele>
        <time>2024-12-23T20:58:42.306Z</time>
      </trkpt>
      <trkpt lat="48.13896" lon="5.10926">
        <ele>289.47</ele>
        <time>2024-12-23T20:58:42.898Z</time>
      </trkpt>
      <trkpt lat="48.13895" lon="5.10885">
        <ele>289.59</ele>
        <time>2024-12-23T20:58:43.494Z</time>
      </trkpt>
      <trkpt lat="48.13894" lon="5.10845">
        <ele>289.65</ele>
        <time>2024-12-23T20:58:44.095Z</time>
      </trkpt>
      <trkpt lat="48.13892" lon="5.10804">
        <ele>289.66</ele>
        <time>2024-12-23T20:58:44.700Z</time>
      </trkpt>
      <trkpt lat="48.13891" lon="5.10763">
        <ele>289.69</ele>
        <time>2024-12-23T20:58:45.309Z</time>
      </trkpt>
      <trkpt lat="48.13888" lon="5.10731">
        <ele>289.71</ele>
        <time>2024-12-23T20:58:45.922Z</time>
      </trkpt>
      <trkpt lat="48.13884" lon="5.10699">
        <ele>289.69</ele>
        <time>2024-12-23T20:58:46.538Z</time>
      </trkpt>
      <trkpt lat="48.13881" lon="5.10667">
        <ele>289.62</ele>
        <time>2024-12-23T20:58:47.158Z</time>
      </trkpt>
      <trkpt lat="48.13877" lon="5.10629">
        <ele>289.54</ele>
        <time>2024-12-23T20:58:47.782Z</time>
      </trkpt>
      <trkpt lat="48.13874" lon="5.10592">
        <ele>289.39</ele>
        <time>2024-12-23T20:58:48.410Z</time>
      </trkpt>
      <trkpt lat="48.13876" lon="5.10558">
        <ele>289.25</ele>
        <time>2024-12-23T20:58:49.042Z</time>
      </trkpt>
      <trkpt lat="48.13879" lon="5.10525">
        <ele>289.02</ele>
        <time>2024-12-23T20:58:49.677Z</time>
      </trkpt>
      <trkpt lat="48.13885" lon="5.1048">
        <ele>288.75</ele>
        <time>2024-12-23T20:58:50.317Z</time>
      </trkpt>
      <trkpt lat="48.13891" lon="5.10434">
        <ele>288.57</ele>
        <time>2024-12-23T20:58:50.962Z</time>
      </trkpt>
      <trkpt lat="48.13898" lon="5.10388">
        <ele>288.44</ele>
        <time>2024-12-23T20:58:51.612Z</time>
      </trkpt>
      <trkpt lat="48.13904" lon="5.10343">
        <ele>288.21</ele>
        <time>2024-12-23T20:58:52.267Z</time>
      </trkpt>
      <trkpt lat="48.13904" lon="5.103">
        <ele>287.93</ele>
        <time>2024-12-23T20:58:52.927Z</time>
      </trkpt>
      <trkpt lat="48.13898" lon="5.10256">
        <ele>287.75</ele>
        <time>2024-12-23T20:58:53.592Z</time>
      </trkpt>
      <trkpt lat="48.13893" lon="5.10212">
        <ele>287.68</ele>
        <time>2024-12-23T20:58:54.261Z</time>
      </trkpt>
      <trkpt lat="48.13887" lon="5.10168">
        <ele>287.55</ele>
        <time>2024-12-23T20:58:54.935Z</time>
      </trkpt>
      <trkpt lat="48.13881" lon="5.10124">
        <ele>287.53</ele>
        <time>2024-12-23T20:58:55.614Z</time>
      </trkpt>
      <trkpt lat="48.13875" lon="5.1008">
        <ele>287.5</ele>
        <time>2024-12-23T20:58:56.298Z</time>
      </trkpt>
      <trkpt lat="48.13869" lon="5.10037">
        <ele>287.42</ele>
        <time>2024-12-23T20:58:56.987Z</time>
      </trkpt>
      <trkpt lat="48.13864" lon="5.09993">
        <ele>287.32</ele>
        <time>2024-12-23T20:58:57.680Z</time>
      </trkpt>
      <trkpt lat="48.13858" lon="5.09949">
        <ele>287.26</ele>
        <time>2024-12-23T20:58:58.378Z</time>
      </trkpt>
      <trkpt lat="48.13852" lon="5.09905">
        <ele>287.2</ele>
        <time>2024-12-23T20:58:59.081Z</time>
      </trkpt>
      <trkpt lat="48.13846" lon="5.09862">
        <ele>287.18</ele>
        <time>2024-12-23T20:58:59.789Z</time>
      </trkpt>
      <trkpt lat="48.1384" lon="5.09819">
        <ele>287.1</ele>
        <time>2024-12-23T20:59:00.501Z</time>
      </trkpt>
      <trkpt lat="48.13833" lon="5.09776">
        <ele>286.96</ele>
        <time>2024-12-23T20:59:01.218Z</time>
      </trkpt>
      <trkpt lat="48.13827" lon="5.09733">
        <ele>286.86</ele>
        <time>2024-12-23T20:59:01.940Z</time>
      </trkpt>
      <trkpt lat="48.1382" lon="5.09689">
        <ele>286.75</ele>
        <time>2024-12-23T20:59:02.667Z</time>
      </trkpt>
      <trkpt lat="48.13814" lon="5.09646">
        <ele>286.64</ele>
        <time>2024-12-23T20:59:03.398Z</time>
      </trkpt>
      <trkpt lat="48.13807" lon="5.09603">
        <ele>286.44</ele>
        <time>2024-12-23T20:59:04.134Z</time>
      </trkpt>
      <trkpt lat="48.13801" lon="5.0956">
        <ele>286.34</ele>
        <time>2024-12-23T20:59:04.875Z</time>
      </trkpt>
      <trkpt lat="48.13801" lon="5.09561">
        <ele>286.17</ele>
        <time>2024-12-23T20:59:05.616Z</time>
      </trkpt>
      <trkpt lat="48.13801" lon="5.09561">
        <ele>285.99</ele>
        <time>2024-12-23T20:59:06.357Z</time>
      </trkpt>
      <trkpt lat="48.13801" lon="5.09561">
        <ele>285.78</ele>
        <time>2024-12-23T20:59:07.098Z</time>
      </trkpt>
      <trkpt lat="48.13801" lon="5.09561">
        <ele>285.56</ele>
        <time>2024-12-23T20:59:07.839Z</time>
      </trkpt>
      <trkpt lat="48.13795" lon="5.09518">
        <ele>285.27</ele>
        <time>2024-12-23T20:59:08.584Z</time>
      </trkpt>
      <trkpt lat="48.13788" lon="5.09475">
        <ele>284.93</ele>
        <time>2024-12-23T20:59:09.334Z</time>
      </trkpt>
      <trkpt lat="48.13782" lon="5.09432">
        <ele>284.62</ele>
        <time>2024-12-23T20:59:10.089Z</time>
      </trkpt>
      <trkpt lat="48.13775" lon="5.09389">
        <ele>284.36</ele>
        <time>2024-12-23T20:59:10.849Z</time>
      </trkpt>
      <trkpt lat="48.13769" lon="5.09346">
        <ele>284.09</ele>
        <time>2024-12-23T20:59:11.613Z</time>
      </trkpt>
      <trkpt lat="48.13763" lon="5.09304">
        <ele>283.83</ele>
        <time>2024-12-23T20:59:12.382Z</time>
      </trkpt>
      <trkpt lat="48.13758" lon="5.09267">
        <ele>283.5</ele>
        <time>2024-12-23T20:59:13.155Z</time>
      </trkpt>
      <trkpt lat="48.13754" lon="5.0923">
        <ele>283.12</ele>
        <time>2024-12-23T20:59:13.932Z</time>
      </trkpt>
      <trkpt lat="48.1375" lon="5.09193">
        <ele>282.71</ele>
        <time>2024-12-23T20:59:14.713Z</time>
      </trkpt>
      <trkpt lat="48.13743" lon="5.09156">
        <ele>282.35</ele>
        <time>2024-12-23T20:59:15.498Z</time>
      </trkpt>
      <trkpt lat="48.13734" lon="5.09133">
        <ele>282.01</ele>
        <time>2024-12-23T20:59:16.286Z</time>
      </trkpt>
      <trkpt lat="48.13724" lon="5.09109">
        <ele>281.67</ele>
        <time>2024-12-23T20:59:17.077Z</time>
      </trkpt>
      <trkpt lat="48.13707" lon="5.09096">
        <ele>281.37</ele>
        <time>2024-12-23T20:59:17.871Z</time>
      </trkpt>
      <trkpt lat="48.1369" lon="5.09083">
        <ele>281.08</ele>
        <time>2024-12-23T20:59:18.668Z</time>
      </trkpt>
      <trkpt lat="48.13666" lon="5.09075">
        <ele>280.84</ele>
        <time>2024-12-23T20:59:19.469Z</time>
      </trkpt>
      <trkpt lat="48.13668" lon="5.09046">
        <ele>280.63</ele>
        <time>2024-12-23T20:59:20.273Z</time>
      </trkpt>
      <trkpt lat="48.1367" lon="5.09017">
        <ele>280.45</ele>
        <time>2024-12-23T20:59:21.080Z</time>
      </trkpt>
      <trkpt lat="48.13653" lon="5.09017">
        <ele>280.29</ele>
        <time>2024-12-23T20:59:21.890Z</time>
      </trkpt>
      <trkpt lat="48.13645" lon="5.09008">
        <ele>280.16</ele>
        <time>2024-12-23T20:59:22.702Z</time>
      </trkpt>
      <trkpt lat="48.13632" lon="5.08976">
        <ele>280.07</ele>
        <time>2024-12-23T20:59:23.518Z</time>
      </trkpt>
      <trkpt lat="48.13619" lon="5.08944">
        <ele>280</ele>
        <time>2024-12-23T20:59:24.338Z</time>
      </trkpt>
      <trkpt lat="48.1361" lon="5.08915">
        <ele>279.96</ele>
        <time>2024-12-23T20:59:25.161Z</time>
      </trkpt>
      <trkpt lat="48.13602" lon="5.08886">
        <ele>279.93</ele>
        <time>2024-12-23T20:59:25.988Z</time>
      </trkpt>
      <trkpt lat="48.13602" lon="5.08862">
        <ele>279.86</ele>
        <time>2024-12-23T20:59:26.817Z</time>
      </trkpt>
      <trkpt lat="48.13603" lon="5.08825">
        <ele>279.78</ele>
        <time>2024-12-23T20:59:27.650Z</time>
      </trkpt>
      <trkpt lat="48.13605" lon="5.08788">
        <ele>279.63</ele>
        <time>2024-12-23T20:59:28.487Z</time>
      </trkpt>
      <trkpt lat="48.13606" lon="5.08751">
        <ele>279.5</ele>
        <time>2024-12-23T20:59:29.328Z</time>
      </trkpt>
      <trkpt lat="48.1361" lon="5.08709">
        <ele>279.4</ele>
        <time>2024-12-23T20:59:30.174Z</time>
      </trkpt>
      <trkpt lat="48.13615" lon="5.08668">
        <ele>279.3</ele>
        <time>2024-12-23T20:59:31.024Z</time>
      </trkpt>
      <trkpt lat="48.13619" lon="5.08627">
        <ele>279.24</ele>
        <time>2024-12-23T20:59:31.878Z</time>
      </trkpt>
      <trkpt lat="48.13623" lon="5.08586">
        <ele>279.17</ele>
        <time>2024-12-23T20:59:32.737Z</time>
      </trkpt>
      <trkpt lat="48.13623" lon="5.08586">
        <ele>279.13</ele>
        <time>2024-12-23T20:59:33.596Z</time>
      </trkpt>
      <trkpt lat="48.13627" lon="5.08543">
        <ele>279</ele>
        <time>2024-12-23T20:59:34.460Z</time>
      </trkpt>
      <trkpt lat="48.1363" lon="5.08532">
        <ele>278.96</ele>
        <time>2024-12-23T20:59:35.325Z</time>
      </trkpt>
      <trkpt lat="48.1363" lon="5.08532">
        <ele>278.96</ele>
        <time>2024-12-23T20:59:36.190Z</time>
      </trkpt>
      <trkpt lat="48.1363" lon="5.08532">
        <ele>278.99</ele>
        <time>2024-12-23T20:59:37.055Z</time>
      </trkpt>
      <trkpt lat="48.1363" lon="5.08532">
        <ele>278.96</ele>
        <time>2024-12-23T20:59:37.920Z</time>
      </trkpt>
      <trkpt lat="48.1361" lon="5.08514">
        <ele>279.03</ele>
        <time>2024-12-23T20:59:38.789Z</time>
      </trkpt>
      <trkpt lat="48.13591" lon="5.08496">
        <ele>279.11</ele>
        <time>2024-12-23T20:59:39.661Z</time>
      </trkpt>
      <trkpt lat="48.13572" lon="5.08478">
        <ele>279.23</ele>
        <time>2024-12-23T20:59:40.537Z</time>
      </trkpt>
      <trkpt lat="48.13555" lon="5.08451">
        <ele>279.43</ele>
        <time>2024-12-23T20:59:41.417Z</time>
      </trkpt>
      <trkpt lat="48.13537" lon="5.08425">
        <ele>279.68</ele>
        <time>2024-12-23T20:59:42.301Z</time>
      </trkpt>
      <trkpt lat="48.13507" lon="5.08413">
        <ele>279.89</ele>
        <time>2024-12-23T20:59:43.190Z</time>
      </trkpt>
      <trkpt lat="48.13477" lon="5.08401">
        <ele>280.12</ele>
        <time>2024-12-23T20:59:44.084Z</time>
      </trkpt>
      <trkpt lat="48.13452" lon="5.08392">
        <ele>280.35</ele>
        <time>2024-12-23T20:59:44.982Z</time>
      </trkpt>
      <trkpt lat="48.13427" lon="5.08383">
        <ele>280.56</ele>
        <time>2024-12-23T20:59:45.884Z</time>
      </trkpt>
      <trkpt lat="48.13402" lon="5.08374">
        <ele>280.77</ele>
        <time>2024-12-23T20:59:46.790Z</time>
      </trkpt>
      <trkpt lat="48.13376" lon="5.08364">
        <ele>281.07</ele>
        <time>2024-12-23T20:59:47.700Z</time>
      </trkpt>
      <trkpt lat="48.13354" lon="5.08355">
        <ele>281.36</ele>
        <time>2024-12-23T20:59:48.614Z</time>
      </trkpt>
      <trkpt lat="48.13331" lon="5.08346">
        <ele>281.54</ele>
        <time>2024-12-23T20:59:49.532Z</time>
      </trkpt>
      <trkpt lat="48.13308" lon="5.08337">
        <ele>281.73</ele>
        <time>2024-12-23T20:59:50.454Z</time>
      </trkpt>
      <trkpt lat="48.13286" lon="5.08324">
        <ele>281.93</ele>
        <time>2024-12-23T20:59:51.379Z</time>
      </trkpt>
      <trkpt lat="48.13263" lon="5.08312">
        <ele>282.12</ele>
        <time>2024-12-23T20:59:52.308Z</time>
      </trkpt>
      <trkpt lat="48.13241" lon="5.083">
        <ele>282.29</ele>
        <time>2024-12-23T20:59:53.241Z</time>
      </trkpt>
      <trkpt lat="48.13214" lon="5.08286">
        <ele>282.38</ele>
        <time>2024-12-23T20:59:54.179Z</time>
      </trkpt>
      <trkpt lat="48.13188" lon="5.08271">
        <ele>282.35</ele>
        <time>2024-12-23T20:59:55.121Z</time>
      </trkpt>
      <trkpt lat="48.13161" lon="5.08257">
        <ele>282.46</ele>
        <time>2024-12-23T20:59:56.068Z</time>
      </trkpt>
      <trkpt lat="48.13134" lon="5.08242">
        <ele>282.57</ele>
        <time>2024-12-23T20:59:57.019Z</time>
      </trkpt>
      <trkpt lat="48.13107" lon="5.08228">
        <ele>282.6</ele>
        <time>2024-12-23T20:59:57.975Z</time>
      </trkpt>
      <trkpt lat="48.1308" lon="5.08213">
        <ele>282.59</ele>
        <time>2024-12-23T20:59:58.935Z</time>
      </trkpt>
      <trkpt lat="48.13053" lon="5.08199">
        <ele>282.56</ele>
        <time>2024-12-23T20:59:59.900Z</time>
      </trkpt>
      <trkpt lat="48.13027" lon="5.08184">
        <ele>282.55</ele>
        <time>2024-12-23T21:00:00.870Z</time>
      </trkpt>
      <trkpt lat="48.13003" lon="5.08165">
        <ele>282.54</ele>
        <time>2024-12-23T21:00:01.844Z</time>
      </trkpt>
      <trkpt lat="48.12979" lon="5.08146">
        <ele>282.5</ele>
        <time>2024-12-23T21:00:02.822Z</time>
      </trkpt>
      <trkpt lat="48.12955" lon="5.08126">
        <ele>282.39</ele>
        <time>2024-12-23T21:00:03.805Z</time>
      </trkpt>
      <trkpt lat="48.12931" lon="5.08107">
        <ele>282.31</ele>
        <time>2024-12-23T21:00:04.792Z</time>
      </trkpt>
      <trkpt lat="48.12907" lon="5.08088">
        <ele>282.29</ele>
        <time>2024-12-23T21:00:05.783Z</time>
      </trkpt>
      <trkpt lat="48.12883" lon="5.08068">
        <ele>282.22</ele>
        <time>2024-12-23T21:00:06.779Z</time>
      </trkpt>
      <trkpt lat="48.12859" lon="5.08049">
        <ele>282.06</ele>
        <time>2024-12-23T21:00:07.779Z</time>
      </trkpt>
      <trkpt lat="48.12837" lon="5.08034">
        <ele>281.88</ele>
        <time>2024-12-23T21:00:08.783Z</time>
      </trkpt>
      <trkpt lat="48.12814" lon="5.08019">
        <ele>281.7</ele>
        <time>2024-12-23T21:00:09.791Z</time>
      </trkpt>
      <trkpt lat="48.12785" lon="5.08004">
        <ele>281.5</ele>
        <time>2024-12-23T21:00:10.804Z</time>
      </trkpt>
      <trkpt lat="48.12755" lon="5.0799">
        <ele>281.38</ele>
        <time>2024-12-23T21:00:11.822Z</time>
      </trkpt>
      <trkpt lat="48.12726" lon="5.07975">
        <ele>281.3</ele>
        <time>2024-12-23T21:00:12.845Z</time>
      </trkpt>
      <trkpt lat="48.12697" lon="5.0796">
        <ele>281.2</ele>
        <time>2024-12-23T21:00:13.873Z</time>
      </trkpt>
      <trkpt lat="48.12667" lon="5.07945">
        <ele>281.09</ele>
        <time>2024-12-23T21:00:14.906Z</time>
      </trkpt>
      <trkpt lat="48.12638" lon="5.07931">
        <ele>281.1</ele>
        <time>2024-12-23T21:00:15.944Z</time>
      </trkpt>
      <trkpt lat="48.12608" lon="5.07916">
        <ele>281.12</ele>
        <time>2024-12-23T21:00:16.987Z</time>
      </trkpt>
      <trkpt lat="48.1258" lon="5.07899">
        <ele>281.04</ele>
        <time>2024-12-23T21:00:18.035Z</time>
      </trkpt>
      <trkpt lat="48.12551" lon="5.07882">
        <ele>281.01</ele>
        <time>2024-12-23T21:00:19.088Z</time>
      </trkpt>
      <trkpt lat="48.12522" lon="5.07864">
        <ele>280.97</ele>
        <time>2024-12-23T21:00:20.146Z</time>
      </trkpt>
      <trkpt lat="48.12522" lon="5.07864">
        <ele>280.98</ele>
        <time>2024-12-23T21:00:21.204Z</time>
      </trkpt>
      <trkpt lat="48.12506" lon="5.07853">
        <ele>280.98</ele>
        <time>2024-12-23T21:00:22.264Z</time>
      </trkpt>
      <trkpt lat="48.1249" lon="5.07841">
        <ele>281.02</ele>
        <time>2024-12-23T21:00:23.327Z</time>
      </trkpt>
      <trkpt lat="48.12467" lon="5.07834">
        <ele>281.09</ele>
        <time>2024-12-23T21:00:24.394Z</time>
      </trkpt>
      <trkpt lat="48.12443" lon="5.07828">
        <ele>281.18</ele>
        <time>2024-12-23T21:00:25.465Z</time>
      </trkpt>
      <trkpt lat="48.12419" lon="5.07822">
        <ele>281.29</ele>
        <time>2024-12-23T21:00:26.540Z</time>
      </trkpt>
      <trkpt lat="48.12403" lon="5.07813">
        <ele>281.43</ele>
        <time>2024-12-23T21:00:27.618Z</time>
      </trkpt>
      <trkpt lat="48.12387" lon="5.07804">
        <ele>281.62</ele>
        <time>2024-12-23T21:00:28.698Z</time>
      </trkpt>
      <trkpt lat="48.12362" lon="5.07786">
        <ele>281.86</ele>
        <time>2024-12-23T21:00:29.783Z</time>
      </trkpt>
      <trkpt lat="48.12337" lon="5.07767">
        <ele>282.07</ele>
        <time>2024-12-23T21:00:30.872Z</time>
      </trkpt>
      <trkpt lat="48.12312" lon="5.07749">
        <ele>282.27</ele>
        <time>2024-12-23T21:00:31.966Z</time>
      </trkpt>
      <trkpt lat="48.12287" lon="5.0773">
        <ele>282.47</ele>
        <time>2024-12-23T21:00:33.064Z</time>
      </trkpt>
      <trkpt lat="48.12262" lon="5.07711">
        <ele>282.67</ele>
        <time>2024-12-23T21:00:34.167Z</time>
      </trkpt>
      <trkpt lat="48.12237" lon="5.07693">
        <ele>282.91</ele>
        <time>2024-12-23T21:00:35.274Z</time>
      </trkpt>
      <trkpt lat="48.12215" lon="5.07673">
        <ele>283.13</ele>
        <time>2024-12-23T21:00:36.385Z</time>
      </trkpt>
      <trkpt lat="48.12193" lon="5.07654">
        <ele>283.43</ele>
        <time>2024-12-23T21:00:37.500Z</time>
      </trkpt>
      <trkpt lat="48.12171" lon="5.07635">
        <ele>283.8</ele>
        <time>2024-12-23T21:00:38.619Z</time>
      </trkpt>
      <trkpt lat="48.12146" lon="5.07616">
        <ele>284.15</ele>
        <time>2024-12-23T21:00:39.743Z</time>
      </trkpt>
      <trkpt lat="48.12122" lon="5.07596">
        <ele>284.47</ele>
        <time>2024-12-23T21:00:40.871Z</time>
      </trkpt>
      <trkpt lat="48.12097" lon="5.07577">
        <ele>284.74</ele>
        <time>2024-12-23T21:00:42.004Z</time>
      </trkpt>
      <trkpt lat="48.12073" lon="5.07558">
        <ele>285</ele>
        <time>2024-12-23T21:00:43.141Z</time>
      </trkpt>
      <trkpt lat="48.12048" lon="5.07538">
        <ele>285.21</ele>
        <time>2024-12-23T21:00:44.283Z</time>
      </trkpt>
      <trkpt lat="48.12024" lon="5.07519">
        <ele>285.53</ele>
        <time>2024-12-23T21:00:45.429Z</time>
      </trkpt>
      <trkpt lat="48.12" lon="5.075">
        <ele>285.84</ele>
        <time>2024-12-23T21:00:46.579Z</time>
      </trkpt>
      <trkpt lat="48.11975" lon="5.0748">
        <ele>286.08</ele>
        <time>2024-12-23T21:00:47.734Z</time>
      </trkpt>
      <trkpt lat="48.11949" lon="5.07466">
        <ele>286.23</ele>
        <time>2024-12-23T21:00:48.893Z</time>
      </trkpt>
      <trkpt lat="48.11924" lon="5.07452">
        <ele>286.34</ele>
        <time>2024-12-23T21:00:50.057Z</time>
      </trkpt>
      <trkpt lat="48.11898" lon="5.07438">
        <ele>286.44</ele>
        <time>2024-12-23T21:00:51.225Z</time>
      </trkpt>
      <trkpt lat="48.11872" lon="5.07424">
        <ele>286.5</ele>
        <time>2024-12-23T21:00:52.397Z</time>
      </trkpt>
      <trkpt lat="48.11847" lon="5.0741">
        <ele>286.57</ele>
        <time>2024-12-23T21:00:53.574Z</time>
      </trkpt>
      <trkpt lat="48.11819" lon="5.07389">
        <ele>286.65</ele>
        <time>2024-12-23T21:00:54.756Z</time>
      </trkpt>
      <trkpt lat="48.11791" lon="5.07369">
        <ele>286.73</ele>
        <time>2024-12-23T21:00:55.943Z</time>
      </trkpt>
      <trkpt lat="48.11764" lon="5.07349">
        <ele>286.7</ele>
        <time>2024-12-23T21:00:57.135Z</time>
      </trkpt>
      <trkpt lat="48.11736" lon="5.07329">
        <ele>286.7</ele>
        <time>2024-12-23T21:00:58.332Z</time>
      </trkpt>
      <trkpt lat="48.11708" lon="5.07309">
        <ele>286.7</ele>
        <time>2024-12-23T21:00:59.533Z</time>
      </trkpt>
      <trkpt lat="48.11681" lon="5.07289">
        <ele>286.63</ele>
        <time>2024-12-23T21:01:00.739Z</time>
      </trkpt>
      <trkpt lat="48.11653" lon="5.07269">
        <ele>286.52</ele>
        <time>2024-12-23T21:01:01.950Z</time>
      </trkpt>
      <trkpt lat="48.11625" lon="5.07249">
        <ele>286.44</ele>
        <time>2024-12-23T21:01:03.166Z</time>
      </trkpt>
      <trkpt lat="48.11601" lon="5.0723">
        <ele>286.29</ele>
        <time>2024-12-23T21:01:04.387Z</time>
      </trkpt>
      <trkpt lat="48.11576" lon="5.07212">
        <ele>286.17</ele>
        <time>2024-12-23T21:01:05.612Z</time>
      </trkpt>
      <trkpt lat="48.11553" lon="5.0719">
        <ele>286.1</ele>
        <time>2024-12-23T21:01:06.841Z</time>
      </trkpt>
      <trkpt lat="48.11531" lon="5.07167">
        <ele>286.03</ele>
        <time>2024-12-23T21:01:08.075Z</time>
      </trkpt>
      <trkpt lat="48.11508" lon="5.07145">
        <ele>286</ele>
        <time>2024-12-23T21:01:09.313Z</time>
      </trkpt>
      <trkpt lat="48.11485" lon="5.07123">
        <ele>286.01</ele>
        <time>2024-12-23T21:01:10.555Z</time>
      </trkpt>
      <trkpt lat="48.11463" lon="5.071">
        <ele>285.99</ele>
        <time>2024-12-23T21:01:11.802Z</time>
      </trkpt>
      <trkpt lat="48.1144" lon="5.07078">
        <ele>285.95</ele>
        <time>2024-12-23T21:01:13.053Z</time>
      </trkpt>
      <trkpt lat="48.11417" lon="5.07055">
        <ele>285.99</ele>
        <time>2024-12-23T21:01:14.309Z</time>
      </trkpt>
      <trkpt lat="48.11417" lon="5.07055">
        <ele>286.1</ele>
        <time>2024-12-23T21:01:15.565Z</time>
      </trkpt>
      <trkpt lat="48.11415" lon="5.07053">
        <ele>286.2</ele>
        <time>2024-12-23T21:01:16.821Z</time>
      </trkpt>
      <trkpt lat="48.11389" lon="5.0703">
        <ele>286.37</ele>
        <time>2024-12-23T21:01:18.082Z</time>
      </trkpt>
      <trkpt lat="48.11362" lon="5.07008">
        <ele>286.5</ele>
        <time>2024-12-23T21:01:19.348Z</time>
      </trkpt>
      <trkpt lat="48.11336" lon="5.06985">
        <ele>286.64</ele>
        <time>2024-12-23T21:01:20.619Z</time>
      </trkpt>
      <trkpt lat="48.11309" lon="5.06962">
        <ele>286.82</ele>
        <time>2024-12-23T21:01:21.894Z</time>
      </trkpt>
      <trkpt lat="48.11283" lon="5.06939">
        <ele>287.05</ele>
        <time>2024-12-23T21:01:23.174Z</time>
      </trkpt>
      <trkpt lat="48.11256" lon="5.06916">
        <ele>287.31</ele>
        <time>2024-12-23T21:01:24.459Z</time>
      </trkpt>
      <trkpt lat="48.11235" lon="5.06897">
        <ele>287.54</ele>
        <time>2024-12-23T21:01:25.748Z</time>
      </trkpt>
      <trkpt lat="48.11224" lon="5.06886">
        <ele>287.79</ele>
        <time>2024-12-23T21:01:27.039Z</time>
      </trkpt>
      <trkpt lat="48.11207" lon="5.06869">
        <ele>288.06</ele>
        <time>2024-12-23T21:01:28.334Z</time>
      </trkpt>
      <trkpt lat="48.11192" lon="5.06856">
        <ele>288.35</ele>
        <time>2024-12-23T21:01:29.631Z</time>
      </trkpt>
      <trkpt lat="48.11192" lon="5.06856">
        <ele>288.62</ele>
        <time>2024-12-23T21:01:30.928Z</time>
      </trkpt>
      <trkpt lat="48.11166" lon="5.06831">
        <ele>288.94</ele>
        <time>2024-12-23T21:01:32.230Z</time>
      </trkpt>
      <trkpt lat="48.11139" lon="5.06807">
        <ele>289.21</ele>
        <time>2024-12-23T21:01:33.537Z</time>
      </trkpt>
      <trkpt lat="48.11113" lon="5.06782">
        <ele>289.42</ele>
        <time>2024-12-23T21:01:34.849Z</time>
      </trkpt>
      <trkpt lat="48.11086" lon="5.06757">
        <ele>289.65</ele>
        <time>2024-12-23T21:01:36.166Z</time>
      </trkpt>
      <trkpt lat="48.1106" lon="5.06733">
        <ele>289.89</ele>
        <time>2024-12-23T21:01:37.488Z</time>
      </trkpt>
      <trkpt lat="48.11033" lon="5.06708">
        <ele>290.07</ele>
        <time>2024-12-23T21:01:38.815Z</time>
      </trkpt>
      <trkpt lat="48.11011" lon="5.06689">
        <ele>290.24</ele>
        <time>2024-12-23T21:01:40.147Z</time>
      </trkpt>
      <trkpt lat="48.10988" lon="5.06669">
        <ele>290.38</ele>
        <time>2024-12-23T21:01:41.483Z</time>
      </trkpt>
      <trkpt lat="48.10967" lon="5.06652">
        <ele>290.48</ele>
        <time>2024-12-23T21:01:42.823Z</time>
      </trkpt>
      <trkpt lat="48.10946" lon="5.06637">
        <ele>290.54</ele>
        <time>2024-12-23T21:01:44.166Z</time>
      </trkpt>
      <trkpt lat="48.10926" lon="5.06622">
        <ele>290.56</ele>
        <time>2024-12-23T21:01:45.513Z</time>
      </trkpt>
      <trkpt lat="48.10924" lon="5.0662">
        <ele>290.52</ele>
        <time>2024-12-23T21:01:46.860Z</time>
      </trkpt>
      <trkpt lat="48.10917" lon="5.06613">
        <ele>290.44</ele>
        <time>2024-12-23T21:01:48.209Z</time>
      </trkpt>
      <trkpt lat="48.10925" lon="5.0657">
        <ele>290.37</ele>
        <time>2024-12-23T21:01:49.562Z</time>
      </trkpt>
      <trkpt lat="48.10934" lon="5.06526">
        <ele>290.19</ele>
        <time>2024-12-23T21:01:50.920Z</time>
      </trkpt>
      <trkpt lat="48.10942" lon="5.06483">
        <ele>289.89</ele>
        <time>2024-12-23T21:01:52.283Z</time>
      </trkpt>
      <trkpt lat="48.1095" lon="5.0644">
        <ele>289.49</ele>
        <time>2024-12-23T21:01:53.651Z</time>
      </trkpt>
      <trkpt lat="48.1096" lon="5.06402">
        <ele>289.06</ele>
        <time>2024-12-23T21:01:55.023Z</time>
      </trkpt>
      <trkpt lat="48.10971" lon="5.06364">
        <ele>288.65</ele>
        <time>2024-12-23T21:01:56.400Z</time>
      </trkpt>
      <trkpt lat="48.10982" lon="5.06327">
        <ele>288.24</ele>
        <time>2024-12-23T21:01:57.781Z</time>
      </trkpt>
      <trkpt lat="48.10992" lon="5.06289">
        <ele>287.78</ele>
        <time>2024-12-23T21:01:59.166Z</time>
      </trkpt>
      <trkpt lat="48.11005" lon="5.06255">
        <ele>287.29</ele>
        <time>2024-12-23T21:02:00.556Z</time>
      </trkpt>
      <trkpt lat="48.11007" lon="5.06249">
        <ele>286.76</ele>
        <time>2024-12-23T21:02:01.946Z</time>
      </trkpt>
      <trkpt lat="48.11016" lon="5.06229">
        <ele>286.2</ele>
        <time>2024-12-23T21:02:03.339Z</time>
      </trkpt>
      <trkpt lat="48.11028" lon="5.06206">
        <ele>285.57</ele>
        <time>2024-12-23T21:02:04.735Z</time>
      </trkpt>
      <trkpt lat="48.1104" lon="5.06182">
        <ele>284.92</ele>
        <time>2024-12-23T21:02:06.134Z</time>
      </trkpt>
      <trkpt lat="48.11056" lon="5.06156">
        <ele>284.29</ele>
        <time>2024-12-23T21:02:07.537Z</time>
      </trkpt>
      <trkpt lat="48.11073" lon="5.06131">
        <ele>283.67</ele>
        <time>2024-12-23T21:02:08.944Z</time>
      </trkpt>
      <trkpt lat="48.1109" lon="5.06105">
        <ele>283.05</ele>
        <time>2024-12-23T21:02:10.355Z</time>
      </trkpt>
      <trkpt lat="48.11106" lon="5.06079">
        <ele>282.47</ele>
        <time>2024-12-23T21:02:11.770Z</time>
      </trkpt>
      <trkpt lat="48.11126" lon="5.06049">
        <ele>281.93</ele>
        <time>2024-12-23T21:02:13.189Z</time>
      </trkpt>
      <trkpt lat="48.11145" lon="5.06019">
        <ele>281.49</ele>
        <time>2024-12-23T21:02:14.612Z</time>
      </trkpt>
      <trkpt lat="48.11164" lon="5.05989">
        <ele>281.13</ele>
        <time>2024-12-23T21:02:16.040Z</time>
      </trkpt>
      <trkpt lat="48.11183" lon="5.05959">
        <ele>280.74</ele>
        <time>2024-12-23T21:02:17.472Z</time>
      </trkpt>
      <trkpt lat="48.11201" lon="5.0593">
        <ele>280.32</ele>
        <time>2024-12-23T21:02:18.909Z</time>
      </trkpt>
      <trkpt lat="48.11218" lon="5.059">
        <ele>279.96</ele>
        <time>2024-12-23T21:02:20.350Z</time>
      </trkpt>
      <trkpt lat="48.11235" lon="5.05871">
        <ele>279.66</ele>
        <time>2024-12-23T21:02:21.795Z</time>
      </trkpt>
      <trkpt lat="48.1125" lon="5.0584">
        <ele>279.45</ele>
        <time>2024-12-23T21:02:23.244Z</time>
      </trkpt>
      <trkpt lat="48.11264" lon="5.05809">
        <ele>279.3</ele>
        <time>2024-12-23T21:02:24.697Z</time>
      </trkpt>
      <trkpt lat="48.11279" lon="5.05778">
        <ele>279.12</ele>
        <time>2024-12-23T21:02:26.154Z</time>
      </trkpt>
      <trkpt lat="48.11293" lon="5.05747">
        <ele>279</ele>
        <time>2024-12-23T21:02:27.615Z</time>
      </trkpt>
      <trkpt lat="48.11308" lon="5.05717">
        <ele>278.99</ele>
        <time>2024-12-23T21:02:29.080Z</time>
      </trkpt>
      <trkpt lat="48.1131" lon="5.05714">
        <ele>279.04</ele>
        <time>2024-12-23T21:02:30.546Z</time>
      </trkpt>
      <trkpt lat="48.11325" lon="5.05682">
        <ele>279.14</ele>
        <time>2024-12-23T21:02:32.016Z</time>
      </trkpt>
      <trkpt lat="48.11339" lon="5.05649">
        <ele>279.42</ele>
        <time>2024-12-23T21:02:33.490Z</time>
      </trkpt>
      <trkpt lat="48.11354" lon="5.05616">
        <ele>279.72</ele>
        <time>2024-12-23T21:02:34.968Z</time>
      </trkpt>
      <trkpt lat="48.11368" lon="5.05584">
        <ele>279.98</ele>
        <time>2024-12-23T21:02:36.450Z</time>
      </trkpt>
      <trkpt lat="48.11383" lon="5.05562">
        <ele>280.22</ele>
        <time>2024-12-23T21:02:37.936Z</time>
      </trkpt>
      <trkpt lat="48.11398" lon="5.05553">
        <ele>280.46</ele>
        <time>2024-12-23T21:02:39.424Z</time>
      </trkpt>
      <trkpt lat="48.11424" lon="5.05555">
        <ele>280.7</ele>
        <time>2024-12-23T21:02:40.916Z</time>
      </trkpt>
      <trkpt lat="48.1145" lon="5.05556">
        <ele>280.79</ele>
        <time>2024-12-23T21:02:42.413Z</time>
      </trkpt>
      <trkpt lat="48.11475" lon="5.05558">
        <ele>280.89</ele>
        <time>2024-12-23T21:02:43.914Z</time>
      </trkpt>
      <trkpt lat="48.11492" lon="5.05553">
        <ele>281</ele>
        <time>2024-12-23T21:02:45.418Z</time>
      </trkpt>
      <trkpt lat="48.11505" lon="5.05547">
        <ele>281.15</ele>
        <time>2024-12-23T21:02:46.924Z</time>
      </trkpt>
      <trkpt lat="48.11525" lon="5.05526">
        <ele>281.31</ele>
        <time>2024-12-23T21:02:48.434Z</time>
      </trkpt>
      <trkpt lat="48.11535" lon="5.05498">
        <ele>281.36</ele>
        <time>2024-12-23T21:02:49.947Z</time>
      </trkpt>
      <trkpt lat="48.11544" lon="5.05468">
        <ele>281.31</ele>
        <time>2024-12-23T21:02:51.463Z</time>
      </trkpt>
      <trkpt lat="48.11551" lon="5.05423">
        <ele>281.21</ele>
        <time>2024-12-23T21:02:52.984Z</time>
      </trkpt>
      <trkpt lat="48.11559" lon="5.05379">
        <ele>281.15</ele>
        <time>2024-12-23T21:02:54.510Z</time>
      </trkpt>
      <trkpt lat="48.11566" lon="5.05335">
        <ele>281.15</ele>
        <time>2024-12-23T21:02:56.041Z</time>
      </trkpt>
      <trkpt lat="48.11573" lon="5.0529">
        <ele>281.13</ele>
        <time>2024-12-23T21:02:57.577Z</time>
      </trkpt>
      <trkpt lat="48.1158" lon="5.05247">
        <ele>281.1</ele>
        <time>2024-12-23T21:02:59.118Z</time>
      </trkpt>
      <trkpt lat="48.11589" lon="5.0521">
        <ele>281.04</ele>
        <time>2024-12-23T21:03:00.663Z</time>
      </trkpt>
      <trkpt lat="48.11589" lon="5.0521">
        <ele>281.03</ele>
        <time>2024-12-23T21:03:02.208Z</time>
      </trkpt>
      <trkpt lat="48.11589" lon="5.0521">
        <ele>281.05</ele>
        <time>2024-12-23T21:03:03.753Z</time>
      </trkpt>
      <trkpt lat="48.11604" lon="5.05182">
        <ele>281.04</ele>
        <time>2024-12-23T21:03:05.302Z</time>
      </trkpt>
      <trkpt lat="48.11625" lon="5.05148">
        <ele>281.1</ele>
        <time>2024-12-23T21:03:06.856Z</time>
      </trkpt>
      <trkpt lat="48.11645" lon="5.05114">
        <ele>281.21</ele>
        <time>2024-12-23T21:03:08.415Z</time>
      </trkpt>
      <trkpt lat="48.11666" lon="5.05079">
        <ele>281.47</ele>
        <time>2024-12-23T21:03:09.979Z</time>
      </trkpt>
      <trkpt lat="48.11687" lon="5.05045">
        <ele>281.84</ele>
        <time>2024-12-23T21:03:11.548Z</time>
      </trkpt>
      <trkpt lat="48.11707" lon="5.0501">
        <ele>282.26</ele>
        <time>2024-12-23T21:03:13.122Z</time>
      </trkpt>
      <trkpt lat="48.11728" lon="5.04976">
        <ele>282.77</ele>
        <time>2024-12-23T21:03:14.701Z</time>
      </trkpt>
      <trkpt lat="48.11749" lon="5.04942">
        <ele>283.3</ele>
        <time>2024-12-23T21:03:16.285Z</time>
      </trkpt>
      <trkpt lat="48.11769" lon="5.04908">
        <ele>283.96</ele>
        <time>2024-12-23T21:03:17.873Z</time>
      </trkpt>
      <trkpt lat="48.11788" lon="5.04873">
        <ele>284.72</ele>
        <time>2024-12-23T21:03:19.466Z</time>
      </trkpt>
      <trkpt lat="48.11807" lon="5.04838">
        <ele>285.58</ele>
        <time>2024-12-23T21:03:21.064Z</time>
      </trkpt>
      <trkpt lat="48.11825" lon="5.04803">
        <ele>286.59</ele>
        <time>2024-12-23T21:03:22.667Z</time>
      </trkpt>
      <trkpt lat="48.11844" lon="5.04767">
        <ele>287.74</ele>
        <time>2024-12-23T21:03:24.275Z</time>
      </trkpt>
      <trkpt lat="48.11863" lon="5.04732">
        <ele>288.97</ele>
        <time>2024-12-23T21:03:25.887Z</time>
      </trkpt>
      <trkpt lat="48.11881" lon="5.04697">
        <ele>290.24</ele>
        <time>2024-12-23T21:03:27.504Z</time>
      </trkpt>
      <trkpt lat="48.119" lon="5.04662">
        <ele>291.64</ele>
        <time>2024-12-23T21:03:29.126Z</time>
      </trkpt>
      <trkpt lat="48.11919" lon="5.04627">
        <ele>293.15</ele>
        <time>2024-12-23T21:03:30.753Z</time>
      </trkpt>
      <trkpt lat="48.11938" lon="5.04592">
        <ele>294.73</ele>
        <time>2024-12-23T21:03:32.385Z</time>
      </trkpt>
      <trkpt lat="48.11956" lon="5.04558">
        <ele>296.42</ele>
        <time>2024-12-23T21:03:34.021Z</time>
      </trkpt>
      <trkpt lat="48.11968" lon="5.04541">
        <ele>298.16</ele>
        <time>2024-12-23T21:03:35.660Z</time>
      </trkpt>
      <trkpt lat="48.1198" lon="5.04524">
        <ele>299.92</ele>
        <time>2024-12-23T21:03:37.302Z</time>
      </trkpt>
      <trkpt lat="48.1198" lon="5.04524">
        <ele>301.53</ele>
        <time>2024-12-23T21:03:38.944Z</time>
      </trkpt>
      <trkpt lat="48.12003" lon="5.04504">
        <ele>303.34</ele>
        <time>2024-12-23T21:03:40.590Z</time>
      </trkpt>
      <trkpt lat="48.12031" lon="5.04493">
        <ele>305.11</ele>
        <time>2024-12-23T21:03:42.241Z</time>
      </trkpt>
      <trkpt lat="48.12057" lon="5.04496">
        <ele>306.72</ele>
        <time>2024-12-23T21:03:43.896Z</time>
      </trkpt>
      <trkpt lat="48.12083" lon="5.04498">
        <ele>308.17</ele>
        <time>2024-12-23T21:03:45.555Z</time>
      </trkpt>
      <trkpt lat="48.12113" lon="5.04496">
        <ele>309.58</ele>
        <time>2024-12-23T21:03:47.219Z</time>
      </trkpt>
      <trkpt lat="48.1214" lon="5.04488">
        <ele>310.9</ele>
        <time>2024-12-23T21:03:48.887Z</time>
      </trkpt>
      <trkpt lat="48.12167" lon="5.0448">
        <ele>312.03</ele>
        <time>2024-12-23T21:03:50.560Z</time>
      </trkpt>
      <trkpt lat="48.12194" lon="5.04472">
        <ele>313</ele>
        <time>2024-12-23T21:03:52.237Z</time>
      </trkpt>
      <trkpt lat="48.1222" lon="5.04468">
        <ele>313.81</ele>
        <time>2024-12-23T21:03:53.918Z</time>
      </trkpt>
      <trkpt lat="48.12246" lon="5.04465">
        <ele>314.38</ele>
        <time>2024-12-23T21:03:55.603Z</time>
      </trkpt>
      <trkpt lat="48.12271" lon="5.04461">
        <ele>314.75</ele>
        <time>2024-12-23T21:03:57.292Z</time>
      </trkpt>
      <trkpt lat="48.12297" lon="5.04457">
        <ele>314.96</ele>
        <time>2024-12-23T21:03:58.986Z</time>
      </trkpt>
      <trkpt lat="48.12316" lon="5.04452">
        <ele>315.06</ele>
        <time>2024-12-23T21:04:00.683Z</time>
      </trkpt>
      <trkpt lat="48.12336" lon="5.04446">
        <ele>314.99</ele>
        <time>2024-12-23T21:04:02.383Z</time>
      </trkpt>
      <trkpt lat="48.12354" lon="5.04433">
        <ele>314.79</ele>
        <time>2024-12-23T21:04:04.086Z</time>
      </trkpt>
      <trkpt lat="48.12372" lon="5.04421">
        <ele>314.39</ele>
        <time>2024-12-23T21:04:05.792Z</time>
      </trkpt>
      <trkpt lat="48.12394" lon="5.04397">
        <ele>313.83</ele>
        <time>2024-12-23T21:04:07.503Z</time>
      </trkpt>
      <trkpt lat="48.12417" lon="5.04373">
        <ele>313.13</ele>
        <time>2024-12-23T21:04:09.218Z</time>
      </trkpt>
      <trkpt lat="48.12426" lon="5.04363">
        <ele>312.4</ele>
        <time>2024-12-23T21:04:10.935Z</time>
      </trkpt>
      <trkpt lat="48.12447" lon="5.04342">
        <ele>311.48</ele>
        <time>2024-12-23T21:04:12.656Z</time>
      </trkpt>
      <trkpt lat="48.12469" lon="5.04322">
        <ele>310.44</ele>
        <time>2024-12-23T21:04:14.381Z</time>
      </trkpt>
      <trkpt lat="48.12484" lon="5.04298">
        <ele>309.43</ele>
        <time>2024-12-23T21:04:16.110Z</time>
      </trkpt>
      <trkpt lat="48.12492" lon="5.04278">
        <ele>308.5</ele>
        <time>2024-12-23T21:04:17.841Z</time>
      </trkpt>
      <trkpt lat="48.12501" lon="5.04257">
        <ele>307.59</ele>
        <time>2024-12-23T21:04:19.575Z</time>
      </trkpt>
      <trkpt lat="48.1251" lon="5.04242">
        <ele>306.71</ele>
        <time>2024-12-23T21:04:21.311Z</time>
      </trkpt>
      <trkpt lat="48.1252" lon="5.04236">
        <ele>305.82</ele>
        <time>2024-12-23T21:04:23.049Z</time>
      </trkpt>
      <trkpt lat="48.12537" lon="5.04236">
        <ele>304.89</ele>
        <time>2024-12-23T21:04:24.789Z</time>
      </trkpt>
      <trkpt lat="48.12565" lon="5.0425">
        <ele>303.97</ele>
        <time>2024-12-23T21:04:26.534Z</time>
      </trkpt>
      <trkpt lat="48.12593" lon="5.04264">
        <ele>303.25</ele>
        <time>2024-12-23T21:04:28.284Z</time>
      </trkpt>
      <trkpt lat="48.12616" lon="5.04272">
        <ele>302.6</ele>
        <time>2024-12-23T21:04:30.038Z</time>
      </trkpt>
      <trkpt lat="48.12639" lon="5.04281">
        <ele>301.93</ele>
        <time>2024-12-23T21:04:31.795Z</time>
      </trkpt>
      <trkpt lat="48.12662" lon="5.0429">
        <ele>301.29</ele>
        <time>2024-12-23T21:04:33.556Z</time>
      </trkpt>
      <trkpt lat="48.1269" lon="5.04298">
        <ele>300.77</ele>
        <time>2024-12-23T21:04:35.322Z</time>
      </trkpt>
      <trkpt lat="48.12719" lon="5.04307">
        <ele>300.35</ele>
        <time>2024-12-23T21:04:37.093Z</time>
      </trkpt>
      <trkpt lat="48.12748" lon="5.04315">
        <ele>300.05</ele>
        <time>2024-12-23T21:04:38.868Z</time>
      </trkpt>
      <trkpt lat="48.12769" lon="5.04336">
        <ele>299.8</ele>
        <time>2024-12-23T21:04:40.647Z</time>
      </trkpt>
      <trkpt lat="48.12791" lon="5.04356">
        <ele>299.71</ele>
        <time>2024-12-23T21:04:42.430Z</time>
      </trkpt>
      <trkpt lat="48.12773" lon="5.0437">
        <ele>299.51</ele>
        <time>2024-12-23T21:04:44.216Z</time>
      </trkpt>
      <trkpt lat="48.12756" lon="5.04384">
        <ele>299.45</ele>
        <time>2024-12-23T21:04:46.006Z</time>
      </trkpt>
      <trkpt lat="48.12753" lon="5.04388">
        <ele>299.53</ele>
        <time>2024-12-23T21:04:47.796Z</time>
      </trkpt>
      <trkpt lat="48.12756" lon="5.04384">
        <ele>299.45</ele>
        <time>2024-12-23T21:04:49.587Z</time>
      </trkpt>
      <trkpt lat="48.12773" lon="5.0437">
        <ele>300.01</ele>
        <time>2024-12-23T21:04:51.381Z</time>
      </trkpt>
      <trkpt lat="48.12791" lon="5.04356">
        <ele>299.71</ele>
        <time>2024-12-23T21:04:53.178Z</time>
      </trkpt>
      <trkpt lat="48.12811" lon="5.04366">
        <ele>300.87</ele>
        <time>2024-12-23T21:04:54.979Z</time>
      </trkpt>
      <trkpt lat="48.12831" lon="5.04376">
        <ele>301.36</ele>
        <time>2024-12-23T21:04:56.783Z</time>
      </trkpt>
      <trkpt lat="48.12851" lon="5.04386">
        <ele>301.82</ele>
        <time>2024-12-23T21:04:58.590Z</time>
      </trkpt>
      <trkpt lat="48.12876" lon="5.04407">
        <ele>302.17</ele>
        <time>2024-12-23T21:05:00.402Z</time>
      </trkpt>
      <trkpt lat="48.12902" lon="5.04427">
        <ele>302.55</ele>
        <time>2024-12-23T21:05:02.219Z</time>
      </trkpt>
      <trkpt lat="48.12914" lon="5.0445">
        <ele>302.83</ele>
        <time>2024-12-23T21:05:04.039Z</time>
      </trkpt>
      <trkpt lat="48.12926" lon="5.04472">
        <ele>303.09</ele>
        <time>2024-12-23T21:05:05.862Z</time>
      </trkpt>
      <trkpt lat="48.12943" lon="5.04493">
        <ele>303.33</ele>
        <time>2024-12-23T21:05:07.688Z</time>
      </trkpt>
      <trkpt lat="48.1296" lon="5.04521">
        <ele>303.52</ele>
        <time>2024-12-23T21:05:09.518Z</time>
      </trkpt>
      <trkpt lat="48.12976" lon="5.04548">
        <ele>303.64</ele>
        <time>2024-12-23T21:05:11.352Z</time>
      </trkpt>
      <trkpt lat="48.12993" lon="5.04576">
        <ele>303.73</ele>
        <time>2024-12-23T21:05:13.190Z</time>
      </trkpt>
      <trkpt lat="48.1301" lon="5.04603">
        <ele>303.81</ele>
        <time>2024-12-23T21:05:15.032Z</time>
      </trkpt>
      <trkpt lat="48.13022" lon="5.04623">
        <ele>303.85</ele>
        <time>2024-12-23T21:05:16.877Z</time>
      </trkpt>
      <trkpt lat="48.13035" lon="5.04644">
        <ele>303.78</ele>
        <time>2024-12-23T21:05:18.725Z</time>
      </trkpt>
      <trkpt lat="48.1305" lon="5.04659">
        <ele>303.71</ele>
        <time>2024-12-23T21:05:20.576Z</time>
      </trkpt>
      <trkpt lat="48.13079" lon="5.04669">
        <ele>303.57</ele>
        <time>2024-12-23T21:05:22.432Z</time>
      </trkpt>
      <trkpt lat="48.13108" lon="5.0468">
        <ele>303.58</ele>
        <time>2024-12-23T21:05:24.293Z</time>
      </trkpt>
      <trkpt lat="48.13121" lon="5.04695">
        <ele>303.68</ele>
        <time>2024-12-23T21:05:26.156Z</time>
      </trkpt>
      <trkpt lat="48.1313" lon="5.04717">
        <ele>303.84</ele>
        <time>2024-12-23T21:05:28.022Z</time>
      </trkpt>
      <trkpt lat="48.1313" lon="5.04717">
        <ele>304.05</ele>
        <time>2024-12-23T21:05:29.888Z</time>
      </trkpt>
      <trkpt lat="48.1313" lon="5.04736">
        <ele>304.32</ele>
        <time>2024-12-23T21:05:31.756Z</time>
      </trkpt>
      <trkpt lat="48.13125" lon="5.04782">
        <ele>304.64</ele>
        <time>2024-12-23T21:05:33.629Z</time>
      </trkpt>
      <trkpt lat="48.13121" lon="5.04828">
        <ele>304.99</ele>
        <time>2024-12-23T21:05:35.507Z</time>
      </trkpt>
      <trkpt lat="48.13123" lon="5.04873">
        <ele>305.5</ele>
        <time>2024-12-23T21:05:37.390Z</time>
      </trkpt>
      <trkpt lat="48.13132" lon="5.04908">
        <ele>306.1</ele>
        <time>2024-12-23T21:05:39.277Z</time>
      </trkpt>
      <trkpt lat="48.13149" lon="5.04931">
        <ele>306.78</ele>
        <time>2024-12-23T21:05:41.168Z</time>
      </trkpt>
      <trkpt lat="48.13168" lon="5.04944">
        <ele>307.57</ele>
        <time>2024-12-23T21:05:43.062Z</time>
      </trkpt>
      <trkpt lat="48.13194" lon="5.0494">
        <ele>308.37</ele>
        <time>2024-12-23T21:05:44.960Z</time>
      </trkpt>
      <trkpt lat="48.1322" lon="5.04936">
        <ele>309.24</ele>
        <time>2024-12-23T21:05:46.862Z</time>
      </trkpt>
      <trkpt lat="48.13239" lon="5.04942">
        <ele>310.11</ele>
        <time>2024-12-23T21:05:48.767Z</time>
      </trkpt>
      <trkpt lat="48.1325" lon="5.04953">
        <ele>310.96</ele>
        <time>2024-12-23T21:05:50.675Z</time>
      </trkpt>
      <trkpt lat="48.13269" lon="5.04981">
        <ele>311.85</ele>
        <time>2024-12-23T21:05:52.587Z</time>
      </trkpt>
      <trkpt lat="48.13288" lon="5.05009">
        <ele>312.72</ele>
        <time>2024-12-23T21:05:54.503Z</time>
      </trkpt>
      <trkpt lat="48.13308" lon="5.05036">
        <ele>313.52</ele>
        <time>2024-12-23T21:05:56.423Z</time>
      </trkpt>
      <trkpt lat="48.13321" lon="5.05051">
        <ele>314.29</ele>
        <time>2024-12-23T21:05:58.346Z</time>
      </trkpt>
      <trkpt lat="48.13334" lon="5.05066">
        <ele>315.02</ele>
        <time>2024-12-23T21:06:00.272Z</time>
      </trkpt>
      <trkpt lat="48.13359" lon="5.05094">
        <ele>315.71</ele>
        <time>2024-12-23T21:06:02.203Z</time>
      </trkpt>
      <trkpt lat="48.13384" lon="5.05122">
        <ele>316.23</ele>
        <time>2024-12-23T21:06:04.139Z</time>
      </trkpt>
      <trkpt lat="48.1341" lon="5.0515">
        <ele>316.8</ele>
        <time>2024-12-23T21:06:06.080Z</time>
      </trkpt>
      <trkpt lat="48.13435" lon="5.05178">
        <ele>317.28</ele>
        <time>2024-12-23T21:06:08.026Z</time>
      </trkpt>
      <trkpt lat="48.1346" lon="5.05206">
        <ele>317.59</ele>
        <time>2024-12-23T21:06:09.977Z</time>
      </trkpt>
      <trkpt lat="48.13475" lon="5.05228">
        <ele>317.73</ele>
        <time>2024-12-23T21:06:11.931Z</time>
      </trkpt>
      <trkpt lat="48.1349" lon="5.0525">
        <ele>317.76</ele>
        <time>2024-12-23T21:06:13.889Z</time>
      </trkpt>
      <trkpt lat="48.13505" lon="5.05272">
        <ele>317.64</ele>
        <time>2024-12-23T21:06:15.850Z</time>
      </trkpt>
      <trkpt lat="48.13527" lon="5.0529">
        <ele>317.4</ele>
        <time>2024-12-23T21:06:17.815Z</time>
      </trkpt>
      <trkpt lat="48.13548" lon="5.05307">
        <ele>317.05</ele>
        <time>2024-12-23T21:06:19.784Z</time>
      </trkpt>
      <trkpt lat="48.1357" lon="5.05319">
        <ele>316.63</ele>
        <time>2024-12-23T21:06:21.757Z</time>
      </trkpt>
      <trkpt lat="48.13592" lon="5.05331">
        <ele>316.12</ele>
        <time>2024-12-23T21:06:23.733Z</time>
      </trkpt>
      <trkpt lat="48.13615" lon="5.05343">
        <ele>315.51</ele>
        <time>2024-12-23T21:06:25.713Z</time>
      </trkpt>
      <trkpt lat="48.13632" lon="5.0535">
        <ele>314.85</ele>
        <time>2024-12-23T21:06:27.696Z</time>
      </trkpt>
      <trkpt lat="48.13651" lon="5.0536">
        <ele>314.09</ele>
        <time>2024-12-23T21:06:29.682Z</time>
      </trkpt>
      <trkpt lat="48.1366" lon="5.05369">
        <ele>313.3</ele>
        <time>2024-12-23T21:06:31.670Z</time>
      </trkpt>
      <trkpt lat="48.13677" lon="5.05379">
        <ele>312.48</ele>
        <time>2024-12-23T21:06:33.661Z</time>
      </trkpt>
      <trkpt lat="48.13694" lon="5.05388">
        <ele>311.62</ele>
        <time>2024-12-23T21:06:35.655Z</time>
      </trkpt>
      <trkpt lat="48.13694" lon="5.05388">
        <ele>310.72</ele>
        <time>2024-12-23T21:06:37.649Z</time>
      </trkpt>
      <trkpt lat="48.13718" lon="5.05403">
        <ele>309.78</ele>
        <time>2024-12-23T21:06:39.647Z</time>
      </trkpt>
      <trkpt lat="48.13741" lon="5.05417">
        <ele>308.76</ele>
        <time>2024-12-23T21:06:41.649Z</time>
      </trkpt>
      <trkpt lat="48.13765" lon="5.05432">
        <ele>307.78</ele>
        <time>2024-12-23T21:06:43.655Z</time>
      </trkpt>
      <trkpt lat="48.13788" lon="5.05446">
        <ele>306.72</ele>
        <time>2024-12-23T21:06:45.665Z</time>
      </trkpt>
      <trkpt lat="48.13803" lon="5.05457">
        <ele>305.69</ele>
        <time>2024-12-23T21:06:47.678Z</time>
      </trkpt>
      <trkpt lat="48.13818" lon="5.05468">
        <ele>304.67</ele>
        <time>2024-12-23T21:06:49.694Z</time>
      </trkpt>
      <trkpt lat="48.1384" lon="5.05493">
        <ele>303.71</ele>
        <time>2024-12-23T21:06:51.714Z</time>
      </trkpt>
      <trkpt lat="48.13861" lon="5.05519">
        <ele>302.73</ele>
        <time>2024-12-23T21:06:53.738Z</time>
      </trkpt>
      <trkpt lat="48.13883" lon="5.05545">
        <ele>301.82</ele>
        <time>2024-12-23T21:06:55.767Z</time>
      </trkpt>
      <trkpt lat="48.13903" lon="5.05563">
        <ele>301.07</ele>
        <time>2024-12-23T21:06:57.800Z</time>
      </trkpt>
      <trkpt lat="48.13924" lon="5.05581">
        <ele>300.44</ele>
        <time>2024-12-23T21:06:59.836Z</time>
      </trkpt>
      <trkpt lat="48.13944" lon="5.056">
        <ele>299.92</ele>
        <time>2024-12-23T21:07:01.876Z</time>
      </trkpt>
      <trkpt lat="48.13964" lon="5.05618">
        <ele>299.52</ele>
        <time>2024-12-23T21:07:03.920Z</time>
      </trkpt>
      <trkpt lat="48.13988" lon="5.05646">
        <ele>299.2</ele>
        <time>2024-12-23T21:07:05.969Z</time>
      </trkpt>
      <trkpt lat="48.14005" lon="5.05651">
        <ele>298.91</ele>
        <time>2024-12-23T21:07:08.021Z</time>
      </trkpt>
      <trkpt lat="48.14022" lon="5.05656">
        <ele>298.67</ele>
        <time>2024-12-23T21:07:10.075Z</time>
      </trkpt>
      <trkpt lat="48.14049" lon="5.05659">
        <ele>298.49</ele>
        <time>2024-12-23T21:07:12.134Z</time>
      </trkpt>
      <trkpt lat="48.14075" lon="5.05662">
        <ele>298.32</ele>
        <time>2024-12-23T21:07:14.197Z</time>
      </trkpt>
      <trkpt lat="48.14102" lon="5.05665">
        <ele>298.25</ele>
        <time>2024-12-23T21:07:16.264Z</time>
      </trkpt>
      <trkpt lat="48.14124" lon="5.05671">
        <ele>298.16</ele>
        <time>2024-12-23T21:07:18.335Z</time>
      </trkpt>
      <trkpt lat="48.14147" lon="5.05678">
        <ele>298.08</ele>
        <time>2024-12-23T21:07:20.409Z</time>
      </trkpt>
      <trkpt lat="48.14153" lon="5.05681">
        <ele>298.13</ele>
        <time>2024-12-23T21:07:22.484Z</time>
      </trkpt>
      <trkpt lat="48.14153" lon="5.05681">
        <ele>298.28</ele>
        <time>2024-12-23T21:07:24.559Z</time>
      </trkpt>
      <trkpt lat="48.1418" lon="5.05695">
        <ele>298.35</ele>
        <time>2024-12-23T21:07:26.639Z</time>
      </trkpt>
      <trkpt lat="48.14207" lon="5.0571">
        <ele>298.63</ele>
        <time>2024-12-23T21:07:28.724Z</time>
      </trkpt>
      <trkpt lat="48.14234" lon="5.05724">
        <ele>299.01</ele>
        <time>2024-12-23T21:07:30.813Z</time>
      </trkpt>
      <trkpt lat="48.1426" lon="5.05738">
        <ele>299.38</ele>
        <time>2024-12-23T21:07:32.907Z</time>
      </trkpt>
      <trkpt lat="48.14284" lon="5.05754">
        <ele>299.79</ele>
        <time>2024-12-23T21:07:35.005Z</time>
      </trkpt>
      <trkpt lat="48.14308" lon="5.05769">
        <ele>300.27</ele>
        <time>2024-12-23T21:07:37.107Z</time>
      </trkpt>
      <trkpt lat="48.14331" lon="5.05785">
        <ele>300.88</ele>
        <time>2024-12-23T21:07:39.213Z</time>
      </trkpt>
      <trkpt lat="48.14353" lon="5.05803">
        <ele>301.61</ele>
        <time>2024-12-23T21:07:41.323Z</time>
      </trkpt>
      <trkpt lat="48.14374" lon="5.05822">
        <ele>302.46</ele>
        <time>2024-12-23T21:07:43.437Z</time>
      </trkpt>
      <trkpt lat="48.14399" lon="5.05832">
        <ele>303.43</ele>
        <time>2024-12-23T21:07:45.555Z</time>
      </trkpt>
      <trkpt lat="48.14424" lon="5.05843">
        <ele>304.35</ele>
        <time>2024-12-23T21:07:47.677Z</time>
      </trkpt>
      <trkpt lat="48.14448" lon="5.05854">
        <ele>305.26</ele>
        <time>2024-12-23T21:07:49.803Z</time>
      </trkpt>
      <trkpt lat="48.14473" lon="5.05865">
        <ele>306.14</ele>
        <time>2024-12-23T21:07:51.934Z</time>
      </trkpt>
      <trkpt lat="48.14492" lon="5.05877">
        <ele>306.96</ele>
        <time>2024-12-23T21:07:54.068Z</time>
      </trkpt>
      <trkpt lat="48.14512" lon="5.0589">
        <ele>307.71</ele>
        <time>2024-12-23T21:07:56.205Z</time>
      </trkpt>
      <trkpt lat="48.14537" lon="5.0591">
        <ele>308.44</ele>
        <time>2024-12-23T21:07:58.347Z</time>
      </trkpt>
      <trkpt lat="48.14562" lon="5.05929">
        <ele>309.14</ele>
        <time>2024-12-23T21:08:00.493Z</time>
      </trkpt>
      <trkpt lat="48.14587" lon="5.05948">
        <ele>309.8</ele>
        <time>2024-12-23T21:08:02.644Z</time>
      </trkpt>
      <trkpt lat="48.14605" lon="5.0597">
        <ele>310.31</ele>
        <time>2024-12-23T21:08:04.799Z</time>
      </trkpt>
      <trkpt lat="48.14624" lon="5.05991">
        <ele>310.68</ele>
        <time>2024-12-23T21:08:06.957Z</time>
      </trkpt>
      <trkpt lat="48.14643" lon="5.06013">
        <ele>310.89</ele>
        <time>2024-12-23T21:08:09.119Z</time>
      </trkpt>
      <trkpt lat="48.14662" lon="5.06034">
        <ele>310.97</ele>
        <time>2024-12-23T21:08:11.285Z</time>
      </trkpt>
      <trkpt lat="48.14686" lon="5.06057">
        <ele>310.93</ele>
        <time>2024-12-23T21:08:13.456Z</time>
      </trkpt>
      <trkpt lat="48.1471" lon="5.0608">
        <ele>310.71</ele>
        <time>2024-12-23T21:08:15.631Z</time>
      </trkpt>
      <trkpt lat="48.14735" lon="5.06103">
        <ele>310.26</ele>
        <time>2024-12-23T21:08:17.811Z</time>
      </trkpt>
      <trkpt lat="48.1475" lon="5.06112">
        <ele>309.67</ele>
        <time>2024-12-23T21:08:19.993Z</time>
      </trkpt>
      <trkpt lat="48.14765" lon="5.06122">
        <ele>308.95</ele>
        <time>2024-12-23T21:08:22.178Z</time>
      </trkpt>
      <trkpt lat="48.14788" lon="5.06126">
        <ele>308.17</ele>
        <time>2024-12-23T21:08:24.367Z</time>
      </trkpt>
      <trkpt lat="48.14817" lon="5.06126">
        <ele>307.33</ele>
        <time>2024-12-23T21:08:26.560Z</time>
      </trkpt>
      <trkpt lat="48.14846" lon="5.06125">
        <ele>306.37</ele>
        <time>2024-12-23T21:08:28.758Z</time>
      </trkpt>
      <trkpt lat="48.14874" lon="5.06124">
        <ele>305.29</ele>
        <time>2024-12-23T21:08:30.961Z</time>
      </trkpt>
      <trkpt lat="48.14895" lon="5.06126">
        <ele>304.26</ele>
        <time>2024-12-23T21:08:33.167Z</time>
      </trkpt>
      <trkpt lat="48.14915" lon="5.06129">
        <ele>303.23</ele>
        <time>2024-12-23T21:08:35.376Z</time>
      </trkpt>
      <trkpt lat="48.14936" lon="5.06133">
        <ele>302.24</ele>
        <time>2024-12-23T21:08:37.589Z</time>
      </trkpt>
      <trkpt lat="48.14958" lon="5.06137">
        <ele>301.27</ele>
        <time>2024-12-23T21:08:39.805Z</time>
      </trkpt>
      <trkpt lat="48.14979" lon="5.06141">
        <ele>300.26</ele>
        <time>2024-12-23T21:08:42.025Z</time>
      </trkpt>
      <trkpt lat="48.15009" lon="5.06149">
        <ele>299.28</ele>
        <time>2024-12-23T21:08:44.249Z</time>
      </trkpt>
      <trkpt lat="48.15039" lon="5.06157">
        <ele>298.49</ele>
        <time>2024-12-23T21:08:46.478Z</time>
      </trkpt>
      <trkpt lat="48.15069" lon="5.06165">
        <ele>297.79</ele>
        <time>2024-12-23T21:08:48.712Z</time>
      </trkpt>
      <trkpt lat="48.15097" lon="5.06178">
        <ele>297.15</ele>
        <time>2024-12-23T21:08:50.951Z</time>
      </trkpt>
      <trkpt lat="48.15113" lon="5.06192">
        <ele>296.59</ele>
        <time>2024-12-23T21:08:53.193Z</time>
      </trkpt>
      <trkpt lat="48.1513" lon="5.06206">
        <ele>296.12</ele>
        <time>2024-12-23T21:08:55.438Z</time>
      </trkpt>
      <trkpt lat="48.1515" lon="5.06235">
        <ele>295.7</ele>
        <time>2024-12-23T21:08:57.687Z</time>
      </trkpt>
      <trkpt lat="48.15171" lon="5.06265">
        <ele>295.47</ele>
        <time>2024-12-23T21:08:59.941Z</time>
      </trkpt>
      <trkpt lat="48.15192" lon="5.06294">
        <ele>295.36</ele>
        <time>2024-12-23T21:09:02.200Z</time>
      </trkpt>
      <trkpt lat="48.15218" lon="5.06305">
        <ele>295.4</ele>
        <time>2024-12-23T21:09:04.463Z</time>
      </trkpt>
      <trkpt lat="48.15246" lon="5.06305">
        <ele>295.47</ele>
        <time>2024-12-23T21:09:06.730Z</time>
      </trkpt>
      <trkpt lat="48.15275" lon="5.06305">
        <ele>295.57</ele>
        <time>2024-12-23T21:09:09.002Z</time>
      </trkpt>
      <trkpt lat="48.15303" lon="5.06296">
        <ele>295.68</ele>
        <time>2024-12-23T21:09:11.279Z</time>
      </trkpt>
      <trkpt lat="48.15331" lon="5.06287">
        <ele>295.82</ele>
        <time>2024-12-23T21:09:13.560Z</time>
      </trkpt>
      <trkpt lat="48.15357" lon="5.06283">
        <ele>296.08</ele>
        <time>2024-12-23T21:09:15.845Z</time>
      </trkpt>
      <trkpt lat="48.15383" lon="5.06279">
        <ele>296.42</ele>
        <time>2024-12-23T21:09:18.135Z</time>
      </trkpt>
      <trkpt lat="48.15404" lon="5.06281">
        <ele>296.78</ele>
        <time>2024-12-23T21:09:20.428Z</time>
      </trkpt>
      <trkpt lat="48.15423" lon="5.06288">
        <ele>297.16</ele>
        <time>2024-12-23T21:09:22.724Z</time>
      </trkpt>
      <trkpt lat="48.15443" lon="5.06296">
        <ele>297.53</ele>
        <time>2024-12-23T21:09:25.023Z</time>
      </trkpt>
      <trkpt lat="48.15464" lon="5.06298">
        <ele>297.93</ele>
        <time>2024-12-23T21:09:27.326Z</time>
      </trkpt>
      <trkpt lat="48.15486" lon="5.063">
        <ele>298.28</ele>
        <time>2024-12-23T21:09:29.632Z</time>
      </trkpt>
      <trkpt lat="48.15516" lon="5.06297">
        <ele>298.53</ele>
        <time>2024-12-23T21:09:31.943Z</time>
      </trkpt>
      <trkpt lat="48.15546" lon="5.06294">
        <ele>298.61</ele>
        <time>2024-12-23T21:09:34.259Z</time>
      </trkpt>
      <trkpt lat="48.15557" lon="5.06292">
        <ele>298.59</ele>
        <time>2024-12-23T21:09:36.577Z</time>
      </trkpt>
      <trkpt lat="48.15559" lon="5.063">
        <ele>298.46</ele>
        <time>2024-12-23T21:09:38.896Z</time>
      </trkpt>
      <trkpt lat="48.15581" lon="5.0631">
        <ele>298.19</ele>
        <time>2024-12-23T21:09:41.218Z</time>
      </trkpt>
      <trkpt lat="48.15603" lon="5.0632">
        <ele>297.78</ele>
        <time>2024-12-23T21:09:43.544Z</time>
      </trkpt>
      <trkpt lat="48.15625" lon="5.0633">
        <ele>297.31</ele>
        <time>2024-12-23T21:09:45.874Z</time>
      </trkpt>
      <trkpt lat="48.15625" lon="5.0633">
        <ele>296.84</ele>
        <time>2024-12-23T21:09:48.204Z</time>
      </trkpt>
      <trkpt lat="48.15651" lon="5.06328">
        <ele>296.28</ele>
        <time>2024-12-23T21:09:50.538Z</time>
      </trkpt>
      <trkpt lat="48.15677" lon="5.06325">
        <ele>295.62</ele>
        <time>2024-12-23T21:09:52.876Z</time>
      </trkpt>
      <trkpt lat="48.15702" lon="5.06322">
        <ele>294.88</ele>
        <time>2024-12-23T21:09:55.218Z</time>
      </trkpt>
      <trkpt lat="48.15728" lon="5.0632">
        <ele>294.1</ele>
        <time>2024-12-23T21:09:57.564Z</time>
      </trkpt>
      <trkpt lat="48.15748" lon="5.06322">
        <ele>293.31</ele>
        <time>2024-12-23T21:09:59.913Z</time>
      </trkpt>
      <trkpt lat="48.15748" lon="5.06322">
        <ele>292.48</ele>
        <time>2024-12-23T21:10:02.263Z</time>
      </trkpt>
      <trkpt lat="48.15777" lon="5.06326">
        <ele>291.6</ele>
        <time>2024-12-23T21:10:04.617Z</time>
      </trkpt>
      <trkpt lat="48.15806" lon="5.06329">
        <ele>290.6</ele>
        <time>2024-12-23T21:10:06.976Z</time>
      </trkpt>
      <trkpt lat="48.15835" lon="5.06333">
        <ele>289.62</ele>
        <time>2024-12-23T21:10:09.339Z</time>
      </trkpt>
      <trkpt lat="48.15863" lon="5.06337">
        <ele>288.62</ele>
        <time>2024-12-23T21:10:11.707Z</time>
      </trkpt>
      <trkpt lat="48.15885" lon="5.06326">
        <ele>287.71</ele>
        <time>2024-12-23T21:10:14.079Z</time>
      </trkpt>
      <trkpt lat="48.15906" lon="5.06315">
        <ele>286.81</ele>
        <time>2024-12-23T21:10:16.454Z</time>
      </trkpt>
      <trkpt lat="48.15904" lon="5.06302">
        <ele>286.2</ele>
        <time>2024-12-23T21:10:18.831Z</time>
      </trkpt>
      <trkpt lat="48.15904" lon="5.06287">
        <ele>285.67</ele>
        <time>2024-12-23T21:10:21.209Z</time>
      </trkpt>
      <trkpt lat="48.15912" lon="5.06264">
        <ele>285.28</ele>
        <time>2024-12-23T21:10:23.590Z</time>
      </trkpt>
      <trkpt lat="48.15919" lon="5.0624">
        <ele>284.98</ele>
        <time>2024-12-23T21:10:25.974Z</time>
      </trkpt>
      <trkpt lat="48.15929" lon="5.06218">
        <ele>284.77</ele>
        <time>2024-12-23T21:10:28.361Z</time>
      </trkpt>
      <trkpt lat="48.15938" lon="5.06195">
        <ele>284.64</ele>
        <time>2024-12-23T21:10:30.751Z</time>
      </trkpt>
      <trkpt lat="48.15956" lon="5.06178">
        <ele>284.54</ele>
        <time>2024-12-23T21:10:33.144Z</time>
      </trkpt>
      <trkpt lat="48.15971" lon="5.06167">
        <ele>284.61</ele>
        <time>2024-12-23T21:10:35.540Z</time>
      </trkpt>
      <trkpt lat="48.15986" lon="5.06156">
        <ele>284.78</ele>
        <time>2024-12-23T21:10:37.938Z</time>
      </trkpt>
      <trkpt lat="48.16014" lon="5.06146">
        <ele>285.12</ele>
        <time>2024-12-23T21:10:40.341Z</time>
      </trkpt>
      <trkpt lat="48.16041" lon="5.06135">
        <ele>285.66</ele>
        <time>2024-12-23T21:10:42.748Z</time>
      </trkpt>
      <trkpt lat="48.16072" lon="5.06139">
        <ele>286.54</ele>
        <time>2024-12-23T21:10:45.160Z</time>
      </trkpt>
      <trkpt lat="48.16091" lon="5.06147">
        <ele>287.53</ele>
        <time>2024-12-23T21:10:47.575Z</time>
      </trkpt>
      <trkpt lat="48.1611" lon="5.06154">
        <ele>288.61</ele>
        <time>2024-12-23T21:10:49.994Z</time>
      </trkpt>
      <trkpt lat="48.16116" lon="5.06194">
        <ele>289.68</ele>
        <time>2024-12-23T21:10:52.417Z</time>
      </trkpt>
      <trkpt lat="48.16122" lon="5.06235">
        <ele>290.82</ele>
        <time>2024-12-23T21:10:54.844Z</time>
      </trkpt>
      <trkpt lat="48.16127" lon="5.06274">
        <ele>292.02</ele>
        <time>2024-12-23T21:10:57.276Z</time>
      </trkpt>
      <trkpt lat="48.16139" lon="5.06313">
        <ele>293.44</ele>
        <time>2024-12-23T21:10:59.712Z</time>
      </trkpt>
      <trkpt lat="48.16151" lon="5.06352">
        <ele>294.88</ele>
        <time>2024-12-23T21:11:02.153Z</time>
      </trkpt>
      <trkpt lat="48.16164" lon="5.06384">
        <ele>296.42</ele>
        <time>2024-12-23T21:11:04.598Z</time>
      </trkpt>
      <trkpt lat="48.16175" lon="5.06414">
        <ele>298.05</ele>
        <time>2024-12-23T21:11:07.047Z</time>
      </trkpt>
      <trkpt lat="48.16185" lon="5.06444">
        <ele>299.74</ele>
        <time>2024-12-23T21:11:09.499Z</time>
      </trkpt>
      <trkpt lat="48.16193" lon="5.06481">
        <ele>301.49</ele>
        <time>2024-12-23T21:11:11.955Z</time>
      </trkpt>
      <trkpt lat="48.16201" lon="5.06517">
        <ele>303.32</ele>
        <time>2024-12-23T21:11:14.415Z</time>
      </trkpt>
      <trkpt lat="48.16209" lon="5.06553">
        <ele>305.07</ele>
        <time>2024-12-23T21:11:16.880Z</time>
      </trkpt>
      <trkpt lat="48.16213" lon="5.06562">
        <ele>306.92</ele>
        <time>2024-12-23T21:11:19.346Z</time>
      </trkpt>
      <trkpt lat="48.16222" lon="5.06568">
        <ele>308.88</ele>
        <time>2024-12-23T21:11:21.813Z</time>
      </trkpt>
      <trkpt lat="48.1623" lon="5.06566">
        <ele>310.96</ele>
        <time>2024-12-23T21:11:24.282Z</time>
      </trkpt>
      <trkpt lat="48.16239" lon="5.06558">
        <ele>313.11</ele>
        <time>2024-12-23T21:11:26.752Z</time>
      </trkpt>
      <trkpt lat="48.16241" lon="5.06547">
        <ele>315.22</ele>
        <time>2024-12-23T21:11:29.223Z</time>
      </trkpt>
      <trkpt lat="48.16238" lon="5.06511">
        <ele>317.41</ele>
        <time>2024-12-23T21:11:31.698Z</time>
      </trkpt>
      <trkpt lat="48.16235" lon="5.06476">
        <ele>319.47</ele>
        <time>2024-12-23T21:11:34.177Z</time>
      </trkpt>
      <trkpt lat="48.16235" lon="5.0645">
        <ele>321.52</ele>
        <time>2024-12-23T21:11:36.659Z</time>
      </trkpt>
      <trkpt lat="48.16239" lon="5.0641">
        <ele>323.73</ele>
        <time>2024-12-23T21:11:39.145Z</time>
      </trkpt>
      <trkpt lat="48.16247" lon="5.06365">
        <ele>326.16</ele>
        <time>2024-12-23T21:11:41.636Z</time>
      </trkpt>
      <trkpt lat="48.16256" lon="5.0632">
        <ele>328.55</ele>
        <time>2024-12-23T21:11:44.132Z</time>
      </trkpt>
      <trkpt lat="48.16264" lon="5.06275">
        <ele>330.81</ele>
        <time>2024-12-23T21:11:46.633Z</time>
      </trkpt>
      <trkpt lat="48.16272" lon="5.0623">
        <ele>333.03</ele>
        <time>2024-12-23T21:11:49.139Z</time>
      </trkpt>
      <trkpt lat="48.16281" lon="5.06185">
        <ele>335.34</ele>
        <time>2024-12-23T21:11:51.650Z</time>
      </trkpt>
      <trkpt lat="48.16289" lon="5.0614">
        <ele>337.54</ele>
        <time>2024-12-23T21:11:54.166Z</time>
      </trkpt>
      <trkpt lat="48.16297" lon="5.06095">
        <ele>339.75</ele>
        <time>2024-12-23T21:11:56.687Z</time>
      </trkpt>
      <trkpt lat="48.16305" lon="5.06051">
        <ele>341.88</ele>
        <time>2024-12-23T21:11:59.213Z</time>
      </trkpt>
      <trkpt lat="48.1631" lon="5.0602">
        <ele>343.92</ele>
        <time>2024-12-23T21:12:01.743Z</time>
      </trkpt>
      <trkpt lat="48.16314" lon="5.05989">
        <ele>346</ele>
        <time>2024-12-23T21:12:04.276Z</time>
      </trkpt>
      <trkpt lat="48.16316" lon="5.05962">
        <ele>348.03</ele>
        <time>2024-12-23T21:12:06.812Z</time>
      </trkpt>
      <trkpt lat="48.16318" lon="5.05935">
        <ele>349.89</ele>
        <time>2024-12-23T21:12:09.351Z</time>
      </trkpt>
      <trkpt lat="48.16318" lon="5.05907">
        <ele>351.58</ele>
        <time>2024-12-23T21:12:11.893Z</time>
      </trkpt>
      <trkpt lat="48.16318" lon="5.0588">
        <ele>353.17</ele>
        <time>2024-12-23T21:12:14.438Z</time>
      </trkpt>
      <trkpt lat="48.16315" lon="5.05845">
        <ele>354.65</ele>
        <time>2024-12-23T21:12:16.986Z</time>
      </trkpt>
      <trkpt lat="48.16312" lon="5.05811">
        <ele>356.11</ele>
        <time>2024-12-23T21:12:19.538Z</time>
      </trkpt>
      <trkpt lat="48.16311" lon="5.05767">
        <ele>357.59</ele>
        <time>2024-12-23T21:12:22.095Z</time>
      </trkpt>
      <trkpt lat="48.1631" lon="5.05722">
        <ele>358.94</ele>
        <time>2024-12-23T21:12:24.657Z</time>
      </trkpt>
      <trkpt lat="48.1631" lon="5.05678">
        <ele>360.14</ele>
        <time>2024-12-23T21:12:27.223Z</time>
      </trkpt>
      <trkpt lat="48.1631" lon="5.05672">
        <ele>361.23</ele>
        <time>2024-12-23T21:12:29.790Z</time>
      </trkpt>
      <trkpt lat="48.16314" lon="5.05631">
        <ele>362.3</ele>
        <time>2024-12-23T21:12:32.362Z</time>
      </trkpt>
      <trkpt lat="48.16323" lon="5.05608">
        <ele>363.29</ele>
        <time>2024-12-23T21:12:34.936Z</time>
      </trkpt>
      <trkpt lat="48.16331" lon="5.05586">
        <ele>364.21</ele>
        <time>2024-12-23T21:12:37.513Z</time>
      </trkpt>
      <trkpt lat="48.16353" lon="5.05556">
        <ele>365.14</ele>
        <time>2024-12-23T21:12:40.095Z</time>
      </trkpt>
      <trkpt lat="48.16376" lon="5.05536">
        <ele>365.96</ele>
        <time>2024-12-23T21:12:42.681Z</time>
      </trkpt>
      <trkpt lat="48.164" lon="5.05517">
        <ele>366.66</ele>
        <time>2024-12-23T21:12:45.271Z</time>
      </trkpt>
      <trkpt lat="48.16423" lon="5.05498">
        <ele>367.21</ele>
        <time>2024-12-23T21:12:47.866Z</time>
      </trkpt>
      <trkpt lat="48.16435" lon="5.05477">
        <ele>367.53</ele>
        <time>2024-12-23T21:12:50.464Z</time>
      </trkpt>
      <trkpt lat="48.16447" lon="5.05457">
        <ele>367.76</ele>
        <time>2024-12-23T21:12:53.064Z</time>
      </trkpt>
      <trkpt lat="48.16463" lon="5.05419">
        <ele>367.85</ele>
        <time>2024-12-23T21:12:55.669Z</time>
      </trkpt>
      <trkpt lat="48.16479" lon="5.05381">
        <ele>367.91</ele>
        <time>2024-12-23T21:12:58.279Z</time>
      </trkpt>
      <trkpt lat="48.16494" lon="5.05342">
        <ele>367.83</ele>
        <time>2024-12-23T21:13:00.894Z</time>
      </trkpt>
      <trkpt lat="48.1651" lon="5.05304">
        <ele>367.59</ele>
        <time>2024-12-23T21:13:03.514Z</time>
      </trkpt>
      <trkpt lat="48.16526" lon="5.05266">
        <ele>367.24</ele>
        <time>2024-12-23T21:13:06.139Z</time>
      </trkpt>
      <trkpt lat="48.16542" lon="5.05228">
        <ele>366.75</ele>
        <time>2024-12-23T21:13:08.768Z</time>
      </trkpt>
      <trkpt lat="48.16557" lon="5.0519">
        <ele>366.11</ele>
        <time>2024-12-23T21:13:11.402Z</time>
      </trkpt>
      <trkpt lat="48.16573" lon="5.05152">
        <ele>365.49</ele>
        <time>2024-12-23T21:13:14.041Z</time>
      </trkpt>
      <trkpt lat="48.16589" lon="5.05114">
        <ele>364.84</ele>
        <time>2024-12-23T21:13:16.685Z</time>
      </trkpt>
      <trkpt lat="48.16605" lon="5.05075">
        <ele>364.25</ele>
        <time>2024-12-23T21:13:19.334Z</time>
      </trkpt>
      <trkpt lat="48.1662" lon="5.05037">
        <ele>363.64</ele>
        <time>2024-12-23T21:13:21.987Z</time>
      </trkpt>
      <trkpt lat="48.16636" lon="5.05">
        <ele>362.88</ele>
        <time>2024-12-23T21:13:24.645Z</time>
      </trkpt>
      <trkpt lat="48.16645" lon="5.04969">
        <ele>362.04</ele>
        <time>2024-12-23T21:13:27.307Z</time>
      </trkpt>
      <trkpt lat="48.16654" lon="5.04938">
        <ele>361.14</ele>
        <time>2024-12-23T21:13:29.972Z</time>
      </trkpt>
      <trkpt lat="48.16664" lon="5.04908">
        <ele>360.22</ele>
        <time>2024-12-23T21:13:32.641Z</time>
      </trkpt>
      <trkpt lat="48.16668" lon="5.0488">
        <ele>359.33</ele>
        <time>2024-12-23T21:13:35.313Z</time>
      </trkpt>
      <trkpt lat="48.16677" lon="5.04845">
        <ele>358.51</ele>
        <time>2024-12-23T21:13:37.989Z</time>
      </trkpt>
      <trkpt lat="48.16691" lon="5.04819">
        <ele>357.74</ele>
        <time>2024-12-23T21:13:40.669Z</time>
      </trkpt>
      <trkpt lat="48.16705" lon="5.04792">
        <ele>357.03</ele>
        <time>2024-12-23T21:13:43.352Z</time>
      </trkpt>
      <trkpt lat="48.16721" lon="5.04777">
        <ele>356.38</ele>
        <time>2024-12-23T21:13:46.038Z</time>
      </trkpt>
      <trkpt lat="48.16737" lon="5.04762">
        <ele>355.74</ele>
        <time>2024-12-23T21:13:48.727Z</time>
      </trkpt>
      <trkpt lat="48.16761" lon="5.0475">
        <ele>355.17</ele>
        <time>2024-12-23T21:13:51.420Z</time>
      </trkpt>
      <trkpt lat="48.16785" lon="5.04737">
        <ele>354.6</ele>
        <time>2024-12-23T21:13:54.117Z</time>
      </trkpt>
      <trkpt lat="48.1681" lon="5.04725">
        <ele>354.12</ele>
        <time>2024-12-23T21:13:56.819Z</time>
      </trkpt>
      <trkpt lat="48.1681" lon="5.04725">
        <ele>353.71</ele>
        <time>2024-12-23T21:13:59.521Z</time>
      </trkpt>
      <trkpt lat="48.16838" lon="5.04712">
        <ele>353.42</ele>
        <time>2024-12-23T21:14:02.227Z</time>
      </trkpt>
      <trkpt lat="48.16865" lon="5.04698">
        <ele>353.09</ele>
        <time>2024-12-23T21:14:04.938Z</time>
      </trkpt>
      <trkpt lat="48.16893" lon="5.04684">
        <ele>352.88</ele>
        <time>2024-12-23T21:14:07.654Z</time>
      </trkpt>
      <trkpt lat="48.16916" lon="5.04672">
        <ele>352.69</ele>
        <time>2024-12-23T21:14:10.374Z</time>
      </trkpt>
      <trkpt lat="48.16938" lon="5.04659">
        <ele>352.57</ele>
        <time>2024-12-23T21:14:13.097Z</time>
      </trkpt>
      <trkpt lat="48.16961" lon="5.04642">
        <ele>352.43</ele>
        <time>2024-12-23T21:14:15.824Z</time>
      </trkpt>
      <trkpt lat="48.16983" lon="5.04624">
        <ele>352.41</ele>
        <time>2024-12-23T21:14:18.555Z</time>
      </trkpt>
      <trkpt lat="48.17006" lon="5.04607">
        <ele>352.46</ele>
        <time>2024-12-23T21:14:21.291Z</time>
      </trkpt>
      <trkpt lat="48.17029" lon="5.0459">
        <ele>352.48</ele>
        <time>2024-12-23T21:14:24.031Z</time>
      </trkpt>
      <trkpt lat="48.17051" lon="5.04566">
        <ele>352.5</ele>
        <time>2024-12-23T21:14:26.775Z</time>
      </trkpt>
      <trkpt lat="48.17073" lon="5.04542">
        <ele>352.54</ele>
        <time>2024-12-23T21:14:29.523Z</time>
      </trkpt>
      <trkpt lat="48.17095" lon="5.04518">
        <ele>352.7</ele>
        <time>2024-12-23T21:14:32.276Z</time>
      </trkpt>
      <trkpt lat="48.17116" lon="5.04493">
        <ele>352.91</ele>
        <time>2024-12-23T21:14:35.033Z</time>
      </trkpt>
      <trkpt lat="48.17142" lon="5.04475">
        <ele>353.22</ele>
        <time>2024-12-23T21:14:37.795Z</time>
      </trkpt>
      <trkpt lat="48.17168" lon="5.04457">
        <ele>353.57</ele>
        <time>2024-12-23T21:14:40.561Z</time>
      </trkpt>
      <trkpt lat="48.17185" lon="5.0444">
        <ele>353.86</ele>
        <time>2024-12-23T21:14:43.330Z</time>
      </trkpt>
      <trkpt lat="48.17194" lon="5.04431">
        <ele>354.1</ele>
        <time>2024-12-23T21:14:46.101Z</time>
      </trkpt>
      <trkpt lat="48.17214" lon="5.04401">
        <ele>354.35</ele>
        <time>2024-12-23T21:14:48.877Z</time>
      </trkpt>
      <trkpt lat="48.17233" lon="5.04371">
        <ele>354.57</ele>
        <time>2024-12-23T21:14:51.657Z</time>
      </trkpt>
      <trkpt lat="48.17253" lon="5.04341">
        <ele>354.73</ele>
        <time>2024-12-23T21:14:54.442Z</time>
      </trkpt>
      <trkpt lat="48.17273" lon="5.04311">
        <ele>354.79</ele>
        <time>2024-12-23T21:14:57.231Z</time>
      </trkpt>
      <trkpt lat="48.17292" lon="5.04285">
        <ele>354.79</ele>
        <time>2024-12-23T21:15:00.024Z</time>
      </trkpt>
      <trkpt lat="48.17312" lon="5.04258">
        <ele>354.77</ele>
        <time>2024-12-23T21:15:02.822Z</time>
      </trkpt>
      <trkpt lat="48.17331" lon="5.04232">
        <ele>354.72</ele>
        <time>2024-12-23T21:15:05.624Z</time>
      </trkpt>
      <trkpt lat="48.1735" lon="5.04212">
        <ele>354.59</ele>
        <time>2024-12-23T21:15:08.429Z</time>
      </trkpt>
      <trkpt lat="48.17368" lon="5.04192">
        <ele>354.42</ele>
        <time>2024-12-23T21:15:11.238Z</time>
      </trkpt>
      <trkpt lat="48.17387" lon="5.04172">
        <ele>354.22</ele>
        <time>2024-12-23T21:15:14.051Z</time>
      </trkpt>
      <trkpt lat="48.17406" lon="5.04146">
        <ele>353.96</ele>
        <time>2024-12-23T21:15:16.868Z</time>
      </trkpt>
      <trkpt lat="48.17426" lon="5.0412">
        <ele>353.73</ele>
        <time>2024-12-23T21:15:19.689Z</time>
      </trkpt>
      <trkpt lat="48.17445" lon="5.04094">
        <ele>353.43</ele>
        <time>2024-12-23T21:15:22.514Z</time>
      </trkpt>
      <trkpt lat="48.17464" lon="5.04067">
        <ele>353.12</ele>
        <time>2024-12-23T21:15:25.344Z</time>
      </trkpt>
      <trkpt lat="48.17483" lon="5.04039">
        <ele>352.89</ele>
        <time>2024-12-23T21:15:28.178Z</time>
      </trkpt>
      <trkpt lat="48.17503" lon="5.04012">
        <ele>352.65</ele>
        <time>2024-12-23T21:15:31.016Z</time>
      </trkpt>
      <trkpt lat="48.17522" lon="5.03984">
        <ele>352.38</ele>
        <time>2024-12-23T21:15:33.858Z</time>
      </trkpt>
      <trkpt lat="48.17541" lon="5.03957">
        <ele>352.05</ele>
        <time>2024-12-23T21:15:36.705Z</time>
      </trkpt>
      <trkpt lat="48.17541" lon="5.03957">
        <ele>351.79</ele>
        <time>2024-12-23T21:15:39.552Z</time>
      </trkpt>
      <trkpt lat="48.17564" lon="5.03926">
        <ele>351.48</ele>
        <time>2024-12-23T21:15:42.403Z</time>
      </trkpt>
      <trkpt lat="48.17587" lon="5.03896">
        <ele>351.28</ele>
        <time>2024-12-23T21:15:45.259Z</time>
      </trkpt>
      <trkpt lat="48.17609" lon="5.03865">
        <ele>351.15</ele>
        <time>2024-12-23T21:15:48.120Z</time>
      </trkpt>
      <trkpt lat="48.17632" lon="5.03835">
        <ele>350.94</ele>
        <time>2024-12-23T21:15:50.986Z</time>
      </trkpt>
      <trkpt lat="48.17655" lon="5.03804">
        <ele>350.62</ele>
        <time>2024-12-23T21:15:53.857Z</time>
      </trkpt>
      <trkpt lat="48.17677" lon="5.03774">
        <ele>350.34</ele>
        <time>2024-12-23T21:15:56.733Z</time>
      </trkpt>
      <trkpt lat="48.177" lon="5.03743">
        <ele>350.17</ele>
        <time>2024-12-23T21:15:59.614Z</time>
      </trkpt>
      <trkpt lat="48.17723" lon="5.03713">
        <ele>350.01</ele>
        <time>2024-12-23T21:16:02.500Z</time>
      </trkpt>
      <trkpt lat="48.17745" lon="5.03682">
        <ele>349.94</ele>
        <time>2024-12-23T21:16:05.391Z</time>
      </trkpt>
      <trkpt lat="48.17763" lon="5.0365">
        <ele>349.92</ele>
        <time>2024-12-23T21:16:08.286Z</time>
      </trkpt>
      <trkpt lat="48.17781" lon="5.03618">
        <ele>349.82</ele>
        <time>2024-12-23T21:16:11.185Z</time>
      </trkpt>
      <trkpt lat="48.17799" lon="5.03586">
        <ele>349.7</ele>
        <time>2024-12-23T21:16:14.089Z</time>
      </trkpt>
      <trkpt lat="48.17817" lon="5.03553">
        <ele>349.58</ele>
        <time>2024-12-23T21:16:16.997Z</time>
      </trkpt>
      <trkpt lat="48.17835" lon="5.03521">
        <ele>349.57</ele>
        <time>2024-12-23T21:16:19.910Z</time>
      </trkpt>
      <trkpt lat="48.17852" lon="5.03489">
        <ele>349.55</ele>
        <time>2024-12-23T21:16:22.827Z</time>
      </trkpt>
      <trkpt lat="48.17871" lon="5.0346">
        <ele>349.45</ele>
        <time>2024-12-23T21:16:25.749Z</time>
      </trkpt>
      <trkpt lat="48.17889" lon="5.0343">
        <ele>349.42</ele>
        <time>2024-12-23T21:16:28.675Z</time>
      </trkpt>
      <trkpt lat="48.17907" lon="5.034">
        <ele>349.53</ele>
        <time>2024-12-23T21:16:31.605Z</time>
      </trkpt>
      <trkpt lat="48.17925" lon="5.03371">
        <ele>349.63</ele>
        <time>2024-12-23T21:16:34.540Z</time>
      </trkpt>
      <trkpt lat="48.17943" lon="5.03341">
        <ele>349.73</ele>
        <time>2024-12-23T21:16:37.479Z</time>
      </trkpt>
      <trkpt lat="48.17962" lon="5.03307">
        <ele>349.79</ele>
        <time>2024-12-23T21:16:40.423Z</time>
      </trkpt>
      <trkpt lat="48.17978" lon="5.03276">
        <ele>349.86</ele>
        <time>2024-12-23T21:16:43.371Z</time>
      </trkpt>
      <trkpt lat="48.17995" lon="5.03245">
        <ele>349.93</ele>
        <time>2024-12-23T21:16:46.323Z</time>
      </trkpt>
      <trkpt lat="48.18011" lon="5.03215">
        <ele>349.91</ele>
        <time>2024-12-23T21:16:49.279Z</time>
      </trkpt>
      <trkpt lat="48.18028" lon="5.03187">
        <ele>349.95</ele>
        <time>2024-12-23T21:16:52.239Z</time>
      </trkpt>
      <trkpt lat="48.18046" lon="5.03171">
        <ele>350.13</ele>
        <time>2024-12-23T21:16:55.203Z</time>
      </trkpt>
      <trkpt lat="48.18063" lon="5.03155">
        <ele>350.35</ele>
        <time>2024-12-23T21:16:58.170Z</time>
      </trkpt>
      <trkpt lat="48.18084" lon="5.03139">
        <ele>350.67</ele>
        <time>2024-12-23T21:17:01.141Z</time>
      </trkpt>
      <trkpt lat="48.18106" lon="5.03124">
        <ele>351</ele>
        <time>2024-12-23T21:17:04.115Z</time>
      </trkpt>
      <trkpt lat="48.18133" lon="5.03122">
        <ele>351.28</ele>
        <time>2024-12-23T21:17:07.094Z</time>
      </trkpt>
      <trkpt lat="48.1816" lon="5.0312">
        <ele>351.55</ele>
        <time>2024-12-23T21:17:10.077Z</time>
      </trkpt>
      <trkpt lat="48.18188" lon="5.03117">
        <ele>351.78</ele>
        <time>2024-12-23T21:17:13.065Z</time>
      </trkpt>
      <trkpt lat="48.18215" lon="5.03115">
        <ele>351.94</ele>
        <time>2024-12-23T21:17:16.057Z</time>
      </trkpt>
      <trkpt lat="48.18242" lon="5.03112">
        <ele>352.04</ele>
        <time>2024-12-23T21:17:19.053Z</time>
      </trkpt>
      <trkpt lat="48.1827" lon="5.0311">
        <ele>352.13</ele>
        <time>2024-12-23T21:17:22.054Z</time>
      </trkpt>
      <trkpt lat="48.1827" lon="5.0311">
        <ele>352.25</ele>
        <time>2024-12-23T21:17:25.055Z</time>
      </trkpt>
      <trkpt lat="48.18294" lon="5.03107">
        <ele>352.35</ele>
        <time>2024-12-23T21:17:28.060Z</time>
      </trkpt>
      <trkpt lat="48.18318" lon="5.03105">
        <ele>352.48</ele>
        <time>2024-12-23T21:17:31.069Z</time>
      </trkpt>
      <trkpt lat="48.18347" lon="5.03097">
        <ele>352.55</ele>
        <time>2024-12-23T21:17:34.082Z</time>
      </trkpt>
      <trkpt lat="48.18376" lon="5.0309">
        <ele>352.58</ele>
        <time>2024-12-23T21:17:37.100Z</time>
      </trkpt>
      <trkpt lat="48.18404" lon="5.03082">
        <ele>352.62</ele>
        <time>2024-12-23T21:17:40.123Z</time>
      </trkpt>
      <trkpt lat="48.18433" lon="5.03074">
        <ele>352.59</ele>
        <time>2024-12-23T21:17:43.150Z</time>
      </trkpt>
      <trkpt lat="48.18462" lon="5.03067">
        <ele>352.54</ele>
        <time>2024-12-23T21:17:46.182Z</time>
      </trkpt>
      <trkpt lat="48.18491" lon="5.03059">
        <ele>352.48</ele>
        <time>2024-12-23T21:17:49.219Z</time>
      </trkpt>
      <trkpt lat="48.18519" lon="5.03051">
        <ele>352.4</ele>
        <time>2024-12-23T21:17:52.260Z</time>
      </trkpt>
      <trkpt lat="48.18548" lon="5.03043">
        <ele>352.31</ele>
        <time>2024-12-23T21:17:55.306Z</time>
      </trkpt>
      <trkpt lat="48.18577" lon="5.03036">
        <ele>352.29</ele>
        <time>2024-12-23T21:17:58.357Z</time>
      </trkpt>
      <trkpt lat="48.18606" lon="5.03028">
        <ele>352.12</ele>
        <time>2024-12-23T21:18:01.412Z</time>
      </trkpt>
      <trkpt lat="48.18634" lon="5.03024">
        <ele>351.94</ele>
        <time>2024-12-23T21:18:04.472Z</time>
      </trkpt>
      <trkpt lat="48.18663" lon="5.03021">
        <ele>351.79</ele>
        <time>2024-12-23T21:18:07.536Z</time>
      </trkpt>
      <trkpt lat="48.18691" lon="5.03017">
        <ele>351.63</ele>
        <time>2024-12-23T21:18:10.605Z</time>
      </trkpt>
      <trkpt lat="48.18719" lon="5.03018">
        <ele>351.48</ele>
        <time>2024-12-23T21:18:13.678Z</time>
      </trkpt>
      <trkpt lat="48.18746" lon="5.0302">
        <ele>351.31</ele>
        <time>2024-12-23T21:18:16.756Z</time>
      </trkpt>
      <trkpt lat="48.18773" lon="5.03021">
        <ele>351.14</ele>
        <time>2024-12-23T21:18:19.838Z</time>
      </trkpt>
      <trkpt lat="48.188" lon="5.03022">
        <ele>351.06</ele>
        <time>2024-12-23T21:18:22.924Z</time>
      </trkpt>
      <trkpt lat="48.18827" lon="5.03024">
        <ele>351.06</ele>
        <time>2024-12-23T21:18:26.015Z</time>
      </trkpt>
      <trkpt lat="48.18856" lon="5.03022">
        <ele>351.09</ele>
        <time>2024-12-23T21:18:29.110Z</time>
      </trkpt>
      <trkpt lat="48.18886" lon="5.03021">
        <ele>351.03</ele>
        <time>2024-12-23T21:18:32.210Z</time>
      </trkpt>
      <trkpt lat="48.18916" lon="5.0302">
        <ele>351.05</ele>
        <time>2024-12-23T21:18:35.315Z</time>
      </trkpt>
      <trkpt lat="48.18946" lon="5.03018">
        <ele>351.15</ele>
        <time>2024-12-23T21:18:38.425Z</time>
      </trkpt>
      <trkpt lat="48.18975" lon="5.03017">
        <ele>351.29</ele>
        <time>2024-12-23T21:18:41.540Z</time>
      </trkpt>
      <trkpt lat="48.19005" lon="5.03016">
        <ele>351.5</ele>
        <time>2024-12-23T21:18:44.659Z</time>
      </trkpt>
      <trkpt lat="48.19035" lon="5.03014">
        <ele>351.8</ele>
        <time>2024-12-23T21:18:47.783Z</time>
      </trkpt>
      <trkpt lat="48.19065" lon="5.03013">
        <ele>352.17</ele>
        <time>2024-12-23T21:18:50.912Z</time>
      </trkpt>
      <trkpt lat="48.19084" lon="5.03015">
        <ele>352.61</ele>
        <time>2024-12-23T21:18:54.044Z</time>
      </trkpt>
      <trkpt lat="48.19111" lon="5.03023">
        <ele>353.13</ele>
        <time>2024-12-23T21:18:57.180Z</time>
      </trkpt>
      <trkpt lat="48.19137" lon="5.03031">
        <ele>353.73</ele>
        <time>2024-12-23T21:19:00.321Z</time>
      </trkpt>
      <trkpt lat="48.19164" lon="5.03039">
        <ele>354.36</ele>
        <time>2024-12-23T21:19:03.466Z</time>
      </trkpt>
      <trkpt lat="48.1919" lon="5.03046">
        <ele>355.05</ele>
        <time>2024-12-23T21:19:06.615Z</time>
      </trkpt>
      <trkpt lat="48.19216" lon="5.03054">
        <ele>355.75</ele>
        <time>2024-12-23T21:19:09.769Z</time>
      </trkpt>
      <trkpt lat="48.19243" lon="5.03062">
        <ele>356.45</ele>
        <time>2024-12-23T21:19:12.927Z</time>
      </trkpt>
      <trkpt lat="48.19268" lon="5.03072">
        <ele>357.26</ele>
        <time>2024-12-23T21:19:16.089Z</time>
      </trkpt>
      <trkpt lat="48.19292" lon="5.03082">
        <ele>358.01</ele>
        <time>2024-12-23T21:19:19.255Z</time>
      </trkpt>
      <trkpt lat="48.19307" lon="5.03092">
        <ele>358.78</ele>
        <time>2024-12-23T21:19:22.424Z</time>
      </trkpt>
      <trkpt lat="48.1933" lon="5.03114">
        <ele>359.58</ele>
        <time>2024-12-23T21:19:25.597Z</time>
      </trkpt>
      <trkpt lat="48.19353" lon="5.03135">
        <ele>360.42</ele>
        <time>2024-12-23T21:19:28.774Z</time>
      </trkpt>
      <trkpt lat="48.19377" lon="5.03157">
        <ele>361.34</ele>
        <time>2024-12-23T21:19:31.956Z</time>
      </trkpt>
      <trkpt lat="48.194" lon="5.03178">
        <ele>362.29</ele>
        <time>2024-12-23T21:19:35.142Z</time>
      </trkpt>
      <trkpt lat="48.19421" lon="5.03193">
        <ele>363.3</ele>
        <time>2024-12-23T21:19:38.332Z</time>
      </trkpt>
      <trkpt lat="48.19447" lon="5.03201">
        <ele>364.3</ele>
        <time>2024-12-23T21:19:41.526Z</time>
      </trkpt>
      <trkpt lat="48.19473" lon="5.03208">
        <ele>365.32</ele>
        <time>2024-12-23T21:19:44.724Z</time>
      </trkpt>
      <trkpt lat="48.19499" lon="5.03216">
        <ele>366.34</ele>
        <time>2024-12-23T21:19:47.927Z</time>
      </trkpt>
      <trkpt lat="48.19525" lon="5.03223">
        <ele>367.36</ele>
        <time>2024-12-23T21:19:51.134Z</time>
      </trkpt>
      <trkpt lat="48.19552" lon="5.03231">
        <ele>368.47</ele>
        <time>2024-12-23T21:19:54.345Z</time>
      </trkpt>
      <trkpt lat="48.19578" lon="5.03238">
        <ele>369.63</ele>
        <time>2024-12-23T21:19:57.560Z</time>
      </trkpt>
      <trkpt lat="48.19604" lon="5.03234">
        <ele>370.7</ele>
        <time>2024-12-23T21:20:00.780Z</time>
      </trkpt>
      <trkpt lat="48.1963" lon="5.0323">
        <ele>371.7</ele>
        <time>2024-12-23T21:20:04.004Z</time>
      </trkpt>
      <trkpt lat="48.19656" lon="5.03225">
        <ele>372.78</ele>
        <time>2024-12-23T21:20:07.232Z</time>
      </trkpt>
      <trkpt lat="48.19682" lon="5.03221">
        <ele>373.73</ele>
        <time>2024-12-23T21:20:10.464Z</time>
      </trkpt>
      <trkpt lat="48.19709" lon="5.03217">
        <ele>374.72</ele>
        <time>2024-12-23T21:20:13.701Z</time>
      </trkpt>
      <trkpt lat="48.19732" lon="5.0321">
        <ele>375.63</ele>
        <time>2024-12-23T21:20:16.941Z</time>
      </trkpt>
      <trkpt lat="48.19756" lon="5.03204">
        <ele>376.48</ele>
        <time>2024-12-23T21:20:20.185Z</time>
      </trkpt>
      <trkpt lat="48.19785" lon="5.03197">
        <ele>377.24</ele>
        <time>2024-12-23T21:20:23.434Z</time>
      </trkpt>
      <trkpt lat="48.19814" lon="5.03191">
        <ele>378.07</ele>
        <time>2024-12-23T21:20:26.688Z</time>
      </trkpt>
      <trkpt lat="48.1983" lon="5.0319">
        <ele>378.8</ele>
        <time>2024-12-23T21:20:29.944Z</time>
      </trkpt>
      <trkpt lat="48.19846" lon="5.03189">
        <ele>379.46</ele>
        <time>2024-12-23T21:20:33.203Z</time>
      </trkpt>
      <trkpt lat="48.19873" lon="5.03193">
        <ele>379.98</ele>
        <time>2024-12-23T21:20:36.466Z</time>
      </trkpt>
      <trkpt lat="48.19899" lon="5.03197">
        <ele>380.33</ele>
        <time>2024-12-23T21:20:39.733Z</time>
      </trkpt>
      <trkpt lat="48.19926" lon="5.032">
        <ele>380.7</ele>
        <time>2024-12-23T21:20:43.005Z</time>
      </trkpt>
      <trkpt lat="48.19952" lon="5.03204">
        <ele>380.96</ele>
        <time>2024-12-23T21:20:46.281Z</time>
      </trkpt>
      <trkpt lat="48.19979" lon="5.03208">
        <ele>381.2</ele>
        <time>2024-12-23T21:20:49.561Z</time>
      </trkpt>
      <trkpt lat="48.19979" lon="5.03208">
        <ele>381.27</ele>
        <time>2024-12-23T21:20:52.841Z</time>
      </trkpt>
      <trkpt lat="48.20003" lon="5.03223">
        <ele>381.31</ele>
        <time>2024-12-23T21:20:56.125Z</time>
      </trkpt>
      <trkpt lat="48.2002" lon="5.03243">
        <ele>381.23</ele>
        <time>2024-12-23T21:20:59.413Z</time>
      </trkpt>
      <trkpt lat="48.20037" lon="5.03262">
        <ele>381.03</ele>
        <time>2024-12-23T21:21:02.704Z</time>
      </trkpt>
      <trkpt lat="48.20037" lon="5.03294">
        <ele>380.48</ele>
        <time>2024-12-23T21:21:05.999Z</time>
      </trkpt>
      <trkpt lat="48.20034" lon="5.03323">
        <ele>379.89</ele>
        <time>2024-12-23T21:21:09.297Z</time>
      </trkpt>
      <trkpt lat="48.2003" lon="5.03352">
        <ele>379.27</ele>
        <time>2024-12-23T21:21:12.598Z</time>
      </trkpt>
      <trkpt lat="48.20023" lon="5.03384">
        <ele>378.55</ele>
        <time>2024-12-23T21:21:15.903Z</time>
      </trkpt>
      <trkpt lat="48.20016" lon="5.03416">
        <ele>377.67</ele>
        <time>2024-12-23T21:21:19.211Z</time>
      </trkpt>
      <trkpt lat="48.20009" lon="5.03448">
        <ele>376.67</ele>
        <time>2024-12-23T21:21:22.523Z</time>
      </trkpt>
      <trkpt lat="48.20005" lon="5.03472">
        <ele>375.53</ele>
        <time>2024-12-23T21:21:25.837Z</time>
      </trkpt>
      <trkpt lat="48.2" lon="5.03496">
        <ele>374.33</ele>
        <time>2024-12-23T21:21:29.154Z</time>
      </trkpt>
      <trkpt lat="48.19996" lon="5.03529">
        <ele>373.01</ele>
        <time>2024-12-23T21:21:32.475Z</time>
      </trkpt>
      <trkpt lat="48.19992" lon="5.03562">
        <ele>371.64</ele>
        <time>2024-12-23T21:21:35.799Z</time>
      </trkpt>
      <trkpt lat="48.19994" lon="5.03601">
        <ele>370.16</ele>
        <time>2024-12-23T21:21:39.127Z</time>
      </trkpt>
      <trkpt lat="48.19979" lon="5.03614">
        <ele>368.66</ele>
        <time>2024-12-23T21:21:42.458Z</time>
      </trkpt>
      <trkpt lat="48.19968" lon="5.03618">
        <ele>367.06</ele>
        <time>2024-12-23T21:21:45.791Z</time>
      </trkpt>
      <trkpt lat="48.19968" lon="5.03648">
        <ele>365.39</ele>
        <time>2024-12-23T21:21:49.127Z</time>
      </trkpt>
      <trkpt lat="48.19968" lon="5.03678">
        <ele>363.71</ele>
        <time>2024-12-23T21:21:52.466Z</time>
      </trkpt>
      <trkpt lat="48.19957" lon="5.03708">
        <ele>361.98</ele>
        <time>2024-12-23T21:21:55.809Z</time>
      </trkpt>
      <trkpt lat="48.19938" lon="5.03738">
        <ele>360.24</ele>
        <time>2024-12-23T21:21:59.157Z</time>
      </trkpt>
      <trkpt lat="48.19925" lon="5.03772">
        <ele>358.42</ele>
        <time>2024-12-23T21:22:02.509Z</time>
      </trkpt>
      <trkpt lat="48.1993" lon="5.03783">
        <ele>357.09</ele>
        <time>2024-12-23T21:22:05.862Z</time>
      </trkpt>
      <trkpt lat="48.19946" lon="5.03805">
        <ele>355.94</ele>
        <time>2024-12-23T21:22:09.219Z</time>
      </trkpt>
      <trkpt lat="48.19963" lon="5.03826">
        <ele>354.88</ele>
        <time>2024-12-23T21:22:12.579Z</time>
      </trkpt>
      <trkpt lat="48.19979" lon="5.03848">
        <ele>354.01</ele>
        <time>2024-12-23T21:22:15.943Z</time>
      </trkpt>
      <trkpt lat="48.19966" lon="5.03856">
        <ele>353.15</ele>
        <time>2024-12-23T21:22:19.309Z</time>
      </trkpt>
      <trkpt lat="48.1994" lon="5.0386">
        <ele>352.5</ele>
        <time>2024-12-23T21:22:22.679Z</time>
      </trkpt>
      <trkpt lat="48.1994" lon="5.0386">
        <ele>352.25</ele>
        <time>2024-12-23T21:22:26.049Z</time>
      </trkpt>
      <trkpt lat="48.19939" lon="5.0386">
        <ele>352.2</ele>
        <time>2024-12-23T21:22:29.419Z</time>
      </trkpt>
      <trkpt lat="48.1994" lon="5.0386">
        <ele>352.5</ele>
        <time>2024-12-23T21:22:32.789Z</time>
      </trkpt>
      <trkpt lat="48.19966" lon="5.03856">
        <ele>353.15</ele>
        <time>2024-12-23T21:22:36.163Z</time>
      </trkpt>
      <trkpt lat="48.19979" lon="5.03848">
        <ele>354.01</ele>
        <time>2024-12-23T21:22:39.540Z</time>
      </trkpt>
      <trkpt lat="48.19962" lon="5.03826">
        <ele>354.48</ele>
        <time>2024-12-23T21:22:42.920Z</time>
      </trkpt>
      <trkpt lat="48.19946" lon="5.03805">
        <ele>355.44</ele>
        <time>2024-12-23T21:22:46.304Z</time>
      </trkpt>
      <trkpt lat="48.1993" lon="5.03783">
        <ele>357.09</ele>
        <time>2024-12-23T21:22:49.691Z</time>
      </trkpt>
      <trkpt lat="48.19925" lon="5.03772">
        <ele>358.42</ele>
        <time>2024-12-23T21:22:53.079Z</time>
      </trkpt>
      <trkpt lat="48.19938" lon="5.03738">
        <ele>360.24</ele>
        <time>2024-12-23T21:22:56.472Z</time>
      </trkpt>
      <trkpt lat="48.19957" lon="5.03708">
        <ele>361.98</ele>
        <time>2024-12-23T21:22:59.869Z</time>
      </trkpt>
      <trkpt lat="48.19968" lon="5.03678">
        <ele>363.71</ele>
        <time>2024-12-23T21:23:03.270Z</time>
      </trkpt>
      <trkpt lat="48.19968" lon="5.03648">
        <ele>364.04</ele>
        <time>2024-12-23T21:23:06.674Z</time>
      </trkpt>
      <trkpt lat="48.19968" lon="5.03618">
        <ele>367.06</ele>
        <time>2024-12-23T21:23:10.081Z</time>
      </trkpt>
      <trkpt lat="48.19979" lon="5.03614">
        <ele>368.66</ele>
        <time>2024-12-23T21:23:13.490Z</time>
      </trkpt>
      <trkpt lat="48.19994" lon="5.03601">
        <ele>368.26</ele>
        <time>2024-12-23T21:23:16.902Z</time>
      </trkpt>
      <trkpt lat="48.20009" lon="5.03639">
        <ele>369.53</ele>
        <time>2024-12-23T21:23:20.319Z</time>
      </trkpt>
      <trkpt lat="48.20025" lon="5.03664">
        <ele>370.76</ele>
        <time>2024-12-23T21:23:23.739Z</time>
      </trkpt>
      <trkpt lat="48.20041" lon="5.03689">
        <ele>371.94</ele>
        <time>2024-12-23T21:23:27.163Z</time>
      </trkpt>
      <trkpt lat="48.20052" lon="5.03712">
        <ele>373.01</ele>
        <time>2024-12-23T21:23:30.590Z</time>
      </trkpt>
      <trkpt lat="48.20062" lon="5.03741">
        <ele>373.9</ele>
        <time>2024-12-23T21:23:34.020Z</time>
      </trkpt>
      <trkpt lat="48.20071" lon="5.0377">
        <ele>374.7</ele>
        <time>2024-12-23T21:23:37.454Z</time>
      </trkpt>
      <trkpt lat="48.2008" lon="5.03809">
        <ele>375.43</ele>
        <time>2024-12-23T21:23:40.892Z</time>
      </trkpt>
      <trkpt lat="48.20088" lon="5.03848">
        <ele>376.03</ele>
        <time>2024-12-23T21:23:44.335Z</time>
      </trkpt>
      <trkpt lat="48.20098" lon="5.03879">
        <ele>376.6</ele>
        <time>2024-12-23T21:23:47.781Z</time>
      </trkpt>
      <trkpt lat="48.20108" lon="5.0391">
        <ele>377.13</ele>
        <time>2024-12-23T21:23:51.231Z</time>
      </trkpt>
      <trkpt lat="48.20108" lon="5.03914">
        <ele>377.59</ele>
        <time>2024-12-23T21:23:54.681Z</time>
      </trkpt>
      <trkpt lat="48.20108" lon="5.03915">
        <ele>378.01</ele>
        <time>2024-12-23T21:23:58.132Z</time>
      </trkpt>
      <trkpt lat="48.20108" lon="5.03916">
        <ele>378.39</ele>
        <time>2024-12-23T21:24:01.583Z</time>
      </trkpt>
      <trkpt lat="48.20108" lon="5.03916">
        <ele>378.74</ele>
        <time>2024-12-23T21:24:05.034Z</time>
      </trkpt>
      <trkpt lat="48.2011" lon="5.03936">
        <ele>379.09</ele>
        <time>2024-12-23T21:24:08.487Z</time>
      </trkpt>
      <trkpt lat="48.20106" lon="5.03981">
        <ele>379.41</ele>
        <time>2024-12-23T21:24:11.945Z</time>
      </trkpt>
      <trkpt lat="48.2011" lon="5.04006">
        <ele>379.77</ele>
        <time>2024-12-23T21:24:15.405Z</time>
      </trkpt>
      <trkpt lat="48.20114" lon="5.04032">
        <ele>380.15</ele>
        <time>2024-12-23T21:24:18.868Z</time>
      </trkpt>
      <trkpt lat="48.20127" lon="5.04071">
        <ele>380.52</ele>
        <time>2024-12-23T21:24:22.336Z</time>
      </trkpt>
      <trkpt lat="48.20138" lon="5.04093">
        <ele>380.97</ele>
        <time>2024-12-23T21:24:25.807Z</time>
      </trkpt>
      <trkpt lat="48.20148" lon="5.04116">
        <ele>381.48</ele>
        <time>2024-12-23T21:24:29.281Z</time>
      </trkpt>
      <trkpt lat="48.20159" lon="5.04134">
        <ele>382.06</ele>
        <time>2024-12-23T21:24:32.757Z</time>
      </trkpt>
      <trkpt lat="48.2017" lon="5.04152">
        <ele>382.7</ele>
        <time>2024-12-23T21:24:36.236Z</time>
      </trkpt>
      <trkpt lat="48.20189" lon="5.04152">
        <ele>383.43</ele>
        <time>2024-12-23T21:24:39.718Z</time>
      </trkpt>
      <trkpt lat="48.20211" lon="5.04161">
        <ele>384.24</ele>
        <time>2024-12-23T21:24:43.204Z</time>
      </trkpt>
      <trkpt lat="48.20232" lon="5.04169">
        <ele>385.06</ele>
        <time>2024-12-23T21:24:46.693Z</time>
      </trkpt>
      <trkpt lat="48.20248" lon="5.04181">
        <ele>385.87</ele>
        <time>2024-12-23T21:24:50.185Z</time>
      </trkpt>
      <trkpt lat="48.20264" lon="5.04193">
        <ele>386.73</ele>
        <time>2024-12-23T21:24:53.680Z</time>
      </trkpt>
      <trkpt lat="48.20286" lon="5.04215">
        <ele>387.63</ele>
        <time>2024-12-23T21:24:57.179Z</time>
      </trkpt>
      <trkpt lat="48.20307" lon="5.04236">
        <ele>388.58</ele>
        <time>2024-12-23T21:25:00.682Z</time>
      </trkpt>
      <trkpt lat="48.2032" lon="5.04242">
        <ele>389.51</ele>
        <time>2024-12-23T21:25:04.187Z</time>
      </trkpt>
      <trkpt lat="48.20346" lon="5.04253">
        <ele>390.5</ele>
        <time>2024-12-23T21:25:07.697Z</time>
      </trkpt>
      <trkpt lat="48.2037" lon="5.04257">
        <ele>391.48</ele>
        <time>2024-12-23T21:25:11.211Z</time>
      </trkpt>
      <trkpt lat="48.20394" lon="5.04262">
        <ele>392.38</ele>
        <time>2024-12-23T21:25:14.729Z</time>
      </trkpt>
      <trkpt lat="48.20418" lon="5.04266">
        <ele>393.25</ele>
        <time>2024-12-23T21:25:18.250Z</time>
      </trkpt>
      <trkpt lat="48.20442" lon="5.0427">
        <ele>394.13</ele>
        <time>2024-12-23T21:25:21.775Z</time>
      </trkpt>
      <trkpt lat="48.20464" lon="5.04277">
        <ele>395</ele>
        <time>2024-12-23T21:25:25.304Z</time>
      </trkpt>
      <trkpt lat="48.20464" lon="5.04277">
        <ele>395.76</ele>
        <time>2024-12-23T21:25:28.833Z</time>
      </trkpt>
      <trkpt lat="48.20493" lon="5.0429">
        <ele>396.53</ele>
        <time>2024-12-23T21:25:32.367Z</time>
      </trkpt>
      <trkpt lat="48.20521" lon="5.04304">
        <ele>397.22</ele>
        <time>2024-12-23T21:25:35.905Z</time>
      </trkpt>
      <trkpt lat="48.2055" lon="5.04318">
        <ele>397.85</ele>
        <time>2024-12-23T21:25:39.448Z</time>
      </trkpt>
      <trkpt lat="48.20579" lon="5.04329">
        <ele>398.48</ele>
        <time>2024-12-23T21:25:42.996Z</time>
      </trkpt>
      <trkpt lat="48.20609" lon="5.0434">
        <ele>399.03</ele>
        <time>2024-12-23T21:25:46.549Z</time>
      </trkpt>
      <trkpt lat="48.20638" lon="5.04352">
        <ele>399.41</ele>
        <time>2024-12-23T21:25:50.107Z</time>
      </trkpt>
      <trkpt lat="48.20667" lon="5.04363">
        <ele>399.64</ele>
        <time>2024-12-23T21:25:53.670Z</time>
      </trkpt>
      <trkpt lat="48.20697" lon="5.04374">
        <ele>399.79</ele>
        <time>2024-12-23T21:25:57.238Z</time>
      </trkpt>
      <trkpt lat="48.20726" lon="5.04386">
        <ele>399.81</ele>
        <time>2024-12-23T21:26:00.810Z</time>
      </trkpt>
      <trkpt lat="48.20756" lon="5.04397">
        <ele>399.77</ele>
        <time>2024-12-23T21:26:04.387Z</time>
      </trkpt>
      <trkpt lat="48.20781" lon="5.04412">
        <ele>399.7</ele>
        <time>2024-12-23T21:26:07.969Z</time>
      </trkpt>
      <trkpt lat="48.20805" lon="5.04432">
        <ele>399.6</ele>
        <time>2024-12-23T21:26:11.555Z</time>
      </trkpt>
      <trkpt lat="48.20829" lon="5.04453">
        <ele>399.44</ele>
        <time>2024-12-23T21:26:15.145Z</time>
      </trkpt>
      <trkpt lat="48.20853" lon="5.04481">
        <ele>399.18</ele>
        <time>2024-12-23T21:26:18.740Z</time>
      </trkpt>
      <trkpt lat="48.20877" lon="5.0451">
        <ele>398.75</ele>
        <time>2024-12-23T21:26:22.340Z</time>
      </trkpt>
      <trkpt lat="48.20901" lon="5.04539">
        <ele>398.3</ele>
        <time>2024-12-23T21:26:25.945Z</time>
      </trkpt>
      <trkpt lat="48.20925" lon="5.04568">
        <ele>397.82</ele>
        <time>2024-12-23T21:26:29.555Z</time>
      </trkpt>
      <trkpt lat="48.20949" lon="5.04596">
        <ele>397.21</ele>
        <time>2024-12-23T21:26:33.170Z</time>
      </trkpt>
      <trkpt lat="48.20971" lon="5.04618">
        <ele>396.43</ele>
        <time>2024-12-23T21:26:36.789Z</time>
      </trkpt>
      <trkpt lat="48.20994" lon="5.0464">
        <ele>395.47</ele>
        <time>2024-12-23T21:26:40.413Z</time>
      </trkpt>
      <trkpt lat="48.21016" lon="5.04662">
        <ele>394.48</ele>
        <time>2024-12-23T21:26:44.041Z</time>
      </trkpt>
      <trkpt lat="48.21039" lon="5.04684">
        <ele>393.47</ele>
        <time>2024-12-23T21:26:47.673Z</time>
      </trkpt>
      <trkpt lat="48.21062" lon="5.04706">
        <ele>392.3</ele>
        <time>2024-12-23T21:26:51.310Z</time>
      </trkpt>
      <trkpt lat="48.21084" lon="5.04727">
        <ele>391.06</ele>
        <time>2024-12-23T21:26:54.951Z</time>
      </trkpt>
      <trkpt lat="48.21093" lon="5.0474">
        <ele>389.81</ele>
        <time>2024-12-23T21:26:58.594Z</time>
      </trkpt>
      <trkpt lat="48.21104" lon="5.04766">
        <ele>388.49</ele>
        <time>2024-12-23T21:27:02.240Z</time>
      </trkpt>
      <trkpt lat="48.21116" lon="5.04792">
        <ele>387.16</ele>
        <time>2024-12-23T21:27:05.889Z</time>
      </trkpt>
      <trkpt lat="48.21138" lon="5.04824">
        <ele>385.71</ele>
        <time>2024-12-23T21:27:09.543Z</time>
      </trkpt>
      <trkpt lat="48.21158" lon="5.04844">
        <ele>384.31</ele>
        <time>2024-12-23T21:27:13.201Z</time>
      </trkpt>
      <trkpt lat="48.21178" lon="5.04864">
        <ele>382.87</ele>
        <time>2024-12-23T21:27:16.863Z</time>
      </trkpt>
      <trkpt lat="48.21199" lon="5.04884">
        <ele>381.44</ele>
        <time>2024-12-23T21:27:20.529Z</time>
      </trkpt>
      <trkpt lat="48.21219" lon="5.04903">
        <ele>380.09</ele>
        <time>2024-12-23T21:27:24.199Z</time>
      </trkpt>
      <trkpt lat="48.21244" lon="5.04929">
        <ele>378.83</ele>
        <time>2024-12-23T21:27:27.874Z</time>
      </trkpt>
      <trkpt lat="48.21268" lon="5.04955">
        <ele>377.43</ele>
        <time>2024-12-23T21:27:31.554Z</time>
      </trkpt>
      <trkpt lat="48.21293" lon="5.04981">
        <ele>376.17</ele>
        <time>2024-12-23T21:27:35.238Z</time>
      </trkpt>
      <trkpt lat="48.21317" lon="5.05006">
        <ele>375.03</ele>
        <time>2024-12-23T21:27:38.927Z</time>
      </trkpt>
      <trkpt lat="48.21342" lon="5.05032">
        <ele>374.01</ele>
        <time>2024-12-23T21:27:42.621Z</time>
      </trkpt>
      <trkpt lat="48.21367" lon="5.05054">
        <ele>373.07</ele>
        <time>2024-12-23T21:27:46.320Z</time>
      </trkpt>
      <trkpt lat="48.21387" lon="5.05067">
        <ele>372.21</ele>
        <time>2024-12-23T21:27:50.022Z</time>
      </trkpt>
      <trkpt lat="48.21407" lon="5.05081">
        <ele>371.44</ele>
        <time>2024-12-23T21:27:53.728Z</time>
      </trkpt>
      <trkpt lat="48.21427" lon="5.05094">
        <ele>370.69</ele>
        <time>2024-12-23T21:27:57.437Z</time>
      </trkpt>
      <trkpt lat="48.21446" lon="5.0511">
        <ele>370.02</ele>
        <time>2024-12-23T21:28:01.150Z</time>
      </trkpt>
      <trkpt lat="48.21464" lon="5.05126">
        <ele>369.41</ele>
        <time>2024-12-23T21:28:04.866Z</time>
      </trkpt>
      <trkpt lat="48.2148" lon="5.05148">
        <ele>368.95</ele>
        <time>2024-12-23T21:28:08.585Z</time>
      </trkpt>
      <trkpt lat="48.21497" lon="5.05169">
        <ele>368.52</ele>
        <time>2024-12-23T21:28:12.308Z</time>
      </trkpt>
      <trkpt lat="48.21513" lon="5.05191">
        <ele>368.12</ele>
        <time>2024-12-23T21:28:16.034Z</time>
      </trkpt>
      <trkpt lat="48.21534" lon="5.05222">
        <ele>367.84</ele>
        <time>2024-12-23T21:28:19.765Z</time>
      </trkpt>
      <trkpt lat="48.21555" lon="5.05252">
        <ele>367.57</ele>
        <time>2024-12-23T21:28:23.501Z</time>
      </trkpt>
      <trkpt lat="48.21575" lon="5.05283">
        <ele>367.32</ele>
        <time>2024-12-23T21:28:27.241Z</time>
      </trkpt>
      <trkpt lat="48.21598" lon="5.05307">
        <ele>367.15</ele>
        <time>2024-12-23T21:28:30.986Z</time>
      </trkpt>
      <trkpt lat="48.2162" lon="5.0533">
        <ele>367.16</ele>
        <time>2024-12-23T21:28:34.735Z</time>
      </trkpt>
      <trkpt lat="48.21642" lon="5.05335">
        <ele>367.08</ele>
        <time>2024-12-23T21:28:38.488Z</time>
      </trkpt>
      <trkpt lat="48.21663" lon="5.05326">
        <ele>366.96</ele>
        <time>2024-12-23T21:28:42.244Z</time>
      </trkpt>
      <trkpt lat="48.21685" lon="5.05317">
        <ele>366.89</ele>
        <time>2024-12-23T21:28:46.004Z</time>
      </trkpt>
      <trkpt lat="48.217" lon="5.05315">
        <ele>366.82</ele>
        <time>2024-12-23T21:28:49.766Z</time>
      </trkpt>
      <trkpt lat="48.21711" lon="5.0532">
        <ele>366.83</ele>
        <time>2024-12-23T21:28:53.530Z</time>
      </trkpt>
      <trkpt lat="48.21711" lon="5.0532">
        <ele>366.87</ele>
        <time>2024-12-23T21:28:57.294Z</time>
      </trkpt>
      <trkpt lat="48.21715" lon="5.05322">
        <ele>366.91</ele>
        <time>2024-12-23T21:29:01.059Z</time>
      </trkpt>
      <trkpt lat="48.21738" lon="5.05349">
        <ele>366.83</ele>
        <time>2024-12-23T21:29:04.829Z</time>
      </trkpt>
      <trkpt lat="48.21762" lon="5.05375">
        <ele>366.89</ele>
        <time>2024-12-23T21:29:08.603Z</time>
      </trkpt>
      <trkpt lat="48.21783" lon="5.05401">
        <ele>366.92</ele>
        <time>2024-12-23T21:29:12.382Z</time>
      </trkpt>
      <trkpt lat="48.21804" lon="5.05427">
        <ele>366.96</ele>
        <time>2024-12-23T21:29:16.165Z</time>
      </trkpt>
      <trkpt lat="48.21824" lon="5.05453">
        <ele>367.07</ele>
        <time>2024-12-23T21:29:19.952Z</time>
      </trkpt>
      <trkpt lat="48.21846" lon="5.05484">
        <ele>367.24</ele>
        <time>2024-12-23T21:29:23.744Z</time>
      </trkpt>
      <trkpt lat="48.21867" lon="5.05514">
        <ele>367.3</ele>
        <time>2024-12-23T21:29:27.541Z</time>
      </trkpt>
      <trkpt lat="48.21888" lon="5.05545">
        <ele>367.23</ele>
        <time>2024-12-23T21:29:31.342Z</time>
      </trkpt>
      <trkpt lat="48.21909" lon="5.05576">
        <ele>367.18</ele>
        <time>2024-12-23T21:29:35.148Z</time>
      </trkpt>
      <trkpt lat="48.21931" lon="5.05607">
        <ele>367.08</ele>
        <time>2024-12-23T21:29:38.959Z</time>
      </trkpt>
      <trkpt lat="48.21952" lon="5.05638">
        <ele>366.96</ele>
        <time>2024-12-23T21:29:42.775Z</time>
      </trkpt>
      <trkpt lat="48.21973" lon="5.05669">
        <ele>366.73</ele>
        <time>2024-12-23T21:29:46.595Z</time>
      </trkpt>
      <trkpt lat="48.21994" lon="5.057">
        <ele>366.41</ele>
        <time>2024-12-23T21:29:50.420Z</time>
      </trkpt>
      <trkpt lat="48.22016" lon="5.05731">
        <ele>365.98</ele>
        <time>2024-12-23T21:29:54.250Z</time>
      </trkpt>
      <trkpt lat="48.22037" lon="5.05762">
        <ele>365.45</ele>
        <time>2024-12-23T21:29:58.085Z</time>
      </trkpt>
      <trkpt lat="48.22052" lon="5.05791">
        <ele>364.85</ele>
        <time>2024-12-23T21:30:01.924Z</time>
      </trkpt>
      <trkpt lat="48.22067" lon="5.0582">
        <ele>364.2</ele>
        <time>2024-12-23T21:30:05.766Z</time>
      </trkpt>
      <trkpt lat="48.22075" lon="5.05843">
        <ele>363.43</ele>
        <time>2024-12-23T21:30:09.611Z</time>
      </trkpt>
      <trkpt lat="48.22084" lon="5.05867">
        <ele>362.49</ele>
        <time>2024-12-23T21:30:13.459Z</time>
      </trkpt>
      <trkpt lat="48.2209" lon="5.05888">
        <ele>361.44</ele>
        <time>2024-12-23T21:30:17.310Z</time>
      </trkpt>
      <trkpt lat="48.22088" lon="5.0591">
        <ele>360.27</ele>
        <time>2024-12-23T21:30:21.163Z</time>
      </trkpt>
      <trkpt lat="48.22082" lon="5.05929">
        <ele>358.98</ele>
        <time>2024-12-23T21:30:25.018Z</time>
      </trkpt>
      <trkpt lat="48.22069" lon="5.05948">
        <ele>357.63</ele>
        <time>2024-12-23T21:30:28.876Z</time>
      </trkpt>
      <trkpt lat="48.22056" lon="5.05965">
        <ele>356.21</ele>
        <time>2024-12-23T21:30:32.737Z</time>
      </trkpt>
      <trkpt lat="48.2205" lon="5.0598">
        <ele>354.73</ele>
        <time>2024-12-23T21:30:36.600Z</time>
      </trkpt>
      <trkpt lat="48.22045" lon="5.06018">
        <ele>353.04</ele>
        <time>2024-12-23T21:30:40.467Z</time>
      </trkpt>
      <trkpt lat="48.22041" lon="5.06056">
        <ele>351.24</ele>
        <time>2024-12-23T21:30:44.338Z</time>
      </trkpt>
      <trkpt lat="48.2203" lon="5.06092">
        <ele>349.33</ele>
        <time>2024-12-23T21:30:48.213Z</time>
      </trkpt>
      <trkpt lat="48.2202" lon="5.06129">
        <ele>347.34</ele>
        <time>2024-12-23T21:30:52.093Z</time>
      </trkpt>
      <trkpt lat="48.2201" lon="5.0615">
        <ele>345.35</ele>
        <time>2024-12-23T21:30:55.975Z</time>
      </trkpt>
      <trkpt lat="48.22" lon="5.06171">
        <ele>343.27</ele>
        <time>2024-12-23T21:30:59.860Z</time>
      </trkpt>
      <trkpt lat="48.21981" lon="5.06199">
        <ele>341.15</ele>
        <time>2024-12-23T21:31:03.749Z</time>
      </trkpt>
      <trkpt lat="48.21962" lon="5.06227">
        <ele>338.97</ele>
        <time>2024-12-23T21:31:07.643Z</time>
      </trkpt>
      <trkpt lat="48.21949" lon="5.06252">
        <ele>336.68</ele>
        <time>2024-12-23T21:31:11.540Z</time>
      </trkpt>
      <trkpt lat="48.21936" lon="5.06277">
        <ele>334.47</ele>
        <time>2024-12-23T21:31:15.440Z</time>
      </trkpt>
      <trkpt lat="48.21924" lon="5.0631">
        <ele>332.02</ele>
        <time>2024-12-23T21:31:19.344Z</time>
      </trkpt>
      <trkpt lat="48.21913" lon="5.06343">
        <ele>329.56</ele>
        <time>2024-12-23T21:31:23.252Z</time>
      </trkpt>
      <trkpt lat="48.21902" lon="5.06375">
        <ele>327.07</ele>
        <time>2024-12-23T21:31:27.164Z</time>
      </trkpt>
      <trkpt lat="48.21897" lon="5.06395">
        <ele>324.65</ele>
        <time>2024-12-23T21:31:31.079Z</time>
      </trkpt>
      <trkpt lat="48.21893" lon="5.06429">
        <ele>322.15</ele>
        <time>2024-12-23T21:31:34.997Z</time>
      </trkpt>
      <trkpt lat="48.21894" lon="5.06463">
        <ele>319.69</ele>
        <time>2024-12-23T21:31:38.919Z</time>
      </trkpt>
      <trkpt lat="48.21896" lon="5.06496">
        <ele>317.25</ele>
        <time>2024-12-23T21:31:42.845Z</time>
      </trkpt>
      <trkpt lat="48.21897" lon="5.0653">
        <ele>314.87</ele>
        <time>2024-12-23T21:31:46.774Z</time>
      </trkpt>
      <trkpt lat="48.21899" lon="5.06571">
        <ele>312.45</ele>
        <time>2024-12-23T21:31:50.708Z</time>
      </trkpt>
      <trkpt lat="48.21902" lon="5.06611">
        <ele>310.16</ele>
        <time>2024-12-23T21:31:54.646Z</time>
      </trkpt>
      <trkpt lat="48.21912" lon="5.0665">
        <ele>307.99</ele>
        <time>2024-12-23T21:31:58.588Z</time>
      </trkpt>
      <trkpt lat="48.21922" lon="5.06689">
        <ele>305.98</ele>
        <time>2024-12-23T21:32:02.535Z</time>
      </trkpt>
      <trkpt lat="48.21932" lon="5.06727">
        <ele>304.12</ele>
        <time>2024-12-23T21:32:06.486Z</time>
      </trkpt>
      <trkpt lat="48.21942" lon="5.06766">
        <ele>302.36</ele>
        <time>2024-12-23T21:32:10.442Z</time>
      </trkpt>
      <trkpt lat="48.21951" lon="5.06781">
        <ele>300.85</ele>
        <time>2024-12-23T21:32:14.400Z</time>
      </trkpt>
      <trkpt lat="48.21957" lon="5.06785">
        <ele>299.55</ele>
        <time>2024-12-23T21:32:18.359Z</time>
      </trkpt>
      <trkpt lat="48.2197" lon="5.06787">
        <ele>298.4</ele>
        <time>2024-12-23T21:32:22.320Z</time>
      </trkpt>
      <trkpt lat="48.22" lon="5.06777">
        <ele>297.37</ele>
        <time>2024-12-23T21:32:26.286Z</time>
      </trkpt>
      <trkpt lat="48.22026" lon="5.06764">
        <ele>296.52</ele>
        <time>2024-12-23T21:32:30.256Z</time>
      </trkpt>
      <trkpt lat="48.22037" lon="5.06736">
        <ele>295.95</ele>
        <time>2024-12-23T21:32:34.230Z</time>
      </trkpt>
      <trkpt lat="48.22047" lon="5.06695">
        <ele>295.45</ele>
        <time>2024-12-23T21:32:38.208Z</time>
      </trkpt>
      <trkpt lat="48.22053" lon="5.06663">
        <ele>295.14</ele>
        <time>2024-12-23T21:32:42.190Z</time>
      </trkpt>
      <trkpt lat="48.22059" lon="5.0663">
        <ele>294.92</ele>
        <time>2024-12-23T21:32:46.176Z</time>
      </trkpt>
      <trkpt lat="48.22065" lon="5.06598">
        <ele>294.76</ele>
        <time>2024-12-23T21:32:50.165Z</time>
      </trkpt>
      <trkpt lat="48.22067" lon="5.06562">
        <ele>294.79</ele>
        <time>2024-12-23T21:32:54.158Z</time>
      </trkpt>
      <trkpt lat="48.22065" lon="5.0653">
        <ele>294.85</ele>
        <time>2024-12-23T21:32:58.154Z</time>
      </trkpt>
      <trkpt lat="48.2208" lon="5.06541">
        <ele>294.83</ele>
        <time>2024-12-23T21:33:02.153Z</time>
      </trkpt>
      <trkpt lat="48.22095" lon="5.06551">
        <ele>294.99</ele>
        <time>2024-12-23T21:33:06.155Z</time>
      </trkpt>
      <trkpt lat="48.22101" lon="5.06564">
        <ele>295.13</ele>
        <time>2024-12-23T21:33:10.159Z</time>
      </trkpt>
      <trkpt lat="48.22102" lon="5.06572">
        <ele>295.29</ele>
        <time>2024-12-23T21:33:14.163Z</time>
      </trkpt>
      <trkpt lat="48.22102" lon="5.06573">
        <ele>295.49</ele>
        <time>2024-12-23T21:33:18.168Z</time>
      </trkpt>
      <trkpt lat="48.22101" lon="5.06564">
        <ele>295.13</ele>
        <time>2024-12-23T21:33:22.174Z</time>
      </trkpt>
      <trkpt lat="48.22095" lon="5.06551">
        <ele>294.99</ele>
        <time>2024-12-23T21:33:26.181Z</time>
      </trkpt>
      <trkpt lat="48.2208" lon="5.06541">
        <ele>296.11</ele>
        <time>2024-12-23T21:33:30.191Z</time>
      </trkpt>
      <trkpt lat="48.22065" lon="5.0653">
        <ele>294.85</ele>
        <time>2024-12-23T21:33:34.204Z</time>
      </trkpt>
      <trkpt lat="48.22067" lon="5.06562">
        <ele>294.79</ele>
        <time>2024-12-23T21:33:38.220Z</time>
      </trkpt>
      <trkpt lat="48.22065" lon="5.06598">
        <ele>294.76</ele>
        <time>2024-12-23T21:33:42.240Z</time>
      </trkpt>
      <trkpt lat="48.22059" lon="5.06631">
        <ele>296.78</ele>
        <time>2024-12-23T21:33:46.264Z</time>
      </trkpt>
      <trkpt lat="48.22053" lon="5.06663">
        <ele>296.89</ele>
        <time>2024-12-23T21:33:50.291Z</time>
      </trkpt>
      <trkpt lat="48.22047" lon="5.06695">
        <ele>295.45</ele>
        <time>2024-12-23T21:33:54.322Z</time>
      </trkpt>
      <trkpt lat="48.22056" lon="5.06726">
        <ele>297.06</ele>
        <time>2024-12-23T21:33:58.356Z</time>
      </trkpt>
      <trkpt lat="48.22065" lon="5.06757">
        <ele>297.14</ele>
        <time>2024-12-23T21:34:02.394Z</time>
      </trkpt>
      <trkpt lat="48.22093" lon="5.0677">
        <ele>297.34</ele>
        <time>2024-12-23T21:34:06.437Z</time>
      </trkpt>
      <trkpt lat="48.2212" lon="5.06783">
        <ele>297.63</ele>
        <time>2024-12-23T21:34:10.484Z</time>
      </trkpt>
      <trkpt lat="48.22125" lon="5.06798">
        <ele>297.75</ele>
        <time>2024-12-23T21:34:14.533Z</time>
      </trkpt>
      <trkpt lat="48.22124" lon="5.06831">
        <ele>297.8</ele>
        <time>2024-12-23T21:34:18.586Z</time>
      </trkpt>
      <trkpt lat="48.22123" lon="5.06865">
        <ele>297.82</ele>
        <time>2024-12-23T21:34:22.642Z</time>
      </trkpt>
      <trkpt lat="48.22122" lon="5.06889">
        <ele>297.84</ele>
        <time>2024-12-23T21:34:26.701Z</time>
      </trkpt>
      <trkpt lat="48.2212" lon="5.06914">
        <ele>297.83</ele>
        <time>2024-12-23T21:34:30.762Z</time>
      </trkpt>
      <trkpt lat="48.2212" lon="5.06914">
        <ele>297.9</ele>
        <time>2024-12-23T21:34:34.823Z</time>
      </trkpt>
      <trkpt lat="48.2212" lon="5.06943">
        <ele>297.94</ele>
        <time>2024-12-23T21:34:38.887Z</time>
      </trkpt>
      <trkpt lat="48.2212" lon="5.06972">
        <ele>297.98</ele>
        <time>2024-12-23T21:34:42.955Z</time>
      </trkpt>
      <trkpt lat="48.22115" lon="5.07011">
        <ele>297.99</ele>
        <time>2024-12-23T21:34:47.027Z</time>
      </trkpt>
      <trkpt lat="48.22109" lon="5.07049">
        <ele>298.18</ele>
        <time>2024-12-23T21:34:51.103Z</time>
      </trkpt>
      <trkpt lat="48.22104" lon="5.07088">
        <ele>298.34</ele>
        <time>2024-12-23T21:34:55.183Z</time>
      </trkpt>
      <trkpt lat="48.22098" lon="5.07127">
        <ele>298.43</ele>
        <time>2024-12-23T21:34:59.268Z</time>
      </trkpt>
      <trkpt lat="48.22093" lon="5.07165">
        <ele>298.55</ele>
        <time>2024-12-23T21:35:03.357Z</time>
      </trkpt>
      <trkpt lat="48.2209" lon="5.07207">
        <ele>298.71</ele>
        <time>2024-12-23T21:35:07.450Z</time>
      </trkpt>
      <trkpt lat="48.22088" lon="5.07249">
        <ele>298.8</ele>
        <time>2024-12-23T21:35:11.548Z</time>
      </trkpt>
      <trkpt lat="48.22093" lon="5.07274">
        <ele>298.86</ele>
        <time>2024-12-23T21:35:15.649Z</time>
      </trkpt>
      <trkpt lat="48.22101" lon="5.07304">
        <ele>298.86</ele>
        <time>2024-12-23T21:35:19.753Z</time>
      </trkpt>
      <trkpt lat="48.22111" lon="5.07326">
        <ele>298.86</ele>
        <time>2024-12-23T21:35:23.860Z</time>
      </trkpt>
      <trkpt lat="48.2212" lon="5.07347">
        <ele>298.89</ele>
        <time>2024-12-23T21:35:27.970Z</time>
      </trkpt>
      <trkpt lat="48.22135" lon="5.07374">
        <ele>298.88</ele>
        <time>2024-12-23T21:35:32.083Z</time>
      </trkpt>
      <trkpt lat="48.2215" lon="5.07401">
        <ele>298.82</ele>
        <time>2024-12-23T21:35:36.200Z</time>
      </trkpt>
      <trkpt lat="48.22171" lon="5.07432">
        <ele>298.75</ele>
        <time>2024-12-23T21:35:40.322Z</time>
      </trkpt>
      <trkpt lat="48.22192" lon="5.07463">
        <ele>298.59</ele>
        <time>2024-12-23T21:35:44.448Z</time>
      </trkpt>
      <trkpt lat="48.22213" lon="5.07493">
        <ele>298.17</ele>
        <time>2024-12-23T21:35:48.579Z</time>
      </trkpt>
      <trkpt lat="48.22227" lon="5.07528">
        <ele>297.61</ele>
        <time>2024-12-23T21:35:52.714Z</time>
      </trkpt>
      <trkpt lat="48.22241" lon="5.07563">
        <ele>296.97</ele>
        <time>2024-12-23T21:35:56.854Z</time>
      </trkpt>
      <trkpt lat="48.22256" lon="5.07598">
        <ele>296.37</ele>
        <time>2024-12-23T21:36:00.998Z</time>
      </trkpt>
      <trkpt lat="48.22272" lon="5.07623">
        <ele>295.72</ele>
        <time>2024-12-23T21:36:05.146Z</time>
      </trkpt>
      <trkpt lat="48.22289" lon="5.07647">
        <ele>295.04</ele>
        <time>2024-12-23T21:36:09.298Z</time>
      </trkpt>
      <trkpt lat="48.22305" lon="5.07671">
        <ele>294.2</ele>
        <time>2024-12-23T21:36:13.453Z</time>
      </trkpt>
      <trkpt lat="48.22314" lon="5.07691">
        <ele>293.24</ele>
        <time>2024-12-23T21:36:17.611Z</time>
      </trkpt>
      <trkpt lat="48.2232" lon="5.07712">
        <ele>292.19</ele>
        <time>2024-12-23T21:36:21.771Z</time>
      </trkpt>
      <trkpt lat="48.22319" lon="5.07737">
        <ele>291.16</ele>
        <time>2024-12-23T21:36:25.934Z</time>
      </trkpt>
      <trkpt lat="48.22318" lon="5.07761">
        <ele>290.06</ele>
        <time>2024-12-23T21:36:30.100Z</time>
      </trkpt>
      <trkpt lat="48.22309" lon="5.07802">
        <ele>288.91</ele>
        <time>2024-12-23T21:36:34.270Z</time>
      </trkpt>
      <trkpt lat="48.223" lon="5.07842">
        <ele>287.68</ele>
        <time>2024-12-23T21:36:38.445Z</time>
      </trkpt>
      <trkpt lat="48.22291" lon="5.07883">
        <ele>286.4</ele>
        <time>2024-12-23T21:36:42.624Z</time>
      </trkpt>
      <trkpt lat="48.22282" lon="5.07924">
        <ele>285.15</ele>
        <time>2024-12-23T21:36:46.808Z</time>
      </trkpt>
      <trkpt lat="48.22273" lon="5.07964">
        <ele>283.92</ele>
        <time>2024-12-23T21:36:50.996Z</time>
      </trkpt>
      <trkpt lat="48.22264" lon="5.08004">
        <ele>282.71</ele>
        <time>2024-12-23T21:36:55.189Z</time>
      </trkpt>
      <trkpt lat="48.22258" lon="5.08038">
        <ele>281.51</ele>
        <time>2024-12-23T21:36:59.386Z</time>
      </trkpt>
      <trkpt lat="48.22251" lon="5.08073">
        <ele>280.32</ele>
        <time>2024-12-23T21:37:03.587Z</time>
      </trkpt>
      <trkpt lat="48.22249" lon="5.08103">
        <ele>279.06</ele>
        <time>2024-12-23T21:37:07.791Z</time>
      </trkpt>
      <trkpt lat="48.22247" lon="5.08133">
        <ele>277.87</ele>
        <time>2024-12-23T21:37:11.998Z</time>
      </trkpt>
      <trkpt lat="48.22246" lon="5.08171">
        <ele>276.68</ele>
        <time>2024-12-23T21:37:16.209Z</time>
      </trkpt>
      <trkpt lat="48.22245" lon="5.08208">
        <ele>275.52</ele>
        <time>2024-12-23T21:37:20.424Z</time>
      </trkpt>
      <trkpt lat="48.22244" lon="5.08246">
        <ele>274.38</ele>
        <time>2024-12-23T21:37:24.643Z</time>
      </trkpt>
      <trkpt lat="48.22244" lon="5.08284">
        <ele>273.29</ele>
        <time>2024-12-23T21:37:28.866Z</time>
      </trkpt>
      <trkpt lat="48.22243" lon="5.08322">
        <ele>272.26</ele>
        <time>2024-12-23T21:37:33.093Z</time>
      </trkpt>
      <trkpt lat="48.2224" lon="5.08347">
        <ele>271.29</ele>
        <time>2024-12-23T21:37:37.323Z</time>
      </trkpt>
      <trkpt lat="48.22236" lon="5.08373">
        <ele>270.32</ele>
        <time>2024-12-23T21:37:41.556Z</time>
      </trkpt>
      <trkpt lat="48.22231" lon="5.08404">
        <ele>269.45</ele>
        <time>2024-12-23T21:37:45.792Z</time>
      </trkpt>
      <trkpt lat="48.22226" lon="5.08435">
        <ele>268.71</ele>
        <time>2024-12-23T21:37:50.032Z</time>
      </trkpt>
      <trkpt lat="48.22212" lon="5.0847">
        <ele>268</ele>
        <time>2024-12-23T21:37:54.276Z</time>
      </trkpt>
      <trkpt lat="48.22198" lon="5.08504">
        <ele>267.37</ele>
        <time>2024-12-23T21:37:58.524Z</time>
      </trkpt>
      <trkpt lat="48.22185" lon="5.08538">
        <ele>266.8</ele>
        <time>2024-12-23T21:38:02.777Z</time>
      </trkpt>
      <trkpt lat="48.22176" lon="5.08577">
        <ele>266.34</ele>
        <time>2024-12-23T21:38:07.034Z</time>
      </trkpt>
      <trkpt lat="48.22176" lon="5.08618">
        <ele>265.92</ele>
        <time>2024-12-23T21:38:11.295Z</time>
      </trkpt>
      <trkpt lat="48.22181" lon="5.08652">
        <ele>265.51</ele>
        <time>2024-12-23T21:38:15.560Z</time>
      </trkpt>
      <trkpt lat="48.22191" lon="5.08681">
        <ele>265.07</ele>
        <time>2024-12-23T21:38:19.829Z</time>
      </trkpt>
      <trkpt lat="48.22202" lon="5.08709">
        <ele>264.65</ele>
        <time>2024-12-23T21:38:24.101Z</time>
      </trkpt>
      <trkpt lat="48.22213" lon="5.08738">
        <ele>264.31</ele>
        <time>2024-12-23T21:38:28.377Z</time>
      </trkpt>
      <trkpt lat="48.22222" lon="5.08761">
        <ele>264.02</ele>
        <time>2024-12-23T21:38:32.656Z</time>
      </trkpt>
      <trkpt lat="48.22232" lon="5.08785">
        <ele>263.76</ele>
        <time>2024-12-23T21:38:36.938Z</time>
      </trkpt>
      <trkpt lat="48.22252" lon="5.08815">
        <ele>263.53</ele>
        <time>2024-12-23T21:38:41.224Z</time>
      </trkpt>
      <trkpt lat="48.22272" lon="5.08845">
        <ele>263.18</ele>
        <time>2024-12-23T21:38:45.515Z</time>
      </trkpt>
      <trkpt lat="48.22291" lon="5.08875">
        <ele>262.92</ele>
        <time>2024-12-23T21:38:49.810Z</time>
      </trkpt>
      <trkpt lat="48.22311" lon="5.08905">
        <ele>262.69</ele>
        <time>2024-12-23T21:38:54.110Z</time>
      </trkpt>
      <trkpt lat="48.22331" lon="5.08935">
        <ele>262.41</ele>
        <time>2024-12-23T21:38:58.414Z</time>
      </trkpt>
      <trkpt lat="48.22347" lon="5.0896">
        <ele>262.12</ele>
        <time>2024-12-23T21:39:02.722Z</time>
      </trkpt>
      <trkpt lat="48.22363" lon="5.08985">
        <ele>261.9</ele>
        <time>2024-12-23T21:39:07.033Z</time>
      </trkpt>
      <trkpt lat="48.22379" lon="5.09015">
        <ele>261.71</ele>
        <time>2024-12-23T21:39:11.349Z</time>
      </trkpt>
      <trkpt lat="48.22395" lon="5.09045">
        <ele>261.56</ele>
        <time>2024-12-23T21:39:15.669Z</time>
      </trkpt>
      <trkpt lat="48.22408" lon="5.09076">
        <ele>261.33</ele>
        <time>2024-12-23T21:39:19.993Z</time>
      </trkpt>
      <trkpt lat="48.22421" lon="5.09107">
        <ele>261.09</ele>
        <time>2024-12-23T21:39:24.320Z</time>
      </trkpt>
      <trkpt lat="48.2243" lon="5.09136">
        <ele>260.91</ele>
        <time>2024-12-23T21:39:28.651Z</time>
      </trkpt>
      <trkpt lat="48.22439" lon="5.09166">
        <ele>260.76</ele>
        <time>2024-12-23T21:39:32.985Z</time>
      </trkpt>
      <trkpt lat="48.22449" lon="5.09195">
        <ele>260.57</ele>
        <time>2024-12-23T21:39:37.323Z</time>
      </trkpt>
      <trkpt lat="48.22458" lon="5.0923">
        <ele>260.33</ele>
        <time>2024-12-23T21:39:41.665Z</time>
      </trkpt>
      <trkpt lat="48.22468" lon="5.09265">
        <ele>260.04</ele>
        <time>2024-12-23T21:39:46.011Z</time>
      </trkpt>
      <trkpt lat="48.22477" lon="5.09301">
        <ele>259.76</ele>
        <time>2024-12-23T21:39:50.361Z</time>
      </trkpt>
      <trkpt lat="48.22487" lon="5.09336">
        <ele>259.43</ele>
        <time>2024-12-23T21:39:54.715Z</time>
      </trkpt>
      <trkpt lat="48.22496" lon="5.09371">
        <ele>259.08</ele>
        <time>2024-12-23T21:39:59.073Z</time>
      </trkpt>
      <trkpt lat="48.22505" lon="5.09399">
        <ele>258.69</ele>
        <time>2024-12-23T21:40:03.434Z</time>
      </trkpt>
      <trkpt lat="48.2252" lon="5.09435">
        <ele>258.28</ele>
        <time>2024-12-23T21:40:07.800Z</time>
      </trkpt>
      <trkpt lat="48.2253" lon="5.09453">
        <ele>257.89</ele>
        <time>2024-12-23T21:40:12.169Z</time>
      </trkpt>
      <trkpt lat="48.22541" lon="5.09472">
        <ele>257.45</ele>
        <time>2024-12-23T21:40:16.540Z</time>
      </trkpt>
      <trkpt lat="48.22541" lon="5.09472">
        <ele>257.04</ele>
        <time>2024-12-23T21:40:20.911Z</time>
      </trkpt>
      <trkpt lat="48.22547" lon="5.09491">
        <ele>256.55</ele>
        <time>2024-12-23T21:40:25.285Z</time>
      </trkpt>
      <trkpt lat="48.22553" lon="5.09525">
        <ele>256.01</ele>
        <time>2024-12-23T21:40:29.662Z</time>
      </trkpt>
      <trkpt lat="48.22558" lon="5.0956">
        <ele>255.53</ele>
        <time>2024-12-23T21:40:34.043Z</time>
      </trkpt>
      <trkpt lat="48.22573" lon="5.09599">
        <ele>255.05</ele>
        <time>2024-12-23T21:40:38.429Z</time>
      </trkpt>
      <trkpt lat="48.22587" lon="5.09638">
        <ele>254.61</ele>
        <time>2024-12-23T21:40:42.820Z</time>
      </trkpt>
      <trkpt lat="48.22601" lon="5.09677">
        <ele>254.22</ele>
        <time>2024-12-23T21:40:47.215Z</time>
      </trkpt>
      <trkpt lat="48.22616" lon="5.09716">
        <ele>253.77</ele>
        <time>2024-12-23T21:40:51.615Z</time>
      </trkpt>
      <trkpt lat="48.2263" lon="5.09755">
        <ele>253.36</ele>
        <time>2024-12-23T21:40:56.020Z</time>
      </trkpt>
      <trkpt lat="48.22644" lon="5.09794">
        <ele>252.97</ele>
        <time>2024-12-23T21:41:00.430Z</time>
      </trkpt>
      <trkpt lat="48.22652" lon="5.09824">
        <ele>252.6</ele>
        <time>2024-12-23T21:41:04.843Z</time>
      </trkpt>
      <trkpt lat="48.22659" lon="5.09854">
        <ele>252.23</ele>
        <time>2024-12-23T21:41:09.260Z</time>
      </trkpt>
      <trkpt lat="48.22668" lon="5.09896">
        <ele>251.84</ele>
        <time>2024-12-23T21:41:13.681Z</time>
      </trkpt>
      <trkpt lat="48.22676" lon="5.09936">
        <ele>251.49</ele>
        <time>2024-12-23T21:41:18.107Z</time>
      </trkpt>
      <trkpt lat="48.22676" lon="5.09937">
        <ele>251.14</ele>
        <time>2024-12-23T21:41:22.533Z</time>
      </trkpt>
      <trkpt lat="48.22676" lon="5.09937">
        <ele>250.81</ele>
        <time>2024-12-23T21:41:26.959Z</time>
      </trkpt>
      <trkpt lat="48.22676" lon="5.09937">
        <ele>251.14</ele>
        <time>2024-12-23T21:41:31.385Z</time>
      </trkpt>
      <trkpt lat="48.22683" lon="5.09979">
        <ele>250.09</ele>
        <time>2024-12-23T21:41:35.816Z</time>
      </trkpt>
      <trkpt lat="48.22689" lon="5.10021">
        <ele>249.69</ele>
        <time>2024-12-23T21:41:40.251Z</time>
      </trkpt>
      <trkpt lat="48.22699" lon="5.10048">
        <ele>249.36</ele>
        <time>2024-12-23T21:41:44.689Z</time>
      </trkpt>
      <trkpt lat="48.22708" lon="5.10075">
        <ele>249.03</ele>
        <time>2024-12-23T21:41:49.131Z</time>
      </trkpt>
      <trkpt lat="48.22723" lon="5.10111">
        <ele>248.68</ele>
        <time>2024-12-23T21:41:53.577Z</time>
      </trkpt>
      <trkpt lat="48.22741" lon="5.10146">
        <ele>248.3</ele>
        <time>2024-12-23T21:41:58.028Z</time>
      </trkpt>
      <trkpt lat="48.22759" lon="5.10181">
        <ele>247.91</ele>
        <time>2024-12-23T21:42:02.484Z</time>
      </trkpt>
      <trkpt lat="48.22777" lon="5.10216">
        <ele>247.59</ele>
        <time>2024-12-23T21:42:06.944Z</time>
      </trkpt>
      <trkpt lat="48.22795" lon="5.10251">
        <ele>247.25</ele>
        <time>2024-12-23T21:42:11.409Z</time>
      </trkpt>
      <trkpt lat="48.22813" lon="5.10285">
        <ele>246.88</ele>
        <time>2024-12-23T21:42:15.879Z</time>
      </trkpt>
      <trkpt lat="48.22831" lon="5.1032">
        <ele>246.47</ele>
        <time>2024-12-23T21:42:20.353Z</time>
      </trkpt>
      <trkpt lat="48.22848" lon="5.10355">
        <ele>246.06</ele>
        <time>2024-12-23T21:42:24.832Z</time>
      </trkpt>
      <trkpt lat="48.22866" lon="5.1039">
        <ele>245.55</ele>
        <time>2024-12-23T21:42:29.316Z</time>
      </trkpt>
      <trkpt lat="48.22884" lon="5.10425">
        <ele>245.06</ele>
        <time>2024-12-23T21:42:33.805Z</time>
      </trkpt>
      <trkpt lat="48.22902" lon="5.1046">
        <ele>244.57</ele>
        <time>2024-12-23T21:42:38.298Z</time>
      </trkpt>
      <trkpt lat="48.2292" lon="5.10495">
        <ele>244.13</ele>
        <time>2024-12-23T21:42:42.796Z</time>
      </trkpt>
      <trkpt lat="48.22938" lon="5.1053">
        <ele>243.74</ele>
        <time>2024-12-23T21:42:47.299Z</time>
      </trkpt>
      <trkpt lat="48.22955" lon="5.10564">
        <ele>243.32</ele>
        <time>2024-12-23T21:42:51.806Z</time>
      </trkpt>
      <trkpt lat="48.22973" lon="5.10602">
        <ele>242.92</ele>
        <time>2024-12-23T21:42:56.318Z</time>
      </trkpt>
      <trkpt lat="48.22991" lon="5.10639">
        <ele>242.54</ele>
        <time>2024-12-23T21:43:00.835Z</time>
      </trkpt>
      <trkpt lat="48.23009" lon="5.10677">
        <ele>242.18</ele>
        <time>2024-12-23T21:43:05.357Z</time>
      </trkpt>
      <trkpt lat="48.23027" lon="5.10715">
        <ele>241.8</ele>
        <time>2024-12-23T21:43:09.884Z</time>
      </trkpt>
      <trkpt lat="48.23045" lon="5.10753">
        <ele>241.35</ele>
        <time>2024-12-23T21:43:14.416Z</time>
      </trkpt>
      <trkpt lat="48.23063" lon="5.1079">
        <ele>240.94</ele>
        <time>2024-12-23T21:43:18.953Z</time>
      </trkpt>
      <trkpt lat="48.23081" lon="5.10828">
        <ele>240.59</ele>
        <time>2024-12-23T21:43:23.495Z</time>
      </trkpt>
      <trkpt lat="48.23098" lon="5.10866">
        <ele>240.3</ele>
        <time>2024-12-23T21:43:28.042Z</time>
      </trkpt>
      <trkpt lat="48.23116" lon="5.10903">
        <ele>240.01</ele>
        <time>2024-12-23T21:43:32.594Z</time>
      </trkpt>
      <trkpt lat="48.23129" lon="5.10939">
        <ele>239.75</ele>
        <time>2024-12-23T21:43:37.150Z</time>
      </trkpt>
      <trkpt lat="48.23138" lon="5.10969">
        <ele>239.6</ele>
        <time>2024-12-23T21:43:41.710Z</time>
      </trkpt>
      <trkpt lat="48.2314" lon="5.11006">
        <ele>239.51</ele>
        <time>2024-12-23T21:43:46.274Z</time>
      </trkpt>
      <trkpt lat="48.2314" lon="5.11046">
        <ele>239.39</ele>
        <time>2024-12-23T21:43:50.842Z</time>
      </trkpt>
      <trkpt lat="48.2314" lon="5.11086">
        <ele>239.23</ele>
        <time>2024-12-23T21:43:55.414Z</time>
      </trkpt>
      <trkpt lat="48.2314" lon="5.11126">
        <ele>239.17</ele>
        <time>2024-12-23T21:43:59.990Z</time>
      </trkpt>
      <trkpt lat="48.23138" lon="5.11154">
        <ele>239.22</ele>
        <time>2024-12-23T21:44:04.569Z</time>
      </trkpt>
      <trkpt lat="48.23127" lon="5.11182">
        <ele>239.37</ele>
        <time>2024-12-23T21:44:09.152Z</time>
      </trkpt>
      <trkpt lat="48.23114" lon="5.11204">
        <ele>239.58</ele>
        <time>2024-12-23T21:44:13.738Z</time>
      </trkpt>
      <trkpt lat="48.23101" lon="5.11227">
        <ele>239.88</ele>
        <time>2024-12-23T21:44:18.327Z</time>
      </trkpt>
      <trkpt lat="48.23075" lon="5.1125">
        <ele>240.35</ele>
        <time>2024-12-23T21:44:22.921Z</time>
      </trkpt>
      <trkpt lat="48.2305" lon="5.11273">
        <ele>240.82</ele>
        <time>2024-12-23T21:44:27.520Z</time>
      </trkpt>
      <trkpt lat="48.23024" lon="5.11297">
        <ele>241.28</ele>
        <time>2024-12-23T21:44:32.124Z</time>
      </trkpt>
      <trkpt lat="48.22998" lon="5.1132">
        <ele>241.84</ele>
        <time>2024-12-23T21:44:36.732Z</time>
      </trkpt>
      <trkpt lat="48.22972" lon="5.11343">
        <ele>242.5</ele>
        <time>2024-12-23T21:44:41.345Z</time>
      </trkpt>
      <trkpt lat="48.22947" lon="5.11366">
        <ele>243.19</ele>
        <time>2024-12-23T21:44:45.963Z</time>
      </trkpt>
      <trkpt lat="48.22932" lon="5.11388">
        <ele>243.84</ele>
        <time>2024-12-23T21:44:50.584Z</time>
      </trkpt>
      <trkpt lat="48.22927" lon="5.11414">
        <ele>244.48</ele>
        <time>2024-12-23T21:44:55.208Z</time>
      </trkpt>
      <trkpt lat="48.22934" lon="5.11448">
        <ele>245.07</ele>
        <time>2024-12-23T21:44:59.836Z</time>
      </trkpt>
      <trkpt lat="48.22949" lon="5.11488">
        <ele>245.59</ele>
        <time>2024-12-23T21:45:04.469Z</time>
      </trkpt>
      <trkpt lat="48.22964" lon="5.11527">
        <ele>246.13</ele>
        <time>2024-12-23T21:45:09.107Z</time>
      </trkpt>
      <trkpt lat="48.22979" lon="5.11567">
        <ele>246.77</ele>
        <time>2024-12-23T21:45:13.750Z</time>
      </trkpt>
      <trkpt lat="48.22994" lon="5.11607">
        <ele>247.39</ele>
        <time>2024-12-23T21:45:18.398Z</time>
      </trkpt>
      <trkpt lat="48.23009" lon="5.11647">
        <ele>247.95</ele>
        <time>2024-12-23T21:45:23.050Z</time>
      </trkpt>
      <trkpt lat="48.23024" lon="5.11686">
        <ele>248.37</ele>
        <time>2024-12-23T21:45:27.707Z</time>
      </trkpt>
      <trkpt lat="48.23036" lon="5.11726">
        <ele>248.84</ele>
        <time>2024-12-23T21:45:32.369Z</time>
      </trkpt>
      <trkpt lat="48.23048" lon="5.11765">
        <ele>249.24</ele>
        <time>2024-12-23T21:45:37.036Z</time>
      </trkpt>
      <trkpt lat="48.2306" lon="5.11804">
        <ele>249.53</ele>
        <time>2024-12-23T21:45:41.707Z</time>
      </trkpt>
      <trkpt lat="48.23067" lon="5.11828">
        <ele>249.77</ele>
        <time>2024-12-23T21:45:46.381Z</time>
      </trkpt>
      <trkpt lat="48.23073" lon="5.11851">
        <ele>249.87</ele>
        <time>2024-12-23T21:45:51.058Z</time>
      </trkpt>
      <trkpt lat="48.23077" lon="5.11864">
        <ele>249.96</ele>
        <time>2024-12-23T21:45:55.736Z</time>
      </trkpt>
      <trkpt lat="48.23077" lon="5.11864">
        <ele>249.98</ele>
        <time>2024-12-23T21:46:00.414Z</time>
      </trkpt>
      <trkpt lat="48.23092" lon="5.11892">
        <ele>249.95</ele>
        <time>2024-12-23T21:46:05.096Z</time>
      </trkpt>
      <trkpt lat="48.23113" lon="5.11924">
        <ele>249.87</ele>
        <time>2024-12-23T21:46:09.783Z</time>
      </trkpt>
      <trkpt lat="48.23133" lon="5.11956">
        <ele>249.72</ele>
        <time>2024-12-23T21:46:14.475Z</time>
      </trkpt>
      <trkpt lat="48.23154" lon="5.11982">
        <ele>249.44</ele>
        <time>2024-12-23T21:46:19.171Z</time>
      </trkpt>
      <trkpt lat="48.23174" lon="5.12008">
        <ele>249.1</ele>
        <time>2024-12-23T21:46:23.871Z</time>
      </trkpt>
      <trkpt lat="48.232" lon="5.12027">
        <ele>248.74</ele>
        <time>2024-12-23T21:46:28.576Z</time>
      </trkpt>
      <trkpt lat="48.23228" lon="5.12036">
        <ele>248.35</ele>
        <time>2024-12-23T21:46:33.285Z</time>
      </trkpt>
      <trkpt lat="48.23255" lon="5.12037">
        <ele>247.87</ele>
        <time>2024-12-23T21:46:37.999Z</time>
      </trkpt>
      <trkpt lat="48.23282" lon="5.12038">
        <ele>247.3</ele>
        <time>2024-12-23T21:46:42.717Z</time>
      </trkpt>
      <trkpt lat="48.2331" lon="5.12039">
        <ele>246.66</ele>
        <time>2024-12-23T21:46:47.439Z</time>
      </trkpt>
      <trkpt lat="48.23337" lon="5.1204">
        <ele>246.03</ele>
        <time>2024-12-23T21:46:52.166Z</time>
      </trkpt>
      <trkpt lat="48.23367" lon="5.12048">
        <ele>245.4</ele>
        <time>2024-12-23T21:46:56.898Z</time>
      </trkpt>
      <trkpt lat="48.23397" lon="5.12055">
        <ele>244.74</ele>
        <time>2024-12-23T21:47:01.635Z</time>
      </trkpt>
      <trkpt lat="48.23427" lon="5.12063">
        <ele>244.11</ele>
        <time>2024-12-23T21:47:06.376Z</time>
      </trkpt>
      <trkpt lat="48.23457" lon="5.1207">
        <ele>243.56</ele>
        <time>2024-12-23T21:47:11.122Z</time>
      </trkpt>
      <trkpt lat="48.23484" lon="5.12081">
        <ele>243</ele>
        <time>2024-12-23T21:47:15.873Z</time>
      </trkpt>
      <trkpt lat="48.2351" lon="5.12091">
        <ele>242.39</ele>
        <time>2024-12-23T21:47:20.628Z</time>
      </trkpt>
      <trkpt lat="48.23511" lon="5.12091">
        <ele>241.83</ele>
        <time>2024-12-23T21:47:25.383Z</time>
      </trkpt>
      <trkpt lat="48.23511" lon="5.12091">
        <ele>241.28</ele>
        <time>2024-12-23T21:47:30.138Z</time>
      </trkpt>
      <trkpt lat="48.23511" lon="5.12091">
        <ele>240.74</ele>
        <time>2024-12-23T21:47:34.893Z</time>
      </trkpt>
      <trkpt lat="48.23524" lon="5.12096">
        <ele>240.18</ele>
        <time>2024-12-23T21:47:39.650Z</time>
      </trkpt>
      <trkpt lat="48.23552" lon="5.12116">
        <ele>239.61</ele>
        <time>2024-12-23T21:47:44.412Z</time>
      </trkpt>
      <trkpt lat="48.2358" lon="5.12137">
        <ele>239.07</ele>
        <time>2024-12-23T21:47:49.179Z</time>
      </trkpt>
      <trkpt lat="48.23601" lon="5.12154">
        <ele>238.61</ele>
        <time>2024-12-23T21:47:53.950Z</time>
      </trkpt>
      <trkpt lat="48.23622" lon="5.12171">
        <ele>238.09</ele>
        <time>2024-12-23T21:47:58.725Z</time>
      </trkpt>
      <trkpt lat="48.23642" lon="5.12197">
        <ele>237.58</ele>
        <time>2024-12-23T21:48:03.504Z</time>
      </trkpt>
      <trkpt lat="48.23648" lon="5.1222">
        <ele>237.1</ele>
        <time>2024-12-23T21:48:08.286Z</time>
      </trkpt>
      <trkpt lat="48.2365" lon="5.1224">
        <ele>236.62</ele>
        <time>2024-12-23T21:48:13.070Z</time>
      </trkpt>
      <trkpt lat="48.2365" lon="5.12269">
        <ele>236.11</ele>
        <time>2024-12-23T21:48:17.857Z</time>
      </trkpt>
      <trkpt lat="48.2365" lon="5.12298">
        <ele>235.65</ele>
        <time>2024-12-23T21:48:22.647Z</time>
      </trkpt>
      <trkpt lat="48.23649" lon="5.12327">
        <ele>235.23</ele>
        <time>2024-12-23T21:48:27.440Z</time>
      </trkpt>
      <trkpt lat="48.23648" lon="5.12356">
        <ele>234.8</ele>
        <time>2024-12-23T21:48:32.236Z</time>
      </trkpt>
      <trkpt lat="48.23653" lon="5.12383">
        <ele>234.36</ele>
        <time>2024-12-23T21:48:37.035Z</time>
      </trkpt>
      <trkpt lat="48.23653" lon="5.12383">
        <ele>233.93</ele>
        <time>2024-12-23T21:48:41.834Z</time>
      </trkpt>
      <trkpt lat="48.23655" lon="5.12398">
        <ele>233.47</ele>
        <time>2024-12-23T21:48:46.635Z</time>
      </trkpt>
      <trkpt lat="48.23655" lon="5.12398">
        <ele>233.04</ele>
        <time>2024-12-23T21:48:51.436Z</time>
      </trkpt>
      <trkpt lat="48.2366" lon="5.12434">
        <ele>232.6</ele>
        <time>2024-12-23T21:48:56.241Z</time>
      </trkpt>
      <trkpt lat="48.23665" lon="5.12469">
        <ele>232.11</ele>
        <time>2024-12-23T21:49:01.050Z</time>
      </trkpt>
      <trkpt lat="48.2367" lon="5.12504">
        <ele>231.62</ele>
        <time>2024-12-23T21:49:05.863Z</time>
      </trkpt>
      <trkpt lat="48.23678" lon="5.12519">
        <ele>231.18</ele>
        <time>2024-12-23T21:49:10.678Z</time>
      </trkpt>
      <trkpt lat="48.23693" lon="5.12536">
        <ele>230.77</ele>
        <time>2024-12-23T21:49:15.496Z</time>
      </trkpt>
      <trkpt lat="48.23717" lon="5.12549">
        <ele>230.34</ele>
        <time>2024-12-23T21:49:20.318Z</time>
      </trkpt>
      <trkpt lat="48.23744" lon="5.12561">
        <ele>229.94</ele>
        <time>2024-12-23T21:49:25.144Z</time>
      </trkpt>
      <trkpt lat="48.23772" lon="5.12574">
        <ele>229.57</ele>
        <time>2024-12-23T21:49:29.975Z</time>
      </trkpt>
      <trkpt lat="48.238" lon="5.12586">
        <ele>229.28</ele>
        <time>2024-12-23T21:49:34.811Z</time>
      </trkpt>
      <trkpt lat="48.23827" lon="5.12599">
        <ele>229.07</ele>
        <time>2024-12-23T21:49:39.651Z</time>
      </trkpt>
      <trkpt lat="48.23855" lon="5.12612">
        <ele>228.74</ele>
        <time>2024-12-23T21:49:44.496Z</time>
      </trkpt>
      <trkpt lat="48.23882" lon="5.12624">
        <ele>228.44</ele>
        <time>2024-12-23T21:49:49.345Z</time>
      </trkpt>
      <trkpt lat="48.2391" lon="5.12637">
        <ele>228.16</ele>
        <time>2024-12-23T21:49:54.199Z</time>
      </trkpt>
      <trkpt lat="48.23933" lon="5.12642">
        <ele>227.95</ele>
        <time>2024-12-23T21:49:59.057Z</time>
      </trkpt>
      <trkpt lat="48.23955" lon="5.12647">
        <ele>227.82</ele>
        <time>2024-12-23T21:50:03.918Z</time>
      </trkpt>
      <trkpt lat="48.23953" lon="5.12665">
        <ele>227.65</ele>
        <time>2024-12-23T21:50:08.781Z</time>
      </trkpt>
      <trkpt lat="48.23951" lon="5.12688">
        <ele>227.49</ele>
        <time>2024-12-23T21:50:13.647Z</time>
      </trkpt>
      <trkpt lat="48.23949" lon="5.12712">
        <ele>227.39</ele>
        <time>2024-12-23T21:50:18.515Z</time>
      </trkpt>
      <trkpt lat="48.23942" lon="5.12757">
        <ele>227.43</ele>
        <time>2024-12-23T21:50:23.388Z</time>
      </trkpt>
      <trkpt lat="48.23936" lon="5.12802">
        <ele>227.62</ele>
        <time>2024-12-23T21:50:28.266Z</time>
      </trkpt>
      <trkpt lat="48.23929" lon="5.12847">
        <ele>227.87</ele>
        <time>2024-12-23T21:50:33.149Z</time>
      </trkpt>
      <trkpt lat="48.23923" lon="5.12892">
        <ele>227.97</ele>
        <time>2024-12-23T21:50:38.037Z</time>
      </trkpt>
      <trkpt lat="48.23916" lon="5.12938">
        <ele>228.12</ele>
        <time>2024-12-23T21:50:42.930Z</time>
      </trkpt>
      <trkpt lat="48.2391" lon="5.12982">
        <ele>228.45</ele>
        <time>2024-12-23T21:50:47.828Z</time>
      </trkpt>
      <trkpt lat="48.2391" lon="5.12986">
        <ele>228.73</ele>
        <time>2024-12-23T21:50:52.726Z</time>
      </trkpt>
      <trkpt lat="48.23908" lon="5.13006">
        <ele>229.05</ele>
        <time>2024-12-23T21:50:57.626Z</time>
      </trkpt>
      <trkpt lat="48.23906" lon="5.13014">
        <ele>229.39</ele>
        <time>2024-12-23T21:51:02.527Z</time>
      </trkpt>
      <trkpt lat="48.23901" lon="5.13049">
        <ele>229.83</ele>
        <time>2024-12-23T21:51:07.432Z</time>
      </trkpt>
      <trkpt lat="48.23901" lon="5.13053">
        <ele>230.23</ele>
        <time>2024-12-23T21:51:12.338Z</time>
      </trkpt>
      <trkpt lat="48.23901" lon="5.13053">
        <ele>230.63</ele>
        <time>2024-12-23T21:51:17.244Z</time>
      </trkpt>
      <trkpt lat="48.23897" lon="5.13094">
        <ele>231.06</ele>
        <time>2024-12-23T21:51:22.154Z</time>
      </trkpt>
      <trkpt lat="48.23893" lon="5.13134">
        <ele>231.53</ele>
        <time>2024-12-23T21:51:27.069Z</time>
      </trkpt>
      <trkpt lat="48.23891" lon="5.13175">
        <ele>232</ele>
        <time>2024-12-23T21:51:31.988Z</time>
      </trkpt>
      <trkpt lat="48.2389" lon="5.13215">
        <ele>232.49</ele>
        <time>2024-12-23T21:51:36.911Z</time>
      </trkpt>
      <trkpt lat="48.23888" lon="5.13255">
        <ele>232.94</ele>
        <time>2024-12-23T21:51:41.838Z</time>
      </trkpt>
      <trkpt lat="48.23886" lon="5.13295">
        <ele>233.27</ele>
        <time>2024-12-23T21:51:46.770Z</time>
      </trkpt>
      <trkpt lat="48.23889" lon="5.13319">
        <ele>233.64</ele>
        <time>2024-12-23T21:51:51.704Z</time>
      </trkpt>
      <trkpt lat="48.23899" lon="5.13359">
        <ele>234.01</ele>
        <time>2024-12-23T21:51:56.643Z</time>
      </trkpt>
      <trkpt lat="48.2391" lon="5.13398">
        <ele>234.38</ele>
        <time>2024-12-23T21:52:01.586Z</time>
      </trkpt>
      <trkpt lat="48.2391" lon="5.13398">
        <ele>234.66</ele>
        <time>2024-12-23T21:52:06.529Z</time>
      </trkpt>
      <trkpt lat="48.23918" lon="5.13434">
        <ele>234.92</ele>
        <time>2024-12-23T21:52:11.476Z</time>
      </trkpt>
      <trkpt lat="48.23926" lon="5.13469">
        <ele>235.14</ele>
        <time>2024-12-23T21:52:16.427Z</time>
      </trkpt>
      <trkpt lat="48.23934" lon="5.13504">
        <ele>235.3</ele>
        <time>2024-12-23T21:52:21.382Z</time>
      </trkpt>
      <trkpt lat="48.23936" lon="5.13521">
        <ele>235.47</ele>
        <time>2024-12-23T21:52:26.339Z</time>
      </trkpt>
      <trkpt lat="48.23931" lon="5.13538">
        <ele>235.67</ele>
        <time>2024-12-23T21:52:31.298Z</time>
      </trkpt>
      <trkpt lat="48.23912" lon="5.1357">
        <ele>235.83</ele>
        <time>2024-12-23T21:52:36.262Z</time>
      </trkpt>
      <trkpt lat="48.23899" lon="5.13585">
        <ele>236.04</ele>
        <time>2024-12-23T21:52:41.228Z</time>
      </trkpt>
      <trkpt lat="48.23884" lon="5.13594">
        <ele>236.25</ele>
        <time>2024-12-23T21:52:46.197Z</time>
      </trkpt>
      <trkpt lat="48.23855" lon="5.13607">
        <ele>236.49</ele>
        <time>2024-12-23T21:52:51.171Z</time>
      </trkpt>
      <trkpt lat="48.23826" lon="5.13619">
        <ele>236.58</ele>
        <time>2024-12-23T21:52:56.150Z</time>
      </trkpt>
      <trkpt lat="48.23811" lon="5.13634">
        <ele>236.7</ele>
        <time>2024-12-23T21:53:01.132Z</time>
      </trkpt>
      <trkpt lat="48.23801" lon="5.13654">
        <ele>236.85</ele>
        <time>2024-12-23T21:53:06.116Z</time>
      </trkpt>
      <trkpt lat="48.2379" lon="5.13673">
        <ele>237.04</ele>
        <time>2024-12-23T21:53:11.103Z</time>
      </trkpt>
      <trkpt lat="48.23777" lon="5.1369">
        <ele>237.26</ele>
        <time>2024-12-23T21:53:16.093Z</time>
      </trkpt>
      <trkpt lat="48.23758" lon="5.13705">
        <ele>237.47</ele>
        <time>2024-12-23T21:53:21.086Z</time>
      </trkpt>
      <trkpt lat="48.23738" lon="5.1372">
        <ele>237.7</ele>
        <time>2024-12-23T21:53:26.083Z</time>
      </trkpt>
      <trkpt lat="48.23717" lon="5.13732">
        <ele>237.97</ele>
        <time>2024-12-23T21:53:31.083Z</time>
      </trkpt>
      <trkpt lat="48.23695" lon="5.13744">
        <ele>238.26</ele>
        <time>2024-12-23T21:53:36.087Z</time>
      </trkpt>
      <trkpt lat="48.23679" lon="5.1375">
        <ele>238.53</ele>
        <time>2024-12-23T21:53:41.094Z</time>
      </trkpt>
      <trkpt lat="48.23663" lon="5.13757">
        <ele>238.84</ele>
        <time>2024-12-23T21:53:46.103Z</time>
      </trkpt>
      <trkpt lat="48.23642" lon="5.13759">
        <ele>239.25</ele>
        <time>2024-12-23T21:53:51.116Z</time>
      </trkpt>
      <trkpt lat="48.2362" lon="5.13752">
        <ele>239.69</ele>
        <time>2024-12-23T21:53:56.132Z</time>
      </trkpt>
      <trkpt lat="48.23592" lon="5.13737">
        <ele>240.12</ele>
        <time>2024-12-23T21:54:01.153Z</time>
      </trkpt>
      <trkpt lat="48.23565" lon="5.13722">
        <ele>240.5</ele>
        <time>2024-12-23T21:54:06.179Z</time>
      </trkpt>
      <trkpt lat="48.23541" lon="5.13716">
        <ele>240.89</ele>
        <time>2024-12-23T21:54:11.209Z</time>
      </trkpt>
      <trkpt lat="48.23517" lon="5.1371">
        <ele>241.31</ele>
        <time>2024-12-23T21:54:16.242Z</time>
      </trkpt>
      <trkpt lat="48.23493" lon="5.13712">
        <ele>241.79</ele>
        <time>2024-12-23T21:54:21.279Z</time>
      </trkpt>
      <trkpt lat="48.23468" lon="5.13714">
        <ele>242.21</ele>
        <time>2024-12-23T21:54:26.320Z</time>
      </trkpt>
      <trkpt lat="48.23438" lon="5.13716">
        <ele>242.75</ele>
        <time>2024-12-23T21:54:31.366Z</time>
      </trkpt>
      <trkpt lat="48.23414" lon="5.13722">
        <ele>243.18</ele>
        <time>2024-12-23T21:54:36.416Z</time>
      </trkpt>
      <trkpt lat="48.2339" lon="5.13728">
        <ele>243.62</ele>
        <time>2024-12-23T21:54:41.470Z</time>
      </trkpt>
      <trkpt lat="48.23366" lon="5.13734">
        <ele>244.06</ele>
        <time>2024-12-23T21:54:46.528Z</time>
      </trkpt>
      <trkpt lat="48.23341" lon="5.1374">
        <ele>244.49</ele>
        <time>2024-12-23T21:54:51.590Z</time>
      </trkpt>
      <trkpt lat="48.23314" lon="5.13751">
        <ele>244.92</ele>
        <time>2024-12-23T21:54:56.656Z</time>
      </trkpt>
      <trkpt lat="48.23287" lon="5.13762">
        <ele>245.42</ele>
        <time>2024-12-23T21:55:01.727Z</time>
      </trkpt>
      <trkpt lat="48.2326" lon="5.13774">
        <ele>245.94</ele>
        <time>2024-12-23T21:55:06.802Z</time>
      </trkpt>
      <trkpt lat="48.23231" lon="5.13784">
        <ele>246.39</ele>
        <time>2024-12-23T21:55:11.882Z</time>
      </trkpt>
      <trkpt lat="48.23203" lon="5.13793">
        <ele>246.79</ele>
        <time>2024-12-23T21:55:16.967Z</time>
      </trkpt>
      <trkpt lat="48.23175" lon="5.13803">
        <ele>247.15</ele>
        <time>2024-12-23T21:55:22.056Z</time>
      </trkpt>
      <trkpt lat="48.23146" lon="5.13813">
        <ele>247.5</ele>
        <time>2024-12-23T21:55:27.150Z</time>
      </trkpt>
      <trkpt lat="48.23119" lon="5.13819">
        <ele>247.82</ele>
        <time>2024-12-23T21:55:32.248Z</time>
      </trkpt>
      <trkpt lat="48.23092" lon="5.13825">
        <ele>248.07</ele>
        <time>2024-12-23T21:55:37.351Z</time>
      </trkpt>
      <trkpt lat="48.23066" lon="5.13831">
        <ele>248.31</ele>
        <time>2024-12-23T21:55:42.458Z</time>
      </trkpt>
      <trkpt lat="48.23039" lon="5.13837">
        <ele>248.62</ele>
        <time>2024-12-23T21:55:47.569Z</time>
      </trkpt>
      <trkpt lat="48.23012" lon="5.13843">
        <ele>248.96</ele>
        <time>2024-12-23T21:55:52.685Z</time>
      </trkpt>
      <trkpt lat="48.22985" lon="5.13849">
        <ele>249.35</ele>
        <time>2024-12-23T21:55:57.805Z</time>
      </trkpt>
      <trkpt lat="48.22954" lon="5.13849">
        <ele>249.77</ele>
        <time>2024-12-23T21:56:02.930Z</time>
      </trkpt>
      <trkpt lat="48.22923" lon="5.13849">
        <ele>250.27</ele>
        <time>2024-12-23T21:56:08.060Z</time>
      </trkpt>
      <trkpt lat="48.22892" lon="5.13849">
        <ele>250.8</ele>
        <time>2024-12-23T21:56:13.195Z</time>
      </trkpt>
      <trkpt lat="48.22861" lon="5.13849">
        <ele>251.3</ele>
        <time>2024-12-23T21:56:18.335Z</time>
      </trkpt>
      <trkpt lat="48.22845" lon="5.13852">
        <ele>251.81</ele>
        <time>2024-12-23T21:56:23.478Z</time>
      </trkpt>
      <trkpt lat="48.22829" lon="5.13855">
        <ele>252.34</ele>
        <time>2024-12-23T21:56:28.623Z</time>
      </trkpt>
      <trkpt lat="48.22829" lon="5.13855">
        <ele>252.9</ele>
        <time>2024-12-23T21:56:33.768Z</time>
      </trkpt>
      <trkpt lat="48.22799" lon="5.13863">
        <ele>253.54</ele>
        <time>2024-12-23T21:56:38.918Z</time>
      </trkpt>
      <trkpt lat="48.22769" lon="5.1387">
        <ele>254.24</ele>
        <time>2024-12-23T21:56:44.073Z</time>
      </trkpt>
      <trkpt lat="48.22739" lon="5.13878">
        <ele>254.91</ele>
        <time>2024-12-23T21:56:49.233Z</time>
      </trkpt>
      <trkpt lat="48.22709" lon="5.13885">
        <ele>255.51</ele>
        <time>2024-12-23T21:56:54.398Z</time>
      </trkpt>
      <trkpt lat="48.22679" lon="5.13893">
        <ele>256.1</ele>
        <time>2024-12-23T21:56:59.567Z</time>
      </trkpt>
      <trkpt lat="48.22649" lon="5.139">
        <ele>256.72</ele>
        <time>2024-12-23T21:57:04.741Z</time>
      </trkpt>
      <trkpt lat="48.2262" lon="5.13908">
        <ele>257.35</ele>
        <time>2024-12-23T21:57:09.920Z</time>
      </trkpt>
      <trkpt lat="48.2259" lon="5.13915">
        <ele>258.05</ele>
        <time>2024-12-23T21:57:15.104Z</time>
      </trkpt>
      <trkpt lat="48.2256" lon="5.13923">
        <ele>258.65</ele>
        <time>2024-12-23T21:57:20.293Z</time>
      </trkpt>
      <trkpt lat="48.2253" lon="5.1393">
        <ele>259.13</ele>
        <time>2024-12-23T21:57:25.487Z</time>
      </trkpt>
      <trkpt lat="48.225" lon="5.13938">
        <ele>259.62</ele>
        <time>2024-12-23T21:57:30.686Z</time>
      </trkpt>
      <trkpt lat="48.2247" lon="5.13945">
        <ele>260.14</ele>
        <time>2024-12-23T21:57:35.889Z</time>
      </trkpt>
      <trkpt lat="48.22442" lon="5.13953">
        <ele>260.48</ele>
        <time>2024-12-23T21:57:41.097Z</time>
      </trkpt>
      <trkpt lat="48.22441" lon="5.13953">
        <ele>260.73</ele>
        <time>2024-12-23T21:57:46.305Z</time>
      </trkpt>
      <trkpt lat="48.22419" lon="5.13958">
        <ele>260.91</ele>
        <time>2024-12-23T21:57:51.517Z</time>
      </trkpt>
      <trkpt lat="48.22394" lon="5.13968">
        <ele>261.07</ele>
        <time>2024-12-23T21:57:56.733Z</time>
      </trkpt>
      <trkpt lat="48.2237" lon="5.13977">
        <ele>261.09</ele>
        <time>2024-12-23T21:58:01.953Z</time>
      </trkpt>
      <trkpt lat="48.22346" lon="5.13986">
        <ele>261.02</ele>
        <time>2024-12-23T21:58:07.177Z</time>
      </trkpt>
      <trkpt lat="48.22318" lon="5.14006">
        <ele>260.86</ele>
        <time>2024-12-23T21:58:12.406Z</time>
      </trkpt>
      <trkpt lat="48.2229" lon="5.14026">
        <ele>260.59</ele>
        <time>2024-12-23T21:58:17.640Z</time>
      </trkpt>
      <trkpt lat="48.22262" lon="5.14046">
        <ele>260.2</ele>
        <time>2024-12-23T21:58:22.879Z</time>
      </trkpt>
      <trkpt lat="48.22238" lon="5.14069">
        <ele>259.64</ele>
        <time>2024-12-23T21:58:28.122Z</time>
      </trkpt>
      <trkpt lat="48.22215" lon="5.14092">
        <ele>258.95</ele>
        <time>2024-12-23T21:58:33.370Z</time>
      </trkpt>
      <trkpt lat="48.22191" lon="5.14114">
        <ele>258.22</ele>
        <time>2024-12-23T21:58:38.622Z</time>
      </trkpt>
      <trkpt lat="48.22168" lon="5.14137">
        <ele>257.39</ele>
        <time>2024-12-23T21:58:43.879Z</time>
      </trkpt>
      <trkpt lat="48.22146" lon="5.14171">
        <ele>256.49</ele>
        <time>2024-12-23T21:58:49.141Z</time>
      </trkpt>
      <trkpt lat="48.22125" lon="5.14205">
        <ele>255.52</ele>
        <time>2024-12-23T21:58:54.408Z</time>
      </trkpt>
      <trkpt lat="48.22108" lon="5.1422">
        <ele>254.56</ele>
        <time>2024-12-23T21:58:59.678Z</time>
      </trkpt>
      <trkpt lat="48.2209" lon="5.14235">
        <ele>253.67</ele>
        <time>2024-12-23T21:59:04.951Z</time>
      </trkpt>
      <trkpt lat="48.22067" lon="5.14241">
        <ele>252.74</ele>
        <time>2024-12-23T21:59:10.228Z</time>
      </trkpt>
      <trkpt lat="48.22043" lon="5.14246">
        <ele>251.84</ele>
        <time>2024-12-23T21:59:15.509Z</time>
      </trkpt>
      <trkpt lat="48.22015" lon="5.14241">
        <ele>250.92</ele>
        <time>2024-12-23T21:59:20.794Z</time>
      </trkpt>
      <trkpt lat="48.21987" lon="5.14235">
        <ele>250.06</ele>
        <time>2024-12-23T21:59:26.084Z</time>
      </trkpt>
      <trkpt lat="48.21968" lon="5.14242">
        <ele>249.34</ele>
        <time>2024-12-23T21:59:31.377Z</time>
      </trkpt>
      <trkpt lat="48.21949" lon="5.14248">
        <ele>248.59</ele>
        <time>2024-12-23T21:59:36.673Z</time>
      </trkpt>
      <trkpt lat="48.21922" lon="5.14263">
        <ele>247.85</ele>
        <time>2024-12-23T21:59:41.974Z</time>
      </trkpt>
      <trkpt lat="48.21896" lon="5.14277">
        <ele>247.08</ele>
        <time>2024-12-23T21:59:47.279Z</time>
      </trkpt>
      <trkpt lat="48.2187" lon="5.14291">
        <ele>246.44</ele>
        <time>2024-12-23T21:59:52.589Z</time>
      </trkpt>
      <trkpt lat="48.21843" lon="5.14306">
        <ele>245.97</ele>
        <time>2024-12-23T21:59:57.903Z</time>
      </trkpt>
      <trkpt lat="48.21817" lon="5.1432">
        <ele>245.59</ele>
        <time>2024-12-23T22:00:03.222Z</time>
      </trkpt>
      <trkpt lat="48.21791" lon="5.14335">
        <ele>245.32</ele>
        <time>2024-12-23T22:00:08.545Z</time>
      </trkpt>
      <trkpt lat="48.21764" lon="5.14349">
        <ele>245.23</ele>
        <time>2024-12-23T22:00:13.873Z</time>
      </trkpt>
      <trkpt lat="48.2176" lon="5.14351">
        <ele>245.39</ele>
        <time>2024-12-23T22:00:19.201Z</time>
      </trkpt>
      <trkpt lat="48.2176" lon="5.14351">
        <ele>245.76</ele>
        <time>2024-12-23T22:00:24.529Z</time>
      </trkpt>
      <trkpt lat="48.21735" lon="5.14369">
        <ele>246.33</ele>
        <time>2024-12-23T22:00:29.862Z</time>
      </trkpt>
      <trkpt lat="48.21711" lon="5.14386">
        <ele>247.12</ele>
        <time>2024-12-23T22:00:35.199Z</time>
      </trkpt>
      <trkpt lat="48.21686" lon="5.14404">
        <ele>248.16</ele>
        <time>2024-12-23T22:00:40.540Z</time>
      </trkpt>
      <trkpt lat="48.21661" lon="5.14421">
        <ele>249.6</ele>
        <time>2024-12-23T22:00:45.886Z</time>
      </trkpt>
      <trkpt lat="48.21637" lon="5.14439">
        <ele>251.39</ele>
        <time>2024-12-23T22:00:51.236Z</time>
      </trkpt>
      <trkpt lat="48.21612" lon="5.14456">
        <ele>253.36</ele>
        <time>2024-12-23T22:00:56.590Z</time>
      </trkpt>
      <trkpt lat="48.21586" lon="5.14468">
        <ele>255.63</ele>
        <time>2024-12-23T22:01:01.949Z</time>
      </trkpt>
      <trkpt lat="48.2156" lon="5.1448">
        <ele>258.17</ele>
        <time>2024-12-23T22:01:07.312Z</time>
      </trkpt>
      <trkpt lat="48.21576" lon="5.14502">
        <ele>261.02</ele>
        <time>2024-12-23T22:01:12.679Z</time>
      </trkpt>
      <trkpt lat="48.21593" lon="5.14525">
        <ele>264.14</ele>
        <time>2024-12-23T22:01:18.049Z</time>
      </trkpt>
      <trkpt lat="48.21599" lon="5.14565">
        <ele>267.72</ele>
        <time>2024-12-23T22:01:23.424Z</time>
      </trkpt>
      <trkpt lat="48.21605" lon="5.14605">
        <ele>271.33</ele>
        <time>2024-12-23T22:01:28.803Z</time>
      </trkpt>
      <trkpt lat="48.21612" lon="5.14645">
        <ele>275.06</ele>
        <time>2024-12-23T22:01:34.186Z</time>
      </trkpt>
      <trkpt lat="48.21618" lon="5.14686">
        <ele>279.08</ele>
        <time>2024-12-23T22:01:39.574Z</time>
      </trkpt>
      <trkpt lat="48.21625" lon="5.14726">
        <ele>283.4</ele>
        <time>2024-12-23T22:01:44.966Z</time>
      </trkpt>
      <trkpt lat="48.21631" lon="5.14765">
        <ele>287.65</ele>
        <time>2024-12-23T22:01:50.363Z</time>
      </trkpt>
      <trkpt lat="48.2164" lon="5.14791">
        <ele>291.89</ele>
        <time>2024-12-23T22:01:55.763Z</time>
      </trkpt>
      <trkpt lat="48.21648" lon="5.14817">
        <ele>296.28</ele>
        <time>2024-12-23T22:02:01.166Z</time>
      </trkpt>
      <trkpt lat="48.21668" lon="5.14849">
        <ele>300.75</ele>
        <time>2024-12-23T22:02:06.573Z</time>
      </trkpt>
      <trkpt lat="48.21687" lon="5.14881">
        <ele>305.14</ele>
        <time>2024-12-23T22:02:11.985Z</time>
      </trkpt>
      <trkpt lat="48.21706" lon="5.14896">
        <ele>309.32</ele>
        <time>2024-12-23T22:02:17.401Z</time>
      </trkpt>
      <trkpt lat="48.21732" lon="5.14909">
        <ele>313.37</ele>
        <time>2024-12-23T22:02:22.821Z</time>
      </trkpt>
      <trkpt lat="48.21758" lon="5.14911">
        <ele>317.1</ele>
        <time>2024-12-23T22:02:28.245Z</time>
      </trkpt>
      <trkpt lat="48.21785" lon="5.14913">
        <ele>320.66</ele>
        <time>2024-12-23T22:02:33.673Z</time>
      </trkpt>
      <trkpt lat="48.21811" lon="5.14915">
        <ele>324.05</ele>
        <time>2024-12-23T22:02:39.106Z</time>
      </trkpt>
      <trkpt lat="48.21834" lon="5.14906">
        <ele>327.09</ele>
        <time>2024-12-23T22:02:44.542Z</time>
      </trkpt>
      <trkpt lat="48.21858" lon="5.14896">
        <ele>329.98</ele>
        <time>2024-12-23T22:02:49.982Z</time>
      </trkpt>
      <trkpt lat="48.21881" lon="5.14886">
        <ele>332.71</ele>
        <time>2024-12-23T22:02:55.426Z</time>
      </trkpt>
      <trkpt lat="48.21904" lon="5.14877">
        <ele>335.1</ele>
        <time>2024-12-23T22:03:00.874Z</time>
      </trkpt>
      <trkpt lat="48.21923" lon="5.14875">
        <ele>337.31</ele>
        <time>2024-12-23T22:03:06.325Z</time>
      </trkpt>
      <trkpt lat="48.21947" lon="5.14888">
        <ele>339.43</ele>
        <time>2024-12-23T22:03:11.780Z</time>
      </trkpt>
      <trkpt lat="48.2197" lon="5.149">
        <ele>341.27</ele>
        <time>2024-12-23T22:03:17.239Z</time>
      </trkpt>
      <trkpt lat="48.21989" lon="5.14875">
        <ele>342.58</ele>
        <time>2024-12-23T22:03:22.702Z</time>
      </trkpt>
      <trkpt lat="48.22007" lon="5.14849">
        <ele>343.81</ele>
        <time>2024-12-23T22:03:28.169Z</time>
      </trkpt>
      <trkpt lat="48.22026" lon="5.14823">
        <ele>344.75</ele>
        <time>2024-12-23T22:03:33.640Z</time>
      </trkpt>
      <trkpt lat="48.22044" lon="5.14797">
        <ele>345.53</ele>
        <time>2024-12-23T22:03:39.115Z</time>
      </trkpt>
      <trkpt lat="48.22062" lon="5.14772">
        <ele>346.13</ele>
        <time>2024-12-23T22:03:44.594Z</time>
      </trkpt>
      <trkpt lat="48.22082" lon="5.14752">
        <ele>346.65</ele>
        <time>2024-12-23T22:03:50.077Z</time>
      </trkpt>
      <trkpt lat="48.22101" lon="5.14729">
        <ele>346.95</ele>
        <time>2024-12-23T22:03:55.564Z</time>
      </trkpt>
      <trkpt lat="48.22119" lon="5.14705">
        <ele>347.07</ele>
        <time>2024-12-23T22:04:01.055Z</time>
      </trkpt>
      <trkpt lat="48.22138" lon="5.14682">
        <ele>347.06</ele>
        <time>2024-12-23T22:04:06.550Z</time>
      </trkpt>
      <trkpt lat="48.22157" lon="5.14658">
        <ele>347.1</ele>
        <time>2024-12-23T22:04:12.049Z</time>
      </trkpt>
      <trkpt lat="48.2217" lon="5.14637">
        <ele>347.02</ele>
        <time>2024-12-23T22:04:17.551Z</time>
      </trkpt>
      <trkpt lat="48.2219" lon="5.14623">
        <ele>347.14</ele>
        <time>2024-12-23T22:04:23.056Z</time>
      </trkpt>
      <trkpt lat="48.22211" lon="5.14609">
        <ele>347.31</ele>
        <time>2024-12-23T22:04:28.565Z</time>
      </trkpt>
      <trkpt lat="48.22229" lon="5.1459">
        <ele>347.35</ele>
        <time>2024-12-23T22:04:34.078Z</time>
      </trkpt>
      <trkpt lat="48.22247" lon="5.14572">
        <ele>347.26</ele>
        <time>2024-12-23T22:04:39.594Z</time>
      </trkpt>
      <trkpt lat="48.22248" lon="5.14571">
        <ele>347.25</ele>
        <time>2024-12-23T22:04:45.110Z</time>
      </trkpt>
      <trkpt lat="48.22229" lon="5.1459">
        <ele>347.34</ele>
        <time>2024-12-23T22:04:50.630Z</time>
      </trkpt>
      <trkpt lat="48.22211" lon="5.14609">
        <ele>347.31</ele>
        <time>2024-12-23T22:04:56.153Z</time>
      </trkpt>
      <trkpt lat="48.2219" lon="5.14623">
        <ele>347.16</ele>
        <time>2024-12-23T22:05:01.680Z</time>
      </trkpt>
      <trkpt lat="48.2217" lon="5.14637">
        <ele>347.02</ele>
        <time>2024-12-23T22:05:07.211Z</time>
      </trkpt>
      <trkpt lat="48.22157" lon="5.14658">
        <ele>347.1</ele>
        <time>2024-12-23T22:05:12.745Z</time>
      </trkpt>
      <trkpt lat="48.22138" lon="5.14682">
        <ele>347.19</ele>
        <time>2024-12-23T22:05:18.283Z</time>
      </trkpt>
      <trkpt lat="48.22119" lon="5.14705">
        <ele>347.28</ele>
        <time>2024-12-23T22:05:23.825Z</time>
      </trkpt>
      <trkpt lat="48.22101" lon="5.14729">
        <ele>347.25</ele>
        <time>2024-12-23T22:05:29.371Z</time>
      </trkpt>
      <trkpt lat="48.22082" lon="5.14752">
        <ele>346.65</ele>
        <time>2024-12-23T22:05:34.920Z</time>
      </trkpt>
      <trkpt lat="48.22062" lon="5.14772">
        <ele>346.13</ele>
        <time>2024-12-23T22:05:40.473Z</time>
      </trkpt>
      <trkpt lat="48.22044" lon="5.14797">
        <ele>346.27</ele>
        <time>2024-12-23T22:05:46.030Z</time>
      </trkpt>
      <trkpt lat="48.22026" lon="5.14823">
        <ele>345.69</ele>
        <time>2024-12-23T22:05:51.591Z</time>
      </trkpt>
      <trkpt lat="48.22007" lon="5.14849">
        <ele>344.98</ele>
        <time>2024-12-23T22:05:57.156Z</time>
      </trkpt>
      <trkpt lat="48.21989" lon="5.14875">
        <ele>344</ele>
        <time>2024-12-23T22:06:02.725Z</time>
      </trkpt>
      <trkpt lat="48.2197" lon="5.149">
        <ele>342.97</ele>
        <time>2024-12-23T22:06:08.298Z</time>
      </trkpt>
      <trkpt lat="48.2197" lon="5.149">
        <ele>341.27</ele>
        <time>2024-12-23T22:06:13.871Z</time>
      </trkpt>
      <trkpt lat="48.21947" lon="5.14888">
        <ele>339.88</ele>
        <time>2024-12-23T22:06:19.448Z</time>
      </trkpt>
      <trkpt lat="48.21923" lon="5.14875">
        <ele>337.31</ele>
        <time>2024-12-23T22:06:25.029Z</time>
      </trkpt>
      <trkpt lat="48.21904" lon="5.14877">
        <ele>335.1</ele>
        <time>2024-12-23T22:06:30.614Z</time>
      </trkpt>
      <trkpt lat="48.21881" lon="5.14886">
        <ele>333.47</ele>
        <time>2024-12-23T22:06:36.202Z</time>
      </trkpt>
      <trkpt lat="48.21858" lon="5.14896">
        <ele>330.87</ele>
        <time>2024-12-23T22:06:41.794Z</time>
      </trkpt>
      <trkpt lat="48.21835" lon="5.14906">
        <ele>328.12</ele>
        <time>2024-12-23T22:06:47.390Z</time>
      </trkpt>
      <trkpt lat="48.21811" lon="5.14915">
        <ele>324.05</ele>
        <time>2024-12-23T22:06:52.990Z</time>
      </trkpt>
      <trkpt lat="48.21785" lon="5.14913">
        <ele>322</ele>
        <time>2024-12-23T22:06:58.594Z</time>
      </trkpt>
      <trkpt lat="48.21759" lon="5.14911">
        <ele>318.6</ele>
        <time>2024-12-23T22:07:04.202Z</time>
      </trkpt>
      <trkpt lat="48.21732" lon="5.14909">
        <ele>313.37</ele>
        <time>2024-12-23T22:07:09.815Z</time>
      </trkpt>
      <trkpt lat="48.21706" lon="5.14896">
        <ele>309.32</ele>
        <time>2024-12-23T22:07:15.432Z</time>
      </trkpt>
      <trkpt lat="48.21687" lon="5.14881">
        <ele>305.14</ele>
        <time>2024-12-23T22:07:21.052Z</time>
      </trkpt>
      <trkpt lat="48.21668" lon="5.14849">
        <ele>302.91</ele>
        <time>2024-12-23T22:07:26.677Z</time>
      </trkpt>
      <trkpt lat="48.21648" lon="5.14817">
        <ele>296.28</ele>
        <time>2024-12-23T22:07:32.307Z</time>
      </trkpt>
      <trkpt lat="48.2164" lon="5.14791">
        <ele>294.33</ele>
        <time>2024-12-23T22:07:37.940Z</time>
      </trkpt>
      <trkpt lat="48.21631" lon="5.14765">
        <ele>287.65</ele>
        <time>2024-12-23T22:07:43.576Z</time>
      </trkpt>
      <trkpt lat="48.21625" lon="5.14725">
        <ele>286.03</ele>
        <time>2024-12-23T22:07:49.216Z</time>
      </trkpt>
      <trkpt lat="48.21618" lon="5.14685">
        <ele>281.76</ele>
        <time>2024-12-23T22:07:54.861Z</time>
      </trkpt>
      <trkpt lat="48.21612" lon="5.14645">
        <ele>277.76</ele>
        <time>2024-12-23T22:08:00.510Z</time>
      </trkpt>
      <trkpt lat="48.21605" lon="5.14605">
        <ele>273.99</ele>
        <time>2024-12-23T22:08:06.164Z</time>
      </trkpt>
      <trkpt lat="48.21599" lon="5.14564">
        <ele>270.29</ele>
        <time>2024-12-23T22:08:11.822Z</time>
      </trkpt>
      <trkpt lat="48.21593" lon="5.14525">
        <ele>264.14</ele>
        <time>2024-12-23T22:08:17.484Z</time>
      </trkpt>
      <trkpt lat="48.21576" lon="5.14502">
        <ele>263.23</ele>
        <time>2024-12-23T22:08:23.150Z</time>
      </trkpt>
      <trkpt lat="48.2156" lon="5.1448">
        <ele>260.1</ele>
        <time>2024-12-23T22:08:28.819Z</time>
      </trkpt>
      <trkpt lat="48.21552" lon="5.14484">
        <ele>257.29</ele>
        <time>2024-12-23T22:08:34.490Z</time>
      </trkpt>
      <trkpt lat="48.21552" lon="5.14484">
        <ele>254.65</ele>
        <time>2024-12-23T22:08:40.161Z</time>
      </trkpt>
      <trkpt lat="48.21539" lon="5.14484">
        <ele>252.17</ele>
        <time>2024-12-23T22:08:45.834Z</time>
      </trkpt>
      <trkpt lat="48.21523" lon="5.14479">
        <ele>249.84</ele>
        <time>2024-12-23T22:08:51.509Z</time>
      </trkpt>
      <trkpt lat="48.21507" lon="5.14473">
        <ele>247.66</ele>
        <time>2024-12-23T22:08:57.187Z</time>
      </trkpt>
      <trkpt lat="48.21479" lon="5.14476">
        <ele>245.6</ele>
        <time>2024-12-23T22:09:02.870Z</time>
      </trkpt>
      <trkpt lat="48.21457" lon="5.14486">
        <ele>243.78</ele>
        <time>2024-12-23T22:09:08.556Z</time>
      </trkpt>
      <trkpt lat="48.21435" lon="5.14496">
        <ele>242.02</ele>
        <time>2024-12-23T22:09:14.246Z</time>
      </trkpt>
      <trkpt lat="48.21412" lon="5.14506">
        <ele>240.53</ele>
        <time>2024-12-23T22:09:19.940Z</time>
      </trkpt>
      <trkpt lat="48.21385" lon="5.1451">
        <ele>239.19</ele>
        <time>2024-12-23T22:09:25.638Z</time>
      </trkpt>
      <trkpt lat="48.21358" lon="5.14514">
        <ele>238.05</ele>
        <time>2024-12-23T22:09:31.340Z</time>
      </trkpt>
      <trkpt lat="48.21331" lon="5.14518">
        <ele>236.98</ele>
        <time>2024-12-23T22:09:37.047Z</time>
      </trkpt>
      <trkpt lat="48.21309" lon="5.14515">
        <ele>235.99</ele>
        <time>2024-12-23T22:09:42.757Z</time>
      </trkpt>
      <trkpt lat="48.21288" lon="5.14511">
        <ele>235.11</ele>
        <time>2024-12-23T22:09:48.471Z</time>
      </trkpt>
      <trkpt lat="48.21266" lon="5.14508">
        <ele>234.33</ele>
        <time>2024-12-23T22:09:54.188Z</time>
      </trkpt>
      <trkpt lat="48.2126" lon="5.1451">
        <ele>233.78</ele>
        <time>2024-12-23T22:09:59.906Z</time>
      </trkpt>
      <trkpt lat="48.21235" lon="5.14523">
        <ele>233.3</ele>
        <time>2024-12-23T22:10:05.628Z</time>
      </trkpt>
      <trkpt lat="48.21211" lon="5.14536">
        <ele>232.96</ele>
        <time>2024-12-23T22:10:11.355Z</time>
      </trkpt>
      <trkpt lat="48.21186" lon="5.14553">
        <ele>232.74</ele>
        <time>2024-12-23T22:10:17.086Z</time>
      </trkpt>
      <trkpt lat="48.21162" lon="5.1457">
        <ele>232.59</ele>
        <time>2024-12-23T22:10:22.821Z</time>
      </trkpt>
      <trkpt lat="48.21138" lon="5.14587">
        <ele>232.5</ele>
        <time>2024-12-23T22:10:28.560Z</time>
      </trkpt>
      <trkpt lat="48.21114" lon="5.14604">
        <ele>232.47</ele>
        <time>2024-12-23T22:10:34.304Z</time>
      </trkpt>
      <trkpt lat="48.21101" lon="5.14613">
        <ele>232.47</ele>
        <time>2024-12-23T22:10:40.050Z</time>
      </trkpt>
      <trkpt lat="48.21078" lon="5.14628">
        <ele>232.42</ele>
        <time>2024-12-23T22:10:45.800Z</time>
      </trkpt>
      <trkpt lat="48.21054" lon="5.14643">
        <ele>232.48</ele>
        <time>2024-12-23T22:10:51.554Z</time>
      </trkpt>
      <trkpt lat="48.21035" lon="5.14647">
        <ele>232.52</ele>
        <time>2024-12-23T22:10:57.311Z</time>
      </trkpt>
      <trkpt lat="48.21011" lon="5.14645">
        <ele>232.58</ele>
        <time>2024-12-23T22:11:03.072Z</time>
      </trkpt>
      <trkpt lat="48.20987" lon="5.14643">
        <ele>232.71</ele>
        <time>2024-12-23T22:11:08.837Z</time>
      </trkpt>
      <trkpt lat="48.20964" lon="5.14641">
        <ele>232.84</ele>
        <time>2024-12-23T22:11:14.606Z</time>
      </trkpt>
      <trkpt lat="48.20935" lon="5.1465">
        <ele>233.17</ele>
        <time>2024-12-23T22:11:20.380Z</time>
      </trkpt>
      <trkpt lat="48.20905" lon="5.14659">
        <ele>233.55</ele>
        <time>2024-12-23T22:11:26.158Z</time>
      </trkpt>
      <trkpt lat="48.20876" lon="5.14668">
        <ele>233.8</ele>
        <time>2024-12-23T22:11:31.941Z</time>
      </trkpt>
      <trkpt lat="48.20847" lon="5.14677">
        <ele>234.08</ele>
        <time>2024-12-23T22:11:37.729Z</time>
      </trkpt>
      <trkpt lat="48.20817" lon="5.14686">
        <ele>234.38</ele>
        <time>2024-12-23T22:11:43.522Z</time>
      </trkpt>
      <trkpt lat="48.20788" lon="5.14694">
        <ele>234.74</ele>
        <time>2024-12-23T22:11:49.319Z</time>
      </trkpt>
      <trkpt lat="48.20771" lon="5.14704">
        <ele>235.09</ele>
        <time>2024-12-23T22:11:55.119Z</time>
      </trkpt>
      <trkpt lat="48.20754" lon="5.14714">
        <ele>235.43</ele>
        <time>2024-12-23T22:12:00.922Z</time>
      </trkpt>
      <trkpt lat="48.20754" lon="5.14714">
        <ele>235.7</ele>
        <time>2024-12-23T22:12:06.725Z</time>
      </trkpt>
      <trkpt lat="48.20728" lon="5.14727">
        <ele>235.94</ele>
        <time>2024-12-23T22:12:12.533Z</time>
      </trkpt>
      <trkpt lat="48.20703" lon="5.1474">
        <ele>236.07</ele>
        <time>2024-12-23T22:12:18.345Z</time>
      </trkpt>
      <trkpt lat="48.20677" lon="5.14752">
        <ele>236.19</ele>
        <time>2024-12-23T22:12:24.161Z</time>
      </trkpt>
      <trkpt lat="48.20652" lon="5.14765">
        <ele>236.42</ele>
        <time>2024-12-23T22:12:29.982Z</time>
      </trkpt>
      <trkpt lat="48.20627" lon="5.14778">
        <ele>236.71</ele>
        <time>2024-12-23T22:12:35.807Z</time>
      </trkpt>
      <trkpt lat="48.20601" lon="5.14791">
        <ele>236.87</ele>
        <time>2024-12-23T22:12:41.636Z</time>
      </trkpt>
      <trkpt lat="48.20573" lon="5.14809">
        <ele>237.04</ele>
        <time>2024-12-23T22:12:47.470Z</time>
      </trkpt>
      <trkpt lat="48.20545" lon="5.14827">
        <ele>237.17</ele>
        <time>2024-12-23T22:12:53.309Z</time>
      </trkpt>
      <trkpt lat="48.20516" lon="5.14845">
        <ele>237.28</ele>
        <time>2024-12-23T22:12:59.153Z</time>
      </trkpt>
      <trkpt lat="48.20488" lon="5.14863">
        <ele>237.29</ele>
        <time>2024-12-23T22:13:05.002Z</time>
      </trkpt>
      <trkpt lat="48.2046" lon="5.14881">
        <ele>237.17</ele>
        <time>2024-12-23T22:13:10.856Z</time>
      </trkpt>
      <trkpt lat="48.20442" lon="5.1489">
        <ele>237</ele>
        <time>2024-12-23T22:13:16.713Z</time>
      </trkpt>
      <trkpt lat="48.20427" lon="5.14892">
        <ele>236.86</ele>
        <time>2024-12-23T22:13:22.572Z</time>
      </trkpt>
      <trkpt lat="48.20427" lon="5.14881">
        <ele>236.72</ele>
        <time>2024-12-23T22:13:28.432Z</time>
      </trkpt>
      <trkpt lat="48.20427" lon="5.14873">
        <ele>236.57</ele>
        <time>2024-12-23T22:13:34.293Z</time>
      </trkpt>
      <trkpt lat="48.20427" lon="5.14858">
        <ele>236.43</ele>
        <time>2024-12-23T22:13:40.156Z</time>
      </trkpt>
      <trkpt lat="48.20426" lon="5.14817">
        <ele>236.28</ele>
        <time>2024-12-23T22:13:46.023Z</time>
      </trkpt>
      <trkpt lat="48.20425" lon="5.14776">
        <ele>236</ele>
        <time>2024-12-23T22:13:51.894Z</time>
      </trkpt>
      <trkpt lat="48.20425" lon="5.14755">
        <ele>235.79</ele>
        <time>2024-12-23T22:13:57.768Z</time>
      </trkpt>
      <trkpt lat="48.20425" lon="5.14711">
        <ele>235.55</ele>
        <time>2024-12-23T22:14:03.646Z</time>
      </trkpt>
      <trkpt lat="48.20424" lon="5.14667">
        <ele>235.45</ele>
        <time>2024-12-23T22:14:09.529Z</time>
      </trkpt>
      <trkpt lat="48.20424" lon="5.14624">
        <ele>235.31</ele>
        <time>2024-12-23T22:14:15.417Z</time>
      </trkpt>
      <trkpt lat="48.20423" lon="5.14581">
        <ele>235.2</ele>
        <time>2024-12-23T22:14:21.309Z</time>
      </trkpt>
      <trkpt lat="48.20418" lon="5.1455">
        <ele>235.14</ele>
        <time>2024-12-23T22:14:27.205Z</time>
      </trkpt>
      <trkpt lat="48.20412" lon="5.14518">
        <ele>235.15</ele>
        <time>2024-12-23T22:14:33.104Z</time>
      </trkpt>
      <trkpt lat="48.20405" lon="5.14475">
        <ele>235.3</ele>
        <time>2024-12-23T22:14:39.008Z</time>
      </trkpt>
      <trkpt lat="48.20397" lon="5.14433">
        <ele>235.4</ele>
        <time>2024-12-23T22:14:44.917Z</time>
      </trkpt>
      <trkpt lat="48.20395" lon="5.14411">
        <ele>235.6</ele>
        <time>2024-12-23T22:14:50.828Z</time>
      </trkpt>
      <trkpt lat="48.20391" lon="5.14394">
        <ele>235.9</ele>
        <time>2024-12-23T22:14:56.741Z</time>
      </trkpt>
      <trkpt lat="48.20385" lon="5.14355">
        <ele>236.34</ele>
        <time>2024-12-23T22:15:02.658Z</time>
      </trkpt>
      <trkpt lat="48.20367" lon="5.14319">
        <ele>236.85</ele>
        <time>2024-12-23T22:15:08.580Z</time>
      </trkpt>
      <trkpt lat="48.20363" lon="5.1431">
        <ele>237.38</ele>
        <time>2024-12-23T22:15:14.503Z</time>
      </trkpt>
      <trkpt lat="48.20346" lon="5.14284">
        <ele>238.03</ele>
        <time>2024-12-23T22:15:20.430Z</time>
      </trkpt>
      <trkpt lat="48.20329" lon="5.14257">
        <ele>238.76</ele>
        <time>2024-12-23T22:15:26.361Z</time>
      </trkpt>
      <trkpt lat="48.20312" lon="5.14231">
        <ele>239.55</ele>
        <time>2024-12-23T22:15:32.296Z</time>
      </trkpt>
      <trkpt lat="48.20298" lon="5.14217">
        <ele>240.34</ele>
        <time>2024-12-23T22:15:38.234Z</time>
      </trkpt>
      <trkpt lat="48.20284" lon="5.14203">
        <ele>241.13</ele>
        <time>2024-12-23T22:15:44.174Z</time>
      </trkpt>
      <trkpt lat="48.20271" lon="5.14188">
        <ele>241.95</ele>
        <time>2024-12-23T22:15:50.117Z</time>
      </trkpt>
      <trkpt lat="48.20258" lon="5.14173">
        <ele>242.82</ele>
        <time>2024-12-23T22:15:56.063Z</time>
      </trkpt>
      <trkpt lat="48.20245" lon="5.14156">
        <ele>243.7</ele>
        <time>2024-12-23T22:16:02.011Z</time>
      </trkpt>
      <trkpt lat="48.20236" lon="5.14134">
        <ele>244.61</ele>
        <time>2024-12-23T22:16:07.962Z</time>
      </trkpt>
      <trkpt lat="48.20234" lon="5.1413">
        <ele>245.47</ele>
        <time>2024-12-23T22:16:13.914Z</time>
      </trkpt>
      <trkpt lat="48.20225" lon="5.14096">
        <ele>246.33</ele>
        <time>2024-12-23T22:16:19.870Z</time>
      </trkpt>
      <trkpt lat="48.20215" lon="5.14061">
        <ele>247.17</ele>
        <time>2024-12-23T22:16:25.830Z</time>
      </trkpt>
      <trkpt lat="48.20197" lon="5.14088">
        <ele>247.98</ele>
        <time>2024-12-23T22:16:31.794Z</time>
      </trkpt>
      <trkpt lat="48.20179" lon="5.14115">
        <ele>248.82</ele>
        <time>2024-12-23T22:16:37.762Z</time>
      </trkpt>
      <trkpt lat="48.20168" lon="5.14124">
        <ele>249.6</ele>
        <time>2024-12-23T22:16:43.732Z</time>
      </trkpt>
      <trkpt lat="48.20148" lon="5.1413">
        <ele>250.37</ele>
        <time>2024-12-23T22:16:49.705Z</time>
      </trkpt>
      <trkpt lat="48.20121" lon="5.1413">
        <ele>251.18</ele>
        <time>2024-12-23T22:16:55.682Z</time>
      </trkpt>
      <trkpt lat="48.20093" lon="5.1413">
        <ele>251.9</ele>
        <time>2024-12-23T22:17:01.664Z</time>
      </trkpt>
      <trkpt lat="48.20065" lon="5.1413">
        <ele>252.52</ele>
        <time>2024-12-23T22:17:07.650Z</time>
      </trkpt>
      <trkpt lat="48.20056" lon="5.1413">
        <ele>253.09</ele>
        <time>2024-12-23T22:17:13.638Z</time>
      </trkpt>
      <trkpt lat="48.20028" lon="5.1413">
        <ele>253.63</ele>
        <time>2024-12-23T22:17:19.630Z</time>
      </trkpt>
      <trkpt lat="48.19999" lon="5.1413">
        <ele>254.12</ele>
        <time>2024-12-23T22:17:25.627Z</time>
      </trkpt>
      <trkpt lat="48.19971" lon="5.1413">
        <ele>254.5</ele>
        <time>2024-12-23T22:17:31.628Z</time>
      </trkpt>
      <trkpt lat="48.19942" lon="5.1413">
        <ele>254.79</ele>
        <time>2024-12-23T22:17:37.634Z</time>
      </trkpt>
      <trkpt lat="48.19918" lon="5.1413">
        <ele>255.03</ele>
        <time>2024-12-23T22:17:43.644Z</time>
      </trkpt>
      <trkpt lat="48.19893" lon="5.1413">
        <ele>255.23</ele>
        <time>2024-12-23T22:17:49.658Z</time>
      </trkpt>
      <trkpt lat="48.1987" lon="5.14129">
        <ele>255.33</ele>
        <time>2024-12-23T22:17:55.675Z</time>
      </trkpt>
      <trkpt lat="48.19847" lon="5.14129">
        <ele>255.29</ele>
        <time>2024-12-23T22:18:01.696Z</time>
      </trkpt>
      <trkpt lat="48.19824" lon="5.14128">
        <ele>255.25</ele>
        <time>2024-12-23T22:18:07.721Z</time>
      </trkpt>
      <trkpt lat="48.19824" lon="5.14128">
        <ele>255.2</ele>
        <time>2024-12-23T22:18:13.746Z</time>
      </trkpt>
      <trkpt lat="48.19806" lon="5.14128">
        <ele>255.11</ele>
        <time>2024-12-23T22:18:19.774Z</time>
      </trkpt>
      <trkpt lat="48.19788" lon="5.14128">
        <ele>255</ele>
        <time>2024-12-23T22:18:25.805Z</time>
      </trkpt>
      <trkpt lat="48.19767" lon="5.14128">
        <ele>254.88</ele>
        <time>2024-12-23T22:18:31.839Z</time>
      </trkpt>
      <trkpt lat="48.19762" lon="5.14128">
        <ele>254.7</ele>
        <time>2024-12-23T22:18:37.874Z</time>
      </trkpt>
      <trkpt lat="48.19734" lon="5.14128">
        <ele>254.55</ele>
        <time>2024-12-23T22:18:43.913Z</time>
      </trkpt>
      <trkpt lat="48.19717" lon="5.14128">
        <ele>254.37</ele>
        <time>2024-12-23T22:18:49.955Z</time>
      </trkpt>
      <trkpt lat="48.19689" lon="5.14128">
        <ele>254.07</ele>
        <time>2024-12-23T22:18:56.001Z</time>
      </trkpt>
      <trkpt lat="48.1967" lon="5.14128">
        <ele>253.75</ele>
        <time>2024-12-23T22:19:02.051Z</time>
      </trkpt>
      <trkpt lat="48.19651" lon="5.14128">
        <ele>253.41</ele>
        <time>2024-12-23T22:19:08.104Z</time>
      </trkpt>
      <trkpt lat="48.1962" lon="5.14127">
        <ele>253.04</ele>
        <time>2024-12-23T22:19:14.162Z</time>
      </trkpt>
      <trkpt lat="48.19588" lon="5.14126">
        <ele>252.66</ele>
        <time>2024-12-23T22:19:20.225Z</time>
      </trkpt>
      <trkpt lat="48.19571" lon="5.14133">
        <ele>252.37</ele>
        <time>2024-12-23T22:19:26.290Z</time>
      </trkpt>
      <trkpt lat="48.19554" lon="5.14141">
        <ele>252.13</ele>
        <time>2024-12-23T22:19:32.358Z</time>
      </trkpt>
      <trkpt lat="48.19539" lon="5.14157">
        <ele>251.97</ele>
        <time>2024-12-23T22:19:38.429Z</time>
      </trkpt>
      <trkpt lat="48.19524" lon="5.14173">
        <ele>251.8</ele>
        <time>2024-12-23T22:19:44.503Z</time>
      </trkpt>
      <trkpt lat="48.19506" lon="5.14206">
        <ele>251.66</ele>
        <time>2024-12-23T22:19:50.582Z</time>
      </trkpt>
      <trkpt lat="48.19488" lon="5.1424">
        <ele>251.59</ele>
        <time>2024-12-23T22:19:56.665Z</time>
      </trkpt>
      <trkpt lat="48.19468" lon="5.14265">
        <ele>251.59</ele>
        <time>2024-12-23T22:20:02.753Z</time>
      </trkpt>
      <trkpt lat="48.19449" lon="5.14272">
        <ele>251.65</ele>
        <time>2024-12-23T22:20:08.844Z</time>
      </trkpt>
      <trkpt lat="48.19427" lon="5.14265">
        <ele>251.78</ele>
        <time>2024-12-23T22:20:14.938Z</time>
      </trkpt>
      <trkpt lat="48.19418" lon="5.14286">
        <ele>251.86</ele>
        <time>2024-12-23T22:20:21.035Z</time>
      </trkpt>
      <trkpt lat="48.19408" lon="5.14306">
        <ele>251.99</ele>
        <time>2024-12-23T22:20:27.135Z</time>
      </trkpt>
      <trkpt lat="48.19391" lon="5.14317">
        <ele>252.25</ele>
        <time>2024-12-23T22:20:33.238Z</time>
      </trkpt>
      <trkpt lat="48.19374" lon="5.14322">
        <ele>252.64</ele>
        <time>2024-12-23T22:20:39.343Z</time>
      </trkpt>
      <trkpt lat="48.19357" lon="5.14328">
        <ele>253.05</ele>
        <time>2024-12-23T22:20:45.451Z</time>
      </trkpt>
      <trkpt lat="48.19357" lon="5.14328">
        <ele>253.47</ele>
        <time>2024-12-23T22:20:51.559Z</time>
      </trkpt>
      <trkpt lat="48.1934" lon="5.14328">
        <ele>254.01</ele>
        <time>2024-12-23T22:20:57.670Z</time>
      </trkpt>
      <trkpt lat="48.19312" lon="5.14337">
        <ele>254.54</ele>
        <time>2024-12-23T22:21:03.785Z</time>
      </trkpt>
      <trkpt lat="48.19285" lon="5.14346">
        <ele>255.14</ele>
        <time>2024-12-23T22:21:09.905Z</time>
      </trkpt>
      <trkpt lat="48.19258" lon="5.14355">
        <ele>255.83</ele>
        <time>2024-12-23T22:21:16.029Z</time>
      </trkpt>
      <trkpt lat="48.19231" lon="5.14374">
        <ele>256.54</ele>
        <time>2024-12-23T22:21:22.158Z</time>
      </trkpt>
      <trkpt lat="48.19205" lon="5.14392">
        <ele>257.11</ele>
        <time>2024-12-23T22:21:28.292Z</time>
      </trkpt>
      <trkpt lat="48.19178" lon="5.1441">
        <ele>257.79</ele>
        <time>2024-12-23T22:21:34.430Z</time>
      </trkpt>
      <trkpt lat="48.19153" lon="5.14427">
        <ele>258.51</ele>
        <time>2024-12-23T22:21:40.573Z</time>
      </trkpt>
      <trkpt lat="48.19152" lon="5.14428">
        <ele>259.17</ele>
        <time>2024-12-23T22:21:46.716Z</time>
      </trkpt>
      <trkpt lat="48.19134" lon="5.1444">
        <ele>259.91</ele>
        <time>2024-12-23T22:21:52.862Z</time>
      </trkpt>
      <trkpt lat="48.19116" lon="5.14452">
        <ele>260.63</ele>
        <time>2024-12-23T22:21:59.011Z</time>
      </trkpt>
      <trkpt lat="48.19101" lon="5.14465">
        <ele>261.27</ele>
        <time>2024-12-23T22:22:05.163Z</time>
      </trkpt>
      <trkpt lat="48.19086" lon="5.14478">
        <ele>261.91</ele>
        <time>2024-12-23T22:22:11.318Z</time>
      </trkpt>
      <trkpt lat="48.19063" lon="5.14503">
        <ele>262.56</ele>
        <time>2024-12-23T22:22:17.477Z</time>
      </trkpt>
      <trkpt lat="48.19039" lon="5.14528">
        <ele>263.26</ele>
        <time>2024-12-23T22:22:23.641Z</time>
      </trkpt>
      <trkpt lat="48.19016" lon="5.14553">
        <ele>263.87</ele>
        <time>2024-12-23T22:22:29.810Z</time>
      </trkpt>
      <trkpt lat="48.18992" lon="5.14582">
        <ele>264.57</ele>
        <time>2024-12-23T22:22:35.984Z</time>
      </trkpt>
      <trkpt lat="48.18968" lon="5.14611">
        <ele>265.26</ele>
        <time>2024-12-23T22:22:42.163Z</time>
      </trkpt>
      <trkpt lat="48.18948" lon="5.14644">
        <ele>265.9</ele>
        <time>2024-12-23T22:22:48.346Z</time>
      </trkpt>
      <trkpt lat="48.18928" lon="5.14678">
        <ele>266.64</ele>
        <time>2024-12-23T22:22:54.534Z</time>
      </trkpt>
      <trkpt lat="48.18908" lon="5.14712">
        <ele>267.28</ele>
        <time>2024-12-23T22:23:00.727Z</time>
      </trkpt>
      <trkpt lat="48.1889" lon="5.14735">
        <ele>267.9</ele>
        <time>2024-12-23T22:23:06.924Z</time>
      </trkpt>
      <trkpt lat="48.18872" lon="5.14759">
        <ele>268.49</ele>
        <time>2024-12-23T22:23:13.125Z</time>
      </trkpt>
      <trkpt lat="48.18848" lon="5.14779">
        <ele>269.09</ele>
        <time>2024-12-23T22:23:19.330Z</time>
      </trkpt>
      <trkpt lat="48.18824" lon="5.14799">
        <ele>269.69</ele>
        <time>2024-12-23T22:23:25.539Z</time>
      </trkpt>
      <trkpt lat="48.188" lon="5.14819">
        <ele>270.25</ele>
        <time>2024-12-23T22:23:31.753Z</time>
      </trkpt>
      <trkpt lat="48.18776" lon="5.14839">
        <ele>270.82</ele>
        <time>2024-12-23T22:23:37.971Z</time>
      </trkpt>
      <trkpt lat="48.18752" lon="5.14858">
        <ele>271.38</ele>
        <time>2024-12-23T22:23:44.194Z</time>
      </trkpt>
      <trkpt lat="48.18728" lon="5.14878">
        <ele>271.91</ele>
        <time>2024-12-23T22:23:50.421Z</time>
      </trkpt>
      <trkpt lat="48.18704" lon="5.14898">
        <ele>272.36</ele>
        <time>2024-12-23T22:23:56.652Z</time>
      </trkpt>
      <trkpt lat="48.18678" lon="5.14917">
        <ele>272.75</ele>
        <time>2024-12-23T22:24:02.888Z</time>
      </trkpt>
      <trkpt lat="48.18651" lon="5.14935">
        <ele>273.12</ele>
        <time>2024-12-23T22:24:09.129Z</time>
      </trkpt>
      <trkpt lat="48.18627" lon="5.14941">
        <ele>273.52</ele>
        <time>2024-12-23T22:24:15.374Z</time>
      </trkpt>
      <trkpt lat="48.18602" lon="5.14947">
        <ele>273.86</ele>
        <time>2024-12-23T22:24:21.623Z</time>
      </trkpt>
      <trkpt lat="48.18578" lon="5.14952">
        <ele>274.14</ele>
        <time>2024-12-23T22:24:27.876Z</time>
      </trkpt>
      <trkpt lat="48.18554" lon="5.14958">
        <ele>274.45</ele>
        <time>2024-12-23T22:24:34.132Z</time>
      </trkpt>
      <trkpt lat="48.18531" lon="5.14967">
        <ele>274.71</ele>
        <time>2024-12-23T22:24:40.392Z</time>
      </trkpt>
      <trkpt lat="48.18507" lon="5.14977">
        <ele>274.88</ele>
        <time>2024-12-23T22:24:46.656Z</time>
      </trkpt>
      <trkpt lat="48.18483" lon="5.14986">
        <ele>274.92</ele>
        <time>2024-12-23T22:24:52.924Z</time>
      </trkpt>
      <trkpt lat="48.1846" lon="5.14995">
        <ele>274.79</ele>
        <time>2024-12-23T22:24:59.196Z</time>
      </trkpt>
      <trkpt lat="48.1846" lon="5.14995">
        <ele>274.7</ele>
        <time>2024-12-23T22:25:05.468Z</time>
      </trkpt>
      <trkpt lat="48.18431" lon="5.15005">
        <ele>274.54</ele>
        <time>2024-12-23T22:25:11.745Z</time>
      </trkpt>
      <trkpt lat="48.18403" lon="5.15014">
        <ele>274.41</ele>
        <time>2024-12-23T22:25:18.026Z</time>
      </trkpt>
      <trkpt lat="48.18374" lon="5.15024">
        <ele>274.05</ele>
        <time>2024-12-23T22:25:24.312Z</time>
      </trkpt>
      <trkpt lat="48.18346" lon="5.15033">
        <ele>273.62</ele>
        <time>2024-12-23T22:25:30.603Z</time>
      </trkpt>
      <trkpt lat="48.18317" lon="5.1505">
        <ele>273.08</ele>
        <time>2024-12-23T22:25:36.899Z</time>
      </trkpt>
      <trkpt lat="48.18287" lon="5.15066">
        <ele>272.51</ele>
        <time>2024-12-23T22:25:43.200Z</time>
      </trkpt>
      <trkpt lat="48.18258" lon="5.15082">
        <ele>271.75</ele>
        <time>2024-12-23T22:25:49.506Z</time>
      </trkpt>
      <trkpt lat="48.18228" lon="5.15098">
        <ele>270.88</ele>
        <time>2024-12-23T22:25:55.817Z</time>
      </trkpt>
      <trkpt lat="48.18213" lon="5.15129">
        <ele>269.96</ele>
        <time>2024-12-23T22:26:02.132Z</time>
      </trkpt>
      <trkpt lat="48.18199" lon="5.1516">
        <ele>268.97</ele>
        <time>2024-12-23T22:26:08.451Z</time>
      </trkpt>
      <trkpt lat="48.18184" lon="5.15191">
        <ele>267.99</ele>
        <time>2024-12-23T22:26:14.774Z</time>
      </trkpt>
      <trkpt lat="48.1817" lon="5.15222">
        <ele>267.01</ele>
        <time>2024-12-23T22:26:21.101Z</time>
      </trkpt>
      <trkpt lat="48.18155" lon="5.15252">
        <ele>265.94</ele>
        <time>2024-12-23T22:26:27.432Z</time>
      </trkpt>
      <trkpt lat="48.18142" lon="5.1527">
        <ele>264.84</ele>
        <time>2024-12-23T22:26:33.766Z</time>
      </trkpt>
      <trkpt lat="48.18131" lon="5.15272">
        <ele>263.7</ele>
        <time>2024-12-23T22:26:40.102Z</time>
      </trkpt>
      <trkpt lat="48.18106" lon="5.15254">
        <ele>262.4</ele>
        <time>2024-12-23T22:26:46.442Z</time>
      </trkpt>
      <trkpt lat="48.18091" lon="5.1522">
        <ele>261.17</ele>
        <time>2024-12-23T22:26:52.787Z</time>
      </trkpt>
      <trkpt lat="48.18071" lon="5.15183">
        <ele>259.85</ele>
        <time>2024-12-23T22:26:59.137Z</time>
      </trkpt>
      <trkpt lat="48.18052" lon="5.15146">
        <ele>258.55</ele>
        <time>2024-12-23T22:27:05.492Z</time>
      </trkpt>
      <trkpt lat="48.18033" lon="5.15109">
        <ele>257.23</ele>
        <time>2024-12-23T22:27:11.852Z</time>
      </trkpt>
      <trkpt lat="48.18013" lon="5.15072">
        <ele>255.86</ele>
        <time>2024-12-23T22:27:18.217Z</time>
      </trkpt>
      <trkpt lat="48.17992" lon="5.15038">
        <ele>254.6</ele>
        <time>2024-12-23T22:27:24.587Z</time>
      </trkpt>
      <trkpt lat="48.1797" lon="5.15003">
        <ele>253.61</ele>
        <time>2024-12-23T22:27:30.962Z</time>
      </trkpt>
      <trkpt lat="48.17949" lon="5.14969">
        <ele>252.6</ele>
        <time>2024-12-23T22:27:37.342Z</time>
      </trkpt>
      <trkpt lat="48.17934" lon="5.14949">
        <ele>251.52</ele>
        <time>2024-12-23T22:27:43.725Z</time>
      </trkpt>
      <trkpt lat="48.17919" lon="5.14928">
        <ele>250.56</ele>
        <time>2024-12-23T22:27:50.111Z</time>
      </trkpt>
      <trkpt lat="48.17915" lon="5.1492">
        <ele>249.71</ele>
        <time>2024-12-23T22:27:56.498Z</time>
      </trkpt>
      <trkpt lat="48.1791" lon="5.14924">
        <ele>248.88</ele>
        <time>2024-12-23T22:28:02.886Z</time>
      </trkpt>
      <trkpt lat="48.1791" lon="5.14933">
        <ele>248.11</ele>
        <time>2024-12-23T22:28:09.275Z</time>
      </trkpt>
      <trkpt lat="48.17904" lon="5.14937">
        <ele>247.38</ele>
        <time>2024-12-23T22:28:15.665Z</time>
      </trkpt>
      <trkpt lat="48.17891" lon="5.14952">
        <ele>246.64</ele>
        <time>2024-12-23T22:28:22.058Z</time>
      </trkpt>
      <trkpt lat="48.17879" lon="5.14925">
        <ele>246.06</ele>
        <time>2024-12-23T22:28:28.454Z</time>
      </trkpt>
      <trkpt lat="48.17868" lon="5.14898">
        <ele>245.59</ele>
        <time>2024-12-23T22:28:34.854Z</time>
      </trkpt>
      <trkpt lat="48.17857" lon="5.14878">
        <ele>245.19</ele>
        <time>2024-12-23T22:28:41.257Z</time>
      </trkpt>
      <trkpt lat="48.17846" lon="5.14858">
        <ele>244.92</ele>
        <time>2024-12-23T22:28:47.662Z</time>
      </trkpt>
      <trkpt lat="48.17826" lon="5.14835">
        <ele>244.7</ele>
        <time>2024-12-23T22:28:54.071Z</time>
      </trkpt>
      <trkpt lat="48.17805" lon="5.14812">
        <ele>244.52</ele>
        <time>2024-12-23T22:29:00.484Z</time>
      </trkpt>
      <trkpt lat="48.17777" lon="5.14795">
        <ele>244.2</ele>
        <time>2024-12-23T22:29:06.902Z</time>
      </trkpt>
      <trkpt lat="48.17756" lon="5.14788">
        <ele>243.83</ele>
        <time>2024-12-23T22:29:13.324Z</time>
      </trkpt>
      <trkpt lat="48.17734" lon="5.14781">
        <ele>243.55</ele>
        <time>2024-12-23T22:29:19.749Z</time>
      </trkpt>
      <trkpt lat="48.17713" lon="5.14774">
        <ele>243.36</ele>
        <time>2024-12-23T22:29:26.178Z</time>
      </trkpt>
      <trkpt lat="48.17686" lon="5.14769">
        <ele>243.2</ele>
        <time>2024-12-23T22:29:32.611Z</time>
      </trkpt>
      <trkpt lat="48.17659" lon="5.14764">
        <ele>243</ele>
        <time>2024-12-23T22:29:39.049Z</time>
      </trkpt>
      <trkpt lat="48.17631" lon="5.14759">
        <ele>242.82</ele>
        <time>2024-12-23T22:29:45.491Z</time>
      </trkpt>
      <trkpt lat="48.17608" lon="5.14761">
        <ele>242.57</ele>
        <time>2024-12-23T22:29:51.937Z</time>
      </trkpt>
      <trkpt lat="48.17584" lon="5.14763">
        <ele>242.43</ele>
        <time>2024-12-23T22:29:58.387Z</time>
      </trkpt>
      <trkpt lat="48.17561" lon="5.14765">
        <ele>242.31</ele>
        <time>2024-12-23T22:30:04.840Z</time>
      </trkpt>
      <trkpt lat="48.17541" lon="5.14777">
        <ele>242.16</ele>
        <time>2024-12-23T22:30:11.297Z</time>
      </trkpt>
      <trkpt lat="48.17521" lon="5.1479">
        <ele>241.95</ele>
        <time>2024-12-23T22:30:17.757Z</time>
      </trkpt>
      <trkpt lat="48.17501" lon="5.14802">
        <ele>241.8</ele>
        <time>2024-12-23T22:30:24.221Z</time>
      </trkpt>
      <trkpt lat="48.17482" lon="5.14823">
        <ele>241.71</ele>
        <time>2024-12-23T22:30:30.688Z</time>
      </trkpt>
      <trkpt lat="48.17463" lon="5.14845">
        <ele>241.57</ele>
        <time>2024-12-23T22:30:37.159Z</time>
      </trkpt>
      <trkpt lat="48.17445" lon="5.14866">
        <ele>241.35</ele>
        <time>2024-12-23T22:30:43.634Z</time>
      </trkpt>
      <trkpt lat="48.17431" lon="5.14895">
        <ele>241.12</ele>
        <time>2024-12-23T22:30:50.113Z</time>
      </trkpt>
      <trkpt lat="48.17417" lon="5.14924">
        <ele>240.93</ele>
        <time>2024-12-23T22:30:56.596Z</time>
      </trkpt>
      <trkpt lat="48.17402" lon="5.14961">
        <ele>240.78</ele>
        <time>2024-12-23T22:31:03.083Z</time>
      </trkpt>
      <trkpt lat="48.17386" lon="5.14999">
        <ele>240.8</ele>
        <time>2024-12-23T22:31:09.575Z</time>
      </trkpt>
      <trkpt lat="48.17371" lon="5.15036">
        <ele>240.83</ele>
        <time>2024-12-23T22:31:16.072Z</time>
      </trkpt>
      <trkpt lat="48.17356" lon="5.15073">
        <ele>240.9</ele>
        <time>2024-12-23T22:31:22.573Z</time>
      </trkpt>
      <trkpt lat="48.17341" lon="5.15111">
        <ele>241.01</ele>
        <time>2024-12-23T22:31:29.079Z</time>
      </trkpt>
      <trkpt lat="48.17325" lon="5.15148">
        <ele>241.1</ele>
        <time>2024-12-23T22:31:35.590Z</time>
      </trkpt>
      <trkpt lat="48.1731" lon="5.15185">
        <ele>241.19</ele>
        <time>2024-12-23T22:31:42.105Z</time>
      </trkpt>
      <trkpt lat="48.17295" lon="5.15223">
        <ele>241.25</ele>
        <time>2024-12-23T22:31:48.625Z</time>
      </trkpt>
      <trkpt lat="48.1728" lon="5.1526">
        <ele>241.31</ele>
        <time>2024-12-23T22:31:55.150Z</time>
      </trkpt>
      <trkpt lat="48.17264" lon="5.15297">
        <ele>241.35</ele>
        <time>2024-12-23T22:32:01.680Z</time>
      </trkpt>
      <trkpt lat="48.1725" lon="5.15334">
        <ele>241.46</ele>
        <time>2024-12-23T22:32:08.214Z</time>
      </trkpt>
      <trkpt lat="48.17234" lon="5.15356">
        <ele>241.65</ele>
        <time>2024-12-23T22:32:14.752Z</time>
      </trkpt>
      <trkpt lat="48.17219" lon="5.15379">
        <ele>241.84</ele>
        <time>2024-12-23T22:32:21.293Z</time>
      </trkpt>
      <trkpt lat="48.17194" lon="5.15398">
        <ele>242</ele>
        <time>2024-12-23T22:32:27.839Z</time>
      </trkpt>
      <trkpt lat="48.17168" lon="5.15418">
        <ele>242.05</ele>
        <time>2024-12-23T22:32:34.389Z</time>
      </trkpt>
      <trkpt lat="48.17141" lon="5.15429">
        <ele>242.05</ele>
        <time>2024-12-23T22:32:40.944Z</time>
      </trkpt>
      <trkpt lat="48.17114" lon="5.15441">
        <ele>242.12</ele>
        <time>2024-12-23T22:32:47.503Z</time>
      </trkpt>
      <trkpt lat="48.17091" lon="5.1544">
        <ele>242.26</ele>
        <time>2024-12-23T22:32:54.066Z</time>
      </trkpt>
      <trkpt lat="48.17067" lon="5.15439">
        <ele>242.41</ele>
        <time>2024-12-23T22:33:00.633Z</time>
      </trkpt>
      <trkpt lat="48.17045" lon="5.1543">
        <ele>242.56</ele>
        <time>2024-12-23T22:33:07.203Z</time>
      </trkpt>
      <trkpt lat="48.17022" lon="5.15422">
        <ele>242.74</ele>
        <time>2024-12-23T22:33:13.777Z</time>
      </trkpt>
      <trkpt lat="48.17001" lon="5.15405">
        <ele>242.76</ele>
        <time>2024-12-23T22:33:20.355Z</time>
      </trkpt>
      <trkpt lat="48.16979" lon="5.15388">
        <ele>242.77</ele>
        <time>2024-12-23T22:33:26.937Z</time>
      </trkpt>
      <trkpt lat="48.16963" lon="5.15362">
        <ele>242.81</ele>
        <time>2024-12-23T22:33:33.523Z</time>
      </trkpt>
      <trkpt lat="48.16947" lon="5.15336">
        <ele>242.89</ele>
        <time>2024-12-23T22:33:40.112Z</time>
      </trkpt>
      <trkpt lat="48.16934" lon="5.15309">
        <ele>243.01</ele>
        <time>2024-12-23T22:33:46.705Z</time>
      </trkpt>
      <trkpt lat="48.16921" lon="5.15282">
        <ele>243.13</ele>
        <time>2024-12-23T22:33:53.302Z</time>
      </trkpt>
      <trkpt lat="48.16913" lon="5.15245">
        <ele>243.19</ele>
        <time>2024-12-23T22:33:59.903Z</time>
      </trkpt>
      <trkpt lat="48.16904" lon="5.15207">
        <ele>243.28</ele>
        <time>2024-12-23T22:34:06.508Z</time>
      </trkpt>
      <trkpt lat="48.16903" lon="5.15167">
        <ele>243.43</ele>
        <time>2024-12-23T22:34:13.117Z</time>
      </trkpt>
      <trkpt lat="48.16902" lon="5.15127">
        <ele>243.61</ele>
        <time>2024-12-23T22:34:19.731Z</time>
      </trkpt>
      <trkpt lat="48.16901" lon="5.15086">
        <ele>243.82</ele>
        <time>2024-12-23T22:34:26.349Z</time>
      </trkpt>
      <trkpt lat="48.169" lon="5.15046">
        <ele>243.99</ele>
        <time>2024-12-23T22:34:32.971Z</time>
      </trkpt>
      <trkpt lat="48.16897" lon="5.15019">
        <ele>244.16</ele>
        <time>2024-12-23T22:34:39.596Z</time>
      </trkpt>
      <trkpt lat="48.16893" lon="5.14993">
        <ele>244.42</ele>
        <time>2024-12-23T22:34:46.224Z</time>
      </trkpt>
      <trkpt lat="48.16885" lon="5.14958">
        <ele>244.61</ele>
        <time>2024-12-23T22:34:52.856Z</time>
      </trkpt>
      <trkpt lat="48.16876" lon="5.14922">
        <ele>244.77</ele>
        <time>2024-12-23T22:34:59.492Z</time>
      </trkpt>
      <trkpt lat="48.16868" lon="5.14888">
        <ele>245.04</ele>
        <time>2024-12-23T22:35:06.132Z</time>
      </trkpt>
      <trkpt lat="48.16855" lon="5.14847">
        <ele>245.38</ele>
        <time>2024-12-23T22:35:12.777Z</time>
      </trkpt>
      <trkpt lat="48.16842" lon="5.14806">
        <ele>245.83</ele>
        <time>2024-12-23T22:35:19.427Z</time>
      </trkpt>
      <trkpt lat="48.16833" lon="5.14774">
        <ele>246.3</ele>
        <time>2024-12-23T22:35:26.080Z</time>
      </trkpt>
      <trkpt lat="48.16827" lon="5.14746">
        <ele>246.77</ele>
        <time>2024-12-23T22:35:32.737Z</time>
      </trkpt>
      <trkpt lat="48.16816" lon="5.14719">
        <ele>247.23</ele>
        <time>2024-12-23T22:35:39.397Z</time>
      </trkpt>
      <trkpt lat="48.16805" lon="5.14692">
        <ele>247.58</ele>
        <time>2024-12-23T22:35:46.060Z</time>
      </trkpt>
      <trkpt lat="48.16796" lon="5.14664">
        <ele>247.96</ele>
        <time>2024-12-23T22:35:52.727Z</time>
      </trkpt>
      <trkpt lat="48.16787" lon="5.14635">
        <ele>248.3</ele>
        <time>2024-12-23T22:35:59.397Z</time>
      </trkpt>
      <trkpt lat="48.16777" lon="5.14606">
        <ele>248.61</ele>
        <time>2024-12-23T22:36:06.071Z</time>
      </trkpt>
      <trkpt lat="48.1676" lon="5.1457">
        <ele>248.94</ele>
        <time>2024-12-23T22:36:12.749Z</time>
      </trkpt>
      <trkpt lat="48.16743" lon="5.14533">
        <ele>249.38</ele>
        <time>2024-12-23T22:36:19.432Z</time>
      </trkpt>
      <trkpt lat="48.16726" lon="5.14497">
        <ele>249.96</ele>
        <time>2024-12-23T22:36:26.120Z</time>
      </trkpt>
      <trkpt lat="48.16711" lon="5.14473">
        <ele>250.4</ele>
        <time>2024-12-23T22:36:32.811Z</time>
      </trkpt>
      <trkpt lat="48.16696" lon="5.1445">
        <ele>250.75</ele>
        <time>2024-12-23T22:36:39.506Z</time>
      </trkpt>
      <trkpt lat="48.16681" lon="5.14426">
        <ele>251</ele>
        <time>2024-12-23T22:36:46.204Z</time>
      </trkpt>
      <trkpt lat="48.16662" lon="5.14404">
        <ele>251.09</ele>
        <time>2024-12-23T22:36:52.906Z</time>
      </trkpt>
      <trkpt lat="48.16642" lon="5.14381">
        <ele>251.25</ele>
        <time>2024-12-23T22:36:59.612Z</time>
      </trkpt>
      <trkpt lat="48.16623" lon="5.14359">
        <ele>251.51</ele>
        <time>2024-12-23T22:37:06.322Z</time>
      </trkpt>
      <trkpt lat="48.16604" lon="5.14336">
        <ele>251.79</ele>
        <time>2024-12-23T22:37:13.036Z</time>
      </trkpt>
      <trkpt lat="48.16578" lon="5.14316">
        <ele>251.86</ele>
        <time>2024-12-23T22:37:19.755Z</time>
      </trkpt>
      <trkpt lat="48.16552" lon="5.14296">
        <ele>251.85</ele>
        <time>2024-12-23T22:37:26.478Z</time>
      </trkpt>
      <trkpt lat="48.16526" lon="5.14276">
        <ele>251.77</ele>
        <time>2024-12-23T22:37:33.206Z</time>
      </trkpt>
      <trkpt lat="48.16503" lon="5.14264">
        <ele>251.76</ele>
        <time>2024-12-23T22:37:39.938Z</time>
      </trkpt>
      <trkpt lat="48.16479" lon="5.14252">
        <ele>251.75</ele>
        <time>2024-12-23T22:37:46.674Z</time>
      </trkpt>
      <trkpt lat="48.16451" lon="5.14243">
        <ele>251.57</ele>
        <time>2024-12-23T22:37:53.415Z</time>
      </trkpt>
      <trkpt lat="48.16423" lon="5.14233">
        <ele>251.33</ele>
        <time>2024-12-23T22:38:00.160Z</time>
      </trkpt>
      <trkpt lat="48.16396" lon="5.14223">
        <ele>251.15</ele>
        <time>2024-12-23T22:38:06.910Z</time>
      </trkpt>
      <trkpt lat="48.16368" lon="5.14214">
        <ele>251.04</ele>
        <time>2024-12-23T22:38:13.664Z</time>
      </trkpt>
      <trkpt lat="48.1634" lon="5.14204">
        <ele>250.91</ele>
        <time>2024-12-23T22:38:20.423Z</time>
      </trkpt>
      <trkpt lat="48.16312" lon="5.14194">
        <ele>250.73</ele>
        <time>2024-12-23T22:38:27.186Z</time>
      </trkpt>
      <trkpt lat="48.16287" lon="5.14187">
        <ele>250.56</ele>
        <time>2024-12-23T22:38:33.953Z</time>
      </trkpt>
      <trkpt lat="48.16262" lon="5.14179">
        <ele>250.38</ele>
        <time>2024-12-23T22:38:40.725Z</time>
      </trkpt>
      <trkpt lat="48.16238" lon="5.14175">
        <ele>250.14</ele>
        <time>2024-12-23T22:38:47.500Z</time>
      </trkpt>
      <trkpt lat="48.16213" lon="5.14171">
        <ele>249.86</ele>
        <time>2024-12-23T22:38:54.279Z</time>
      </trkpt>
      <trkpt lat="48.16184" lon="5.14169">
        <ele>249.63</ele>
        <time>2024-12-23T22:39:01.063Z</time>
      </trkpt>
      <trkpt lat="48.16155" lon="5.14167">
        <ele>249.43</ele>
        <time>2024-12-23T22:39:07.852Z</time>
      </trkpt>
      <trkpt lat="48.16132" lon="5.14171">
        <ele>249.23</ele>
        <time>2024-12-23T22:39:14.645Z</time>
      </trkpt>
      <trkpt lat="48.16108" lon="5.14175">
        <ele>249</ele>
        <time>2024-12-23T22:39:21.441Z</time>
      </trkpt>
      <trkpt lat="48.16083" lon="5.14183">
        <ele>248.72</ele>
        <time>2024-12-23T22:39:28.241Z</time>
      </trkpt>
      <trkpt lat="48.16058" lon="5.14191">
        <ele>248.42</ele>
        <time>2024-12-23T22:39:35.046Z</time>
      </trkpt>
      <trkpt lat="48.16033" lon="5.14198">
        <ele>248.16</ele>
        <time>2024-12-23T22:39:41.855Z</time>
      </trkpt>
      <trkpt lat="48.16008" lon="5.14206">
        <ele>247.91</ele>
        <time>2024-12-23T22:39:48.668Z</time>
      </trkpt>
      <trkpt lat="48.15984" lon="5.14214">
        <ele>247.7</ele>
        <time>2024-12-23T22:39:55.485Z</time>
      </trkpt>
      <trkpt lat="48.15964" lon="5.14217">
        <ele>247.52</ele>
        <time>2024-12-23T22:40:02.305Z</time>
      </trkpt>
      <trkpt lat="48.15945" lon="5.1422">
        <ele>247.43</ele>
        <time>2024-12-23T22:40:09.128Z</time>
      </trkpt>
      <trkpt lat="48.15927" lon="5.14221">
        <ele>247.34</ele>
        <time>2024-12-23T22:40:15.954Z</time>
      </trkpt>
      <trkpt lat="48.15908" lon="5.14222">
        <ele>247.27</ele>
        <time>2024-12-23T22:40:22.783Z</time>
      </trkpt>
      <trkpt lat="48.15891" lon="5.14221">
        <ele>247.09</ele>
        <time>2024-12-23T22:40:29.615Z</time>
      </trkpt>
      <trkpt lat="48.15874" lon="5.1422">
        <ele>246.9</ele>
        <time>2024-12-23T22:40:36.449Z</time>
      </trkpt>
      <trkpt lat="48.15846" lon="5.1421">
        <ele>246.68</ele>
        <time>2024-12-23T22:40:43.288Z</time>
      </trkpt>
      <trkpt lat="48.15818" lon="5.14199">
        <ele>246.57</ele>
        <time>2024-12-23T22:40:50.132Z</time>
      </trkpt>
      <trkpt lat="48.15818" lon="5.14199">
        <ele>246.46</ele>
        <time>2024-12-23T22:40:56.976Z</time>
      </trkpt>
      <trkpt lat="48.15803" lon="5.1419">
        <ele>246.39</ele>
        <time>2024-12-23T22:41:03.822Z</time>
      </trkpt>
      <trkpt lat="48.15788" lon="5.14182">
        <ele>246.33</ele>
        <time>2024-12-23T22:41:10.671Z</time>
      </trkpt>
      <trkpt lat="48.15765" lon="5.14164">
        <ele>246.28</ele>
        <time>2024-12-23T22:41:17.524Z</time>
      </trkpt>
      <trkpt lat="48.15741" lon="5.14147">
        <ele>246.15</ele>
        <time>2024-12-23T22:41:24.381Z</time>
      </trkpt>
      <trkpt lat="48.15717" lon="5.1413">
        <ele>246.09</ele>
        <time>2024-12-23T22:41:31.242Z</time>
      </trkpt>
      <trkpt lat="48.15698" lon="5.14109">
        <ele>246.03</ele>
        <time>2024-12-23T22:41:38.107Z</time>
      </trkpt>
      <trkpt lat="48.15679" lon="5.14087">
        <ele>245.96</ele>
        <time>2024-12-23T22:41:44.976Z</time>
      </trkpt>
      <trkpt lat="48.15663" lon="5.14062">
        <ele>245.94</ele>
        <time>2024-12-23T22:41:51.849Z</time>
      </trkpt>
      <trkpt lat="48.15647" lon="5.14038">
        <ele>245.96</ele>
        <time>2024-12-23T22:41:58.725Z</time>
      </trkpt>
      <trkpt lat="48.15627" lon="5.14003">
        <ele>246.01</ele>
        <time>2024-12-23T22:42:05.606Z</time>
      </trkpt>
      <trkpt lat="48.15607" lon="5.13968">
        <ele>246.18</ele>
        <time>2024-12-23T22:42:12.492Z</time>
      </trkpt>
      <trkpt lat="48.15587" lon="5.13933">
        <ele>246.39</ele>
        <time>2024-12-23T22:42:19.383Z</time>
      </trkpt>
      <trkpt lat="48.15567" lon="5.13898">
        <ele>246.64</ele>
        <time>2024-12-23T22:42:26.279Z</time>
      </trkpt>
      <trkpt lat="48.15555" lon="5.1388">
        <ele>246.92</ele>
        <time>2024-12-23T22:42:33.178Z</time>
      </trkpt>
      <trkpt lat="48.15544" lon="5.13862">
        <ele>247.22</ele>
        <time>2024-12-23T22:42:40.079Z</time>
      </trkpt>
      <trkpt lat="48.15526" lon="5.13843">
        <ele>247.46</ele>
        <time>2024-12-23T22:42:46.984Z</time>
      </trkpt>
      <trkpt lat="48.15509" lon="5.13823">
        <ele>247.72</ele>
        <time>2024-12-23T22:42:53.892Z</time>
      </trkpt>
      <trkpt lat="48.15495" lon="5.13802">
        <ele>248.2</ele>
        <time>2024-12-23T22:43:00.804Z</time>
      </trkpt>
      <trkpt lat="48.15481" lon="5.1378">
        <ele>248.72</ele>
        <time>2024-12-23T22:43:07.719Z</time>
      </trkpt>
      <trkpt lat="48.15459" lon="5.1376">
        <ele>249.11</ele>
        <time>2024-12-23T22:43:14.638Z</time>
      </trkpt>
      <trkpt lat="48.15437" lon="5.13739">
        <ele>249.41</ele>
        <time>2024-12-23T22:43:21.561Z</time>
      </trkpt>
      <trkpt lat="48.15415" lon="5.13718">
        <ele>249.72</ele>
        <time>2024-12-23T22:43:28.488Z</time>
      </trkpt>
      <trkpt lat="48.15389" lon="5.13693">
        <ele>250.11</ele>
        <time>2024-12-23T22:43:35.420Z</time>
      </trkpt>
      <trkpt lat="48.15363" lon="5.13669">
        <ele>250.59</ele>
        <time>2024-12-23T22:43:42.357Z</time>
      </trkpt>
      <trkpt lat="48.15338" lon="5.13656">
        <ele>250.92</ele>
        <time>2024-12-23T22:43:49.298Z</time>
      </trkpt>
      <trkpt lat="48.15312" lon="5.13643">
        <ele>251.2</ele>
        <time>2024-12-23T22:43:56.244Z</time>
      </trkpt>
      <trkpt lat="48.15286" lon="5.13634">
        <ele>251.56</ele>
        <time>2024-12-23T22:44:03.194Z</time>
      </trkpt>
      <trkpt lat="48.1526" lon="5.13626">
        <ele>251.93</ele>
        <time>2024-12-23T22:44:10.148Z</time>
      </trkpt>
      <trkpt lat="48.15236" lon="5.13625">
        <ele>252.09</ele>
        <time>2024-12-23T22:44:17.106Z</time>
      </trkpt>
      <trkpt lat="48.15212" lon="5.13624">
        <ele>252.13</ele>
        <time>2024-12-23T22:44:24.068Z</time>
      </trkpt>
      <trkpt lat="48.15188" lon="5.13623">
        <ele>252.23</ele>
        <time>2024-12-23T22:44:31.034Z</time>
      </trkpt>
      <trkpt lat="48.15164" lon="5.13622">
        <ele>252.35</ele>
        <time>2024-12-23T22:44:38.004Z</time>
      </trkpt>
      <trkpt lat="48.15142" lon="5.13626">
        <ele>252.28</ele>
        <time>2024-12-23T22:44:44.977Z</time>
      </trkpt>
      <trkpt lat="48.15121" lon="5.1363">
        <ele>252.15</ele>
        <time>2024-12-23T22:44:51.954Z</time>
      </trkpt>
      <trkpt lat="48.15093" lon="5.1364">
        <ele>252.06</ele>
        <time>2024-12-23T22:44:58.935Z</time>
      </trkpt>
      <trkpt lat="48.15065" lon="5.13649">
        <ele>251.81</ele>
        <time>2024-12-23T22:45:05.921Z</time>
      </trkpt>
      <trkpt lat="48.15046" lon="5.13663">
        <ele>251.47</ele>
        <time>2024-12-23T22:45:12.910Z</time>
      </trkpt>
      <trkpt lat="48.15027" lon="5.13677">
        <ele>251.13</ele>
        <time>2024-12-23T22:45:19.903Z</time>
      </trkpt>
      <trkpt lat="48.15007" lon="5.13696">
        <ele>250.84</ele>
        <time>2024-12-23T22:45:26.899Z</time>
      </trkpt>
      <trkpt lat="48.14988" lon="5.13714">
        <ele>250.47</ele>
        <time>2024-12-23T22:45:33.899Z</time>
      </trkpt>
      <trkpt lat="48.14971" lon="5.13741">
        <ele>250.06</ele>
        <time>2024-12-23T22:45:40.903Z</time>
      </trkpt>
      <trkpt lat="48.14954" lon="5.13767">
        <ele>249.56</ele>
        <time>2024-12-23T22:45:47.911Z</time>
      </trkpt>
      <trkpt lat="48.14938" lon="5.13799">
        <ele>249.08</ele>
        <time>2024-12-23T22:45:54.923Z</time>
      </trkpt>
      <trkpt lat="48.14922" lon="5.13831">
        <ele>248.58</ele>
        <time>2024-12-23T22:46:01.939Z</time>
      </trkpt>
      <trkpt lat="48.14906" lon="5.13863">
        <ele>248.15</ele>
        <time>2024-12-23T22:46:08.960Z</time>
      </trkpt>
      <trkpt lat="48.1489" lon="5.13895">
        <ele>247.78</ele>
        <time>2024-12-23T22:46:15.985Z</time>
      </trkpt>
      <trkpt lat="48.14874" lon="5.13926">
        <ele>247.45</ele>
        <time>2024-12-23T22:46:23.014Z</time>
      </trkpt>
      <trkpt lat="48.14874" lon="5.13926">
        <ele>247.17</ele>
        <time>2024-12-23T22:46:30.043Z</time>
      </trkpt>
      <trkpt lat="48.14862" lon="5.13943">
        <ele>246.95</ele>
        <time>2024-12-23T22:46:37.075Z</time>
      </trkpt>
      <trkpt lat="48.14851" lon="5.13961">
        <ele>246.8</ele>
        <time>2024-12-23T22:46:44.109Z</time>
      </trkpt>
      <trkpt lat="48.14825" lon="5.13986">
        <ele>246.7</ele>
        <time>2024-12-23T22:46:51.148Z</time>
      </trkpt>
      <trkpt lat="48.14808" lon="5.13995">
        <ele>246.8</ele>
        <time>2024-12-23T22:46:58.190Z</time>
      </trkpt>
      <trkpt lat="48.1479" lon="5.14004">
        <ele>247</ele>
        <time>2024-12-23T22:47:05.235Z</time>
      </trkpt>
      <trkpt lat="48.14772" lon="5.14005">
        <ele>247.33</ele>
        <time>2024-12-23T22:47:12.283Z</time>
      </trkpt>
      <trkpt lat="48.14754" lon="5.14006">
        <ele>247.82</ele>
        <time>2024-12-23T22:47:19.334Z</time>
      </trkpt>
      <trkpt lat="48.14733" lon="5.14004">
        <ele>248.51</ele>
        <time>2024-12-23T22:47:26.388Z</time>
      </trkpt>
      <trkpt lat="48.14714" lon="5.13998">
        <ele>249.35</ele>
        <time>2024-12-23T22:47:33.445Z</time>
      </trkpt>
      <trkpt lat="48.14696" lon="5.13993">
        <ele>250.37</ele>
        <time>2024-12-23T22:47:40.505Z</time>
      </trkpt>
      <trkpt lat="48.14683" lon="5.13986">
        <ele>251.5</ele>
        <time>2024-12-23T22:47:47.568Z</time>
      </trkpt>
      <trkpt lat="48.14667" lon="5.14004">
        <ele>252.8</ele>
        <time>2024-12-23T22:47:54.634Z</time>
      </trkpt>
      <trkpt lat="48.14651" lon="5.14021">
        <ele>254.19</ele>
        <time>2024-12-23T22:48:01.703Z</time>
      </trkpt>
      <trkpt lat="48.14626" lon="5.14035">
        <ele>255.71</ele>
        <time>2024-12-23T22:48:08.776Z</time>
      </trkpt>
      <trkpt lat="48.14602" lon="5.14049">
        <ele>257.43</ele>
        <time>2024-12-23T22:48:15.853Z</time>
      </trkpt>
      <trkpt lat="48.14602" lon="5.14079">
        <ele>258.99</ele>
        <time>2024-12-23T22:48:22.934Z</time>
      </trkpt>
      <trkpt lat="48.14595" lon="5.14113">
        <ele>260.59</ele>
        <time>2024-12-23T22:48:30.018Z</time>
      </trkpt>
      <trkpt lat="48.14584" lon="5.14144">
        <ele>262.01</ele>
        <time>2024-12-23T22:48:37.106Z</time>
      </trkpt>
      <trkpt lat="48.14574" lon="5.14175">
        <ele>263.03</ele>
        <time>2024-12-23T22:48:44.198Z</time>
      </trkpt>
      <trkpt lat="48.14559" lon="5.14201">
        <ele>263.89</ele>
        <time>2024-12-23T22:48:51.294Z</time>
      </trkpt>
      <trkpt lat="48.14538" lon="5.14211">
        <ele>264.77</ele>
        <time>2024-12-23T22:48:58.393Z</time>
      </trkpt>
      <trkpt lat="48.14517" lon="5.14221">
        <ele>265.51</ele>
        <time>2024-12-23T22:49:05.496Z</time>
      </trkpt>
      <trkpt lat="48.14497" lon="5.14231">
        <ele>266.07</ele>
        <time>2024-12-23T22:49:12.602Z</time>
      </trkpt>
      <trkpt lat="48.14472" lon="5.14238">
        <ele>266.45</ele>
        <time>2024-12-23T22:49:19.712Z</time>
      </trkpt>
      <trkpt lat="48.14448" lon="5.14246">
        <ele>266.72</ele>
        <time>2024-12-23T22:49:26.826Z</time>
      </trkpt>
      <trkpt lat="48.14424" lon="5.14253">
        <ele>266.82</ele>
        <time>2024-12-23T22:49:33.944Z</time>
      </trkpt>
      <trkpt lat="48.144" lon="5.14261">
        <ele>266.82</ele>
        <time>2024-12-23T22:49:41.066Z</time>
      </trkpt>
      <trkpt lat="48.14407" lon="5.14295">
        <ele>266.59</ele>
        <time>2024-12-23T22:49:48.192Z</time>
      </trkpt>
      <trkpt lat="48.14415" lon="5.1433">
        <ele>266.13</ele>
        <time>2024-12-23T22:49:55.322Z</time>
      </trkpt>
      <trkpt lat="48.14424" lon="5.1436">
        <ele>265.48</ele>
        <time>2024-12-23T22:50:02.455Z</time>
      </trkpt>
      <trkpt lat="48.14426" lon="5.14403">
        <ele>264.78</ele>
        <time>2024-12-23T22:50:09.593Z</time>
      </trkpt>
      <trkpt lat="48.14429" lon="5.14447">
        <ele>264.37</ele>
        <time>2024-12-23T22:50:16.736Z</time>
      </trkpt>
      <trkpt lat="48.14432" lon="5.14491">
        <ele>260.98</ele>
        <time>2024-12-23T22:50:23.883Z</time>
      </trkpt>
      <trkpt lat="48.14449" lon="5.14488">
        <ele>263.42</ele>
        <time>2024-12-23T22:50:31.033Z</time>
      </trkpt>
    </trkseg>
  </trk>
</gpx>